Time,TemperatureF,DewpointF,PressureIn,WindDirection,WindDirectionDegrees,WindSpeedMPH,WindSpeedGustMPH,Humidity,HourlyPrecipIn,Conditions,Clouds,dailyrainin,SolarRadiationWatts/m^2,SoftwareType,DateUTC
2013-10-21 00:00:00,55.6,42.8,29.61,NE,42,0.0,0.0,62,0.00,,CLR,0.01,0.00,VWS V14.01,2013-10-21 04:00:00,
2013-10-21 00:01:00,55.6,42.8,29.61,NNE,26,0.0,0.0,62,0.00,,CLR,0.00,0.00,VWS V14.01,2013-10-21 04:01:00,
2013-10-21 00:02:00,55.6,43.2,29.61,West,280,0.0,0.0,63,0.00,,CLR,0.00,0.00,VWS V14.01,2013-10-21 04:02:00,
2013-10-21 00:03:00,55.6,42.8,29.61,WNW,288,0.0,0.0,62,0.00,,CLR,0.00,0.00,VWS V14.01,2013-10-21 04:03:00,
2013-10-21 00:04:00,55.4,43.0,29.61,WNW,288,0.0,0.0,63,0.00,,CLR,0.00,0.00,VWS V14.01,2013-10-21 04:04:00,
2013-10-21 00:05:00,55.4,43.0,29.61,West,264,0.0,0.0,63,0.00,,CLR,0.00,0.00,VWS V14.01,2013-10-21 04:05:00,
2013-10-21 00:06:00,55.4,42.6,29.61,ENE,76,0.0,0.0,62,0.00,,CLR,0.00,0.00,VWS V14.01,2013-10-21 04:06:00,
2013-10-21 00:07:00,55.4,42.6,29.61,East,88,0.0,0.0,62,0.00,,CLR,0.00,0.00,VWS V14.01,2013-10-21 04:07:00,
2013-10-21 00:08:00,55.4,42.6,29.61,NNE,19,4.0,0.0,62,0.00,,CLR,0.00,0.00,VWS V14.01,2013-10-21 04:08:00,
2013-10-21 00:09:00,55.4,43.0,29.61,NNE,19,0.0,0.0,63,0.00,,CLR,0.00,0.00,VWS V14.01,2013-10-21 04:09:00,
2013-10-21 00:10:00,55.4,43.0,29.61,East,99,0.0,0.0,63,0.00,,CLR,0.00,0.00,VWS V14.01,2013-10-21 04:10:00,
2013-10-21 00:11:00,55.3,42.9,29.61,North,360,0.0,0.0,63,0.00,,CLR,0.00,0.00,VWS V14.01,2013-10-21 04:11:00,
2013-10-21 00:12:00,55.3,42.9,29.61,WNW,286,0.0,0.0,63,0.00,,CLR,0.00,0.00,VWS V14.01,2013-10-21 04:12:00,
2013-10-21 00:13:00,55.3,42.5,29.61,NW,312,0.0,0.0,62,0.00,,CLR,0.00,0.00,VWS V14.01,2013-10-21 04:13:00,
2013-10-21 00:14:00,55.3,42.9,29.61,NW,313,0.0,0.0,63,0.00,,CLR,0.00,0.00,VWS V14.01,2013-10-21 04:14:00,
2013-10-21 00:15:00,55.3,42.9,29.61,WNW,292,1.0,0.0,63,0.00,,CLR,0.00,0.00,VWS V14.01,2013-10-21 04:15:00,
2013-10-21 00:16:00,55.3,42.9,29.61,NNW,346,0.0,0.0,63,0.00,,CLR,0.00,0.00,VWS V14.01,2013-10-21 04:16:00,
2013-10-21 00:17:00,55.3,42.9,29.61,NNW,346,0.0,0.0,63,0.00,,CLR,0.00,0.00,VWS V14.01,2013-10-21 04:17:00,
2013-10-21 00:18:00,55.3,42.9,29.61,ENE,61,0.0,0.0,63,0.00,,CLR,0.00,0.00,VWS V14.01,2013-10-21 04:18:00,
2013-10-21 00:19:00,55.3,42.9,29.61,ENE,61,0.0,0.0,63,0.00,,CLR,0.00,0.00,VWS V14.01,2013-10-21 04:19:00,
2013-10-21 00:20:00,55.1,42.8,29.61,ENE,61,0.0,0.0,63,0.00,,CLR,0.00,0.00,VWS V14.01,2013-10-21 04:20:00,
2013-10-21 00:21:00,55.1,42.8,29.61,NNE,19,0.0,0.0,63,0.00,,CLR,0.00,0.00,VWS V14.01,2013-10-21 04:21:00,
2013-10-21 00:22:00,55.1,42.8,29.61,North,360,2.0,0.0,63,0.00,,CLR,0.00,0.00,VWS V14.01,2013-10-21 04:22:00,
2013-10-21 00:23:00,55.1,42.8,29.61,WSW,240,0.0,0.0,63,0.00,,CLR,0.00,0.00,VWS V14.01,2013-10-21 04:23:00,
2013-10-21 00:24:00,55.1,42.8,29.61,WSW,240,0.0,0.0,63,0.00,,CLR,0.00,0.00,VWS V14.01,2013-10-21 04:24:00,
2013-10-21 00:25:00,55.1,42.8,29.61,WSW,240,0.0,0.0,63,0.00,,CLR,0.00,0.00,VWS V14.01,2013-10-21 04:25:00,
2013-10-21 00:26:00,55.1,42.8,29.61,North,360,0.0,0.0,63,0.00,,CLR,0.00,0.00,VWS V14.01,2013-10-21 04:26:00,
2013-10-21 00:27:00,55.1,42.8,29.61,SW,215,0.0,0.0,63,0.00,,CLR,0.00,0.00,VWS V14.01,2013-10-21 04:27:00,
2013-10-21 00:28:00,55.1,43.2,29.61,SSW,211,0.0,0.0,64,0.00,,CLR,0.00,0.00,VWS V14.01,2013-10-21 04:28:00,
2013-10-21 00:29:00,55.1,43.2,29.61,WNW,296,0.0,0.0,64,0.00,,CLR,0.00,0.00,VWS V14.01,2013-10-21 04:29:00,
2013-10-21 00:30:00,55.1,43.2,29.61,WNW,296,0.0,0.0,64,0.00,,CLR,0.00,0.00,VWS V14.01,2013-10-21 04:30:00,
2013-10-21 00:31:00,55.0,43.1,29.61,WNW,296,0.0,0.0,64,0.00,,CLR,0.00,0.00,VWS V14.01,2013-10-21 04:31:00,
2013-10-21 00:32:00,55.0,43.1,29.61,NNW,344,3.0,0.0,64,0.00,,CLR,0.00,0.00,VWS V14.01,2013-10-21 04:32:00,
2013-10-21 00:33:00,55.0,43.1,29.61,NNW,344,0.0,0.0,64,0.00,,CLR,0.00,0.00,VWS V14.01,2013-10-21 04:33:00,
2013-10-21 00:34:00,55.0,43.1,29.61,NNW,340,0.0,0.0,64,0.00,,CLR,0.00,0.00,VWS V14.01,2013-10-21 04:34:00,
2013-10-21 00:35:00,55.0,43.1,29.61,NNW,340,0.0,0.0,64,0.00,,CLR,0.00,0.00,VWS V14.01,2013-10-21 04:35:00,
2013-10-21 00:36:00,54.8,42.9,29.61,NNW,340,0.0,0.0,64,0.00,,CLR,0.00,0.00,VWS V14.01,2013-10-21 04:36:00,
2013-10-21 00:37:00,54.8,42.9,29.61,NNW,340,0.0,0.0,64,0.00,,CLR,0.00,0.00,VWS V14.01,2013-10-21 04:37:00,
2013-10-21 00:38:00,54.8,42.9,29.61,NNW,340,0.0,0.0,64,0.00,,CLR,0.00,0.00,VWS V14.01,2013-10-21 04:38:00,
2013-10-21 00:39:00,54.8,42.9,29.61,SW,214,0.0,0.0,64,0.00,,CLR,0.00,0.00,VWS V14.01,2013-10-21 04:39:00,
2013-10-21 00:40:00,54.8,42.9,29.61,NNE,15,0.0,0.0,64,0.00,,CLR,0.00,0.00,VWS V14.01,2013-10-21 04:40:00,
2013-10-21 00:41:00,54.8,42.9,29.61,NNE,22,0.0,0.0,64,0.00,,CLR,0.00,0.00,VWS V14.01,2013-10-21 04:41:00,
2013-10-21 00:42:00,54.8,42.9,29.61,NNW,348,5.0,0.0,64,0.00,,CLR,0.00,0.00,VWS V14.01,2013-10-21 04:42:00,
2013-10-21 00:43:00,54.8,42.9,29.61,NNW,339,0.0,0.0,64,0.00,,CLR,0.00,0.00,VWS V14.01,2013-10-21 04:43:00,
2013-10-21 00:44:00,54.8,42.9,29.61,NNW,339,0.0,0.0,64,0.00,,CLR,0.00,0.00,VWS V14.01,2013-10-21 04:44:00,
2013-10-21 00:45:00,54.8,42.9,29.61,NNW,339,0.0,0.0,64,0.00,,CLR,0.00,0.00,VWS V14.01,2013-10-21 04:45:00,
2013-10-21 00:46:00,54.7,42.8,29.61,North,10,1.0,0.0,64,0.00,,CLR,0.00,0.00,VWS V14.01,2013-10-21 04:46:00,
2013-10-21 00:47:00,54.7,42.8,29.61,NW,315,0.0,0.0,64,0.00,,CLR,0.00,0.00,VWS V14.01,2013-10-21 04:47:00,
2013-10-21 00:48:00,54.7,42.8,29.61,ENE,71,0.0,0.0,64,0.00,,CLR,0.00,0.00,VWS V14.01,2013-10-21 04:48:00,
2013-10-21 00:49:00,54.7,42.8,29.61,ENE,71,0.0,0.0,64,0.00,,CLR,0.00,0.00,VWS V14.01,2013-10-21 04:49:00,
2013-10-21 00:50:00,54.7,42.8,29.61,SSW,201,1.0,0.0,64,0.00,,CLR,0.00,0.00,VWS V14.01,2013-10-21 04:50:00,
2013-10-21 00:51:00,54.7,42.8,29.61,SSW,201,0.0,0.0,64,0.00,,CLR,0.00,0.00,VWS V14.01,2013-10-21 04:51:00,
2013-10-21 00:52:00,54.7,42.8,29.61,NW,320,0.0,0.0,64,0.00,,CLR,0.00,0.00,VWS V14.01,2013-10-21 04:52:00,
2013-10-21 00:53:00,54.7,43.2,29.61,WSW,250,2.0,0.0,65,0.00,,CLR,0.00,0.00,VWS V14.01,2013-10-21 04:53:00,
2013-10-21 00:54:00,54.7,42.8,29.61,North,355,0.0,0.0,64,0.00,,CLR,0.00,0.00,VWS V14.01,2013-10-21 04:54:00,
2013-10-21 00:55:00,54.5,43.0,29.61,North,355,0.0,0.0,65,0.00,,CLR,0.00,0.00,VWS V14.01,2013-10-21 04:55:00,
2013-10-21 00:56:00,54.5,43.0,29.61,North,355,1.0,0.0,65,0.00,,CLR,0.00,0.00,VWS V14.01,2013-10-21 04:56:00,
2013-10-21 00:57:00,54.5,43.0,29.61,WSW,244,0.0,0.0,65,0.00,,CLR,0.00,0.00,VWS V14.01,2013-10-21 04:57:00,
2013-10-21 00:58:00,54.5,43.0,29.61,WSW,242,0.0,0.0,65,0.00,,CLR,0.00,0.00,VWS V14.01,2013-10-21 04:58:00,
2013-10-21 00:59:00,54.5,43.0,29.61,WSW,242,0.0,0.0,65,0.00,,CLR,0.00,0.00,VWS V14.01,2013-10-21 04:59:00,
2013-10-21 01:00:00,54.5,43.0,29.60,SSE,163,0.0,0.0,65,0.00,,CLR,0.00,0.00,VWS V14.01,2013-10-21 05:00:00,
2013-10-21 01:01:00,54.5,43.0,29.60,South,178,0.0,0.0,65,0.00,,CLR,0.00,0.00,VWS V14.01,2013-10-21 05:01:00,
2013-10-21 01:02:00,54.4,42.9,29.60,NNW,345,0.0,0.0,65,0.00,,CLR,0.00,0.00,VWS V14.01,2013-10-21 05:02:00,
2013-10-21 01:03:00,54.4,42.9,29.60,NNW,346,1.0,0.0,65,0.00,,CLR,0.00,0.00,VWS V14.01,2013-10-21 05:03:00,
2013-10-21 01:04:00,54.4,42.9,29.60,SW,236,0.0,0.0,65,0.00,,CLR,0.00,0.00,VWS V14.01,2013-10-21 05:04:00,
2013-10-21 01:05:00,54.4,42.9,29.60,NW,325,0.0,0.0,65,0.00,,CLR,0.00,0.00,VWS V14.01,2013-10-21 05:05:00,
2013-10-21 01:06:00,54.4,42.9,29.60,SSW,211,0.0,0.0,65,0.00,,CLR,0.00,0.00,VWS V14.01,2013-10-21 05:06:00,
2013-10-21 01:07:00,54.4,42.9,29.60,SSW,211,0.0,0.0,65,0.00,,CLR,0.00,0.00,VWS V14.01,2013-10-21 05:07:00,
2013-10-21 01:08:00,54.4,42.9,29.60,NNE,22,0.0,0.0,65,0.00,,CLR,0.00,0.00,VWS V14.01,2013-10-21 05:08:00,
2013-10-21 01:09:00,54.4,42.9,29.60,NNE,22,2.0,0.0,65,0.00,,CLR,0.00,0.00,VWS V14.01,2013-10-21 05:09:00,
2013-10-21 01:10:00,54.4,43.3,29.60,NNE,22,0.0,0.0,66,0.00,,CLR,0.00,0.00,VWS V14.01,2013-10-21 05:10:00,
2013-10-21 01:11:00,54.4,43.3,29.60,NNE,22,0.0,0.0,66,0.00,,CLR,0.00,0.00,VWS V14.01,2013-10-21 05:11:00,
2013-10-21 01:12:00,54.2,43.1,29.60,NNE,22,1.0,0.0,66,0.00,,CLR,0.00,0.00,VWS V14.01,2013-10-21 05:12:00,
2013-10-21 01:13:00,54.2,43.1,29.60,NNE,22,0.0,0.0,66,0.00,,CLR,0.00,0.00,VWS V14.01,2013-10-21 05:13:00,
2013-10-21 01:14:00,54.2,43.1,29.60,NNE,22,0.0,0.0,66,0.00,,CLR,0.00,0.00,VWS V14.01,2013-10-21 05:14:00,
2013-10-21 01:15:00,54.2,43.1,29.60,NNE,22,0.0,0.0,66,0.00,,CLR,0.00,0.00,VWS V14.01,2013-10-21 05:15:00,
2013-10-21 01:16:00,54.2,43.1,29.60,NW,323,0.0,0.0,66,0.00,,CLR,0.00,0.00,VWS V14.01,2013-10-21 05:16:00,
2013-10-21 01:17:00,54.2,42.7,29.60,West,276,0.0,0.0,65,0.00,,CLR,0.00,0.00,VWS V14.01,2013-10-21 05:17:00,
2013-10-21 01:18:00,54.2,42.7,29.60,West,276,0.0,0.0,65,0.00,,CLR,0.00,0.00,VWS V14.01,2013-10-21 05:18:00,
2013-10-21 01:19:00,54.1,42.6,29.60,West,276,0.0,0.0,65,0.00,,CLR,0.00,0.00,VWS V14.01,2013-10-21 05:19:00,
2013-10-21 01:20:00,54.1,42.6,29.60,West,276,0.0,0.0,65,0.00,,CLR,0.00,0.00,VWS V14.01,2013-10-21 05:20:00,
2013-10-21 01:21:00,54.1,43.0,29.60,West,276,0.0,0.0,66,0.00,,CLR,0.00,0.00,VWS V14.01,2013-10-21 05:21:00,
2013-10-21 01:22:00,54.1,43.0,29.60,West,276,0.0,0.0,66,0.00,,CLR,0.00,0.00,VWS V14.01,2013-10-21 05:22:00,
2013-10-21 01:23:00,54.1,43.0,29.60,West,276,0.0,0.0,66,0.00,,CLR,0.00,0.00,VWS V14.01,2013-10-21 05:23:00,
2013-10-21 01:24:00,54.1,43.0,29.60,West,276,0.0,0.0,66,0.00,,CLR,0.00,0.00,VWS V14.01,2013-10-21 05:24:00,
2013-10-21 01:25:00,54.1,43.0,29.60,West,276,0.0,0.0,66,0.00,,CLR,0.00,0.00,VWS V14.01,2013-10-21 05:25:00,
2013-10-21 01:26:00,54.1,43.0,29.60,West,276,0.0,0.0,66,0.00,,CLR,0.00,0.00,VWS V14.01,2013-10-21 05:26:00,
2013-10-21 01:27:00,54.1,43.0,29.60,ESE,113,0.0,0.0,66,0.00,,CLR,0.00,0.00,VWS V14.01,2013-10-21 05:27:00,
2013-10-21 01:28:00,54.1,43.0,29.60,ESE,113,0.0,0.0,66,0.00,,CLR,0.00,0.00,VWS V14.01,2013-10-21 05:28:00,
2013-10-21 01:29:00,54.1,43.0,29.60,NE,46,0.0,0.0,66,0.00,,CLR,0.00,0.00,VWS V14.01,2013-10-21 05:29:00,
2013-10-21 01:30:00,54.1,43.0,29.60,NE,46,0.0,0.0,66,0.00,,CLR,0.00,0.00,VWS V14.01,2013-10-21 05:30:00,
2013-10-21 01:31:00,53.9,42.8,29.60,NE,34,0.0,0.0,66,0.00,,CLR,0.00,0.00,VWS V14.01,2013-10-21 05:31:00,
2013-10-21 01:32:00,53.9,42.8,29.60,NE,34,0.0,0.0,66,0.00,,CLR,0.00,0.00,VWS V14.01,2013-10-21 05:32:00,
2013-10-21 01:33:00,53.9,42.8,29.60,NE,34,0.0,0.0,66,0.00,,CLR,0.00,0.00,VWS V14.01,2013-10-21 05:33:00,
2013-10-21 01:34:00,53.9,42.8,29.60,NE,34,0.0,0.0,66,0.00,,CLR,0.00,0.00,VWS V14.01,2013-10-21 05:34:00,
2013-10-21 01:35:00,53.9,42.8,29.60,North,5,2.0,0.0,66,0.00,,CLR,0.00,0.00,VWS V14.01,2013-10-21 05:35:00,
2013-10-21 01:36:00,53.9,43.2,29.60,NNE,22,0.0,0.0,67,0.00,,CLR,0.00,0.00,VWS V14.01,2013-10-21 05:36:00,
2013-10-21 01:37:00,53.9,43.2,29.60,NNE,22,0.0,0.0,67,0.00,,CLR,0.00,0.00,VWS V14.01,2013-10-21 05:37:00,
2013-10-21 01:38:00,53.9,43.2,29.60,NNE,22,1.0,0.0,67,0.00,,CLR,0.00,0.00,VWS V14.01,2013-10-21 05:38:00,
2013-10-21 01:39:00,53.9,43.2,29.60,NNE,22,0.0,0.0,67,0.00,,CLR,0.00,0.00,VWS V14.01,2013-10-21 05:39:00,
2013-10-21 01:40:00,53.8,43.1,29.60,NNE,22,0.0,0.0,67,0.00,,CLR,0.00,0.00,VWS V14.01,2013-10-21 05:40:00,
2013-10-21 01:41:00,53.8,43.1,29.60,NNE,22,0.0,0.0,67,0.00,,CLR,0.00,0.00,VWS V14.01,2013-10-21 05:41:00,
2013-10-21 01:42:00,53.8,43.1,29.60,NE,38,1.0,0.0,67,0.00,,CLR,0.00,0.00,VWS V14.01,2013-10-21 05:42:00,
2013-10-21 01:43:00,53.8,43.1,29.60,NE,38,0.0,0.0,67,0.00,,CLR,0.00,0.00,VWS V14.01,2013-10-21 05:43:00,
2013-10-21 01:44:00,53.8,43.1,29.60,NE,38,0.0,0.0,67,0.00,,CLR,0.00,0.00,VWS V14.01,2013-10-21 05:44:00,
2013-10-21 01:45:00,53.8,43.1,29.60,NE,38,0.0,0.0,67,0.00,,CLR,0.00,0.00,VWS V14.01,2013-10-21 05:45:00,
2013-10-21 01:46:00,53.8,43.1,29.60,NE,38,0.0,0.0,67,0.00,,CLR,0.00,0.00,VWS V14.01,2013-10-21 05:46:00,
2013-10-21 01:47:00,53.8,43.1,29.60,NNE,24,0.0,0.0,67,0.00,,CLR,0.00,0.00,VWS V14.01,2013-10-21 05:47:00,
2013-10-21 01:48:00,53.6,42.9,29.60,NNE,24,0.0,0.0,67,0.00,,CLR,0.00,0.00,VWS V14.01,2013-10-21 05:48:00,
2013-10-21 01:49:00,53.6,42.9,29.60,NNE,24,0.0,0.0,67,0.00,,CLR,0.00,0.00,VWS V14.01,2013-10-21 05:49:00,
2013-10-21 01:50:00,53.6,42.9,29.60,NNE,20,1.0,0.0,67,0.00,,CLR,0.00,0.00,VWS V14.01,2013-10-21 05:50:00,
2013-10-21 01:51:00,53.6,42.9,29.60,North,5,1.0,0.0,67,0.00,,CLR,0.00,0.00,VWS V14.01,2013-10-21 05:51:00,
2013-10-21 01:52:00,53.6,42.9,29.60,North,5,0.0,0.0,67,0.00,,CLR,0.00,0.00,VWS V14.01,2013-10-21 05:52:00,
2013-10-21 01:53:00,53.6,42.9,29.60,North,9,0.0,0.0,67,0.00,,CLR,0.00,0.00,VWS V14.01,2013-10-21 05:53:00,
2013-10-21 01:54:00,53.6,42.9,29.60,North,9,0.0,0.0,67,0.00,,CLR,0.00,0.00,VWS V14.01,2013-10-21 05:54:00,
2013-10-21 01:55:00,53.6,42.9,29.60,North,9,0.0,0.0,67,0.00,,CLR,0.00,0.00,VWS V14.01,2013-10-21 05:55:00,
2013-10-21 01:56:00,53.6,42.9,29.60,ENE,70,2.0,0.0,67,0.00,,CLR,0.00,0.00,VWS V14.01,2013-10-21 05:56:00,
2013-10-21 01:57:00,53.6,42.9,29.60,East,81,0.0,0.0,67,0.00,,CLR,0.00,0.00,VWS V14.01,2013-10-21 05:57:00,
2013-10-21 01:58:00,53.6,42.9,29.60,NE,54,0.0,0.0,67,0.00,,CLR,0.00,0.00,VWS V14.01,2013-10-21 05:58:00,
2013-10-21 01:59:00,53.6,42.9,29.60,ENE,61,0.0,0.0,67,0.00,,CLR,0.00,0.00,VWS V14.01,2013-10-21 05:59:00,
2013-10-21 02:00:00,53.6,42.9,29.60,North,5,0.0,0.0,67,0.00,,CLR,0.00,0.00,VWS V14.01,2013-10-21 06:00:00,
2013-10-21 02:01:00,53.6,42.9,29.60,North,5,0.0,0.0,67,0.00,,CLR,0.00,0.00,VWS V14.01,2013-10-21 06:01:00,
2013-10-21 02:02:00,53.6,42.9,29.60,North,5,0.0,0.0,67,0.00,,CLR,0.00,0.00,VWS V14.01,2013-10-21 06:02:00,
2013-10-21 02:03:00,53.6,42.9,29.60,North,5,0.0,0.0,67,0.00,,CLR,0.00,0.00,VWS V14.01,2013-10-21 06:03:00,
2013-10-21 02:04:00,53.6,42.9,29.60,North,5,0.0,0.0,67,0.00,,CLR,0.00,0.00,VWS V14.01,2013-10-21 06:04:00,
2013-10-21 02:05:00,53.6,43.3,29.60,North,5,0.0,0.0,68,0.00,,CLR,0.00,0.00,VWS V14.01,2013-10-21 06:05:00,
2013-10-21 02:06:00,53.6,43.3,29.60,North,5,4.0,0.0,68,0.00,,CLR,0.00,0.00,VWS V14.01,2013-10-21 06:06:00,
2013-10-21 02:07:00,53.6,43.3,29.60,NW,325,0.0,0.0,68,0.00,,CLR,0.00,0.00,VWS V14.01,2013-10-21 06:07:00,
2013-10-21 02:08:00,53.6,43.3,29.60,NW,325,0.0,0.0,68,0.00,,CLR,0.00,0.00,VWS V14.01,2013-10-21 06:08:00,
2013-10-21 02:09:00,53.6,43.3,29.60,NW,325,0.0,0.0,68,0.00,,CLR,0.00,0.00,VWS V14.01,2013-10-21 06:09:00,
2013-10-21 02:10:00,53.6,43.3,29.60,NW,325,0.0,0.0,68,0.00,,CLR,0.00,0.00,VWS V14.01,2013-10-21 06:10:00,
2013-10-21 02:11:00,53.6,43.3,29.60,NW,325,0.0,0.0,68,0.00,,CLR,0.00,0.00,VWS V14.01,2013-10-21 06:11:00,
2013-10-21 02:12:00,53.6,43.3,29.60,NW,325,0.0,0.0,68,0.00,,CLR,0.00,0.00,VWS V14.01,2013-10-21 06:12:00,
2013-10-21 02:13:00,53.6,43.3,29.60,NW,325,0.0,0.0,68,0.00,,CLR,0.00,0.00,VWS V14.01,2013-10-21 06:13:00,
2013-10-21 02:14:00,53.6,42.9,29.60,East,82,0.0,0.0,67,0.00,,CLR,0.00,0.00,VWS V14.01,2013-10-21 06:14:00,
2013-10-21 02:15:00,53.6,43.3,29.60,East,82,0.0,0.0,68,0.00,,CLR,0.00,0.00,VWS V14.01,2013-10-21 06:15:00,
2013-10-21 02:16:00,53.6,43.3,29.60,NNE,15,1.0,0.0,68,0.00,,CLR,0.00,0.00,VWS V14.01,2013-10-21 06:16:00,
2013-10-21 02:17:00,53.6,43.3,29.60,WNW,291,0.0,0.0,68,0.00,,CLR,0.00,0.00,VWS V14.01,2013-10-21 06:17:00,
2013-10-21 02:18:00,53.6,43.3,29.60,WNW,291,0.0,0.0,68,0.00,,CLR,0.00,0.00,VWS V14.01,2013-10-21 06:18:00,
2013-10-21 02:19:00,53.6,43.3,29.60,WNW,291,0.0,0.0,68,0.00,,CLR,0.00,0.00,VWS V14.01,2013-10-21 06:19:00,
2013-10-21 02:20:00,53.6,43.3,29.60,WNW,291,0.0,0.0,68,0.00,,CLR,0.00,0.00,VWS V14.01,2013-10-21 06:20:00,
2013-10-21 02:21:00,53.6,43.3,29.60,WNW,291,0.0,0.0,68,0.00,,CLR,0.00,0.00,VWS V14.01,2013-10-21 06:21:00,
2013-10-21 02:22:00,53.6,43.3,29.60,WNW,291,0.0,0.0,68,0.00,,CLR,0.00,0.00,VWS V14.01,2013-10-21 06:22:00,
2013-10-21 02:23:00,53.6,43.3,29.60,WNW,291,0.0,0.0,68,0.00,,CLR,0.00,0.00,VWS V14.01,2013-10-21 06:23:00,
2013-10-21 02:24:00,53.6,43.3,29.60,South,190,0.0,0.0,68,0.00,,CLR,0.00,0.00,VWS V14.01,2013-10-21 06:24:00,
2013-10-21 02:25:00,53.6,43.3,29.60,South,191,0.0,0.0,68,0.00,,CLR,0.00,0.00,VWS V14.01,2013-10-21 06:25:00,
2013-10-21 02:26:00,53.6,43.3,29.60,North,9,0.0,0.0,68,0.00,,CLR,0.00,0.00,VWS V14.01,2013-10-21 06:26:00,
2013-10-21 02:27:00,53.6,43.3,29.60,North,9,0.0,0.0,68,0.00,,CLR,0.00,0.00,VWS V14.01,2013-10-21 06:27:00,
2013-10-21 02:28:00,53.6,43.3,29.60,ESE,107,0.0,0.0,68,0.00,,CLR,0.00,0.00,VWS V14.01,2013-10-21 06:28:00,
2013-10-21 02:29:00,53.6,43.3,29.60,NNE,21,3.0,0.0,68,0.00,,CLR,0.00,0.00,VWS V14.01,2013-10-21 06:29:00,
2013-10-21 02:30:00,53.6,43.3,29.61,NNE,30,0.0,0.0,68,0.00,,CLR,0.00,0.00,VWS V14.01,2013-10-21 06:30:00,
2013-10-21 02:31:00,53.6,43.3,29.61,NNE,30,0.0,0.0,68,0.00,,CLR,0.00,0.00,VWS V14.01,2013-10-21 06:31:00,
2013-10-21 02:32:00,53.6,43.3,29.61,NNE,30,0.0,0.0,68,0.00,,CLR,0.00,0.00,VWS V14.01,2013-10-21 06:32:00,
2013-10-21 02:33:00,53.6,43.3,29.61,NNE,30,1.0,0.0,68,0.00,,CLR,0.00,0.00,VWS V14.01,2013-10-21 06:33:00,
2013-10-21 02:34:00,53.6,43.3,29.61,NNE,30,0.0,0.0,68,0.00,,CLR,0.00,0.00,VWS V14.01,2013-10-21 06:34:00,
2013-10-21 02:35:00,53.6,43.3,29.61,NNE,30,0.0,0.0,68,0.00,,CLR,0.00,0.00,VWS V14.01,2013-10-21 06:35:00,
2013-10-21 02:36:00,53.6,43.3,29.61,NNE,30,0.0,0.0,68,0.00,,CLR,0.00,0.00,VWS V14.01,2013-10-21 06:36:00,
2013-10-21 02:37:00,53.6,43.7,29.61,NNE,30,0.0,0.0,69,0.00,,CLR,0.00,0.00,VWS V14.01,2013-10-21 06:37:00,
2013-10-21 02:38:00,53.6,43.7,29.61,NNE,30,0.0,0.0,69,0.00,,CLR,0.00,0.00,VWS V14.01,2013-10-21 06:38:00,
2013-10-21 02:39:00,53.6,43.7,29.61,NNE,30,0.0,0.0,69,0.00,,CLR,0.00,0.00,VWS V14.01,2013-10-21 06:39:00,
2013-10-21 02:40:00,53.6,43.7,29.61,NNE,32,0.0,0.0,69,0.00,,CLR,0.00,0.00,VWS V14.01,2013-10-21 06:40:00,
2013-10-21 02:41:00,53.6,43.7,29.61,NNW,330,0.0,0.0,69,0.00,,CLR,0.00,0.00,VWS V14.01,2013-10-21 06:41:00,
2013-10-21 02:42:00,53.6,43.7,29.61,NNW,331,0.0,0.0,69,0.00,,CLR,0.00,0.00,VWS V14.01,2013-10-21 06:42:00,
2013-10-21 02:43:00,53.5,43.6,29.61,NNW,331,0.0,0.0,69,0.00,,CLR,0.00,0.00,VWS V14.01,2013-10-21 06:43:00,
2013-10-21 02:44:00,53.5,43.6,29.61,North,355,1.0,0.0,69,0.00,,CLR,0.00,0.00,VWS V14.01,2013-10-21 06:44:00,
2013-10-21 02:45:00,53.5,43.6,29.60,North,5,1.0,0.0,69,0.00,,CLR,0.00,0.00,VWS V14.01,2013-10-21 06:45:00,
2013-10-21 02:46:00,53.5,43.6,29.60,North,360,0.0,0.0,69,0.00,,CLR,0.00,0.00,VWS V14.01,2013-10-21 06:46:00,
2013-10-21 02:47:00,53.5,43.6,29.60,North,360,0.0,0.0,69,0.00,,CLR,0.00,0.00,VWS V14.01,2013-10-21 06:47:00,
2013-10-21 02:48:00,53.6,43.7,29.60,North,360,0.0,0.0,69,0.00,,CLR,0.00,0.00,VWS V14.01,2013-10-21 06:48:00,
2013-10-21 02:49:00,53.6,43.7,29.60,North,360,0.0,0.0,69,0.00,,CLR,0.00,0.00,VWS V14.01,2013-10-21 06:49:00,
2013-10-21 02:50:00,53.6,43.7,29.60,SW,236,0.0,0.0,69,0.00,,CLR,0.00,0.00,VWS V14.01,2013-10-21 06:50:00,
2013-10-21 02:51:00,53.6,43.7,29.60,SW,236,0.0,0.0,69,0.00,,CLR,0.00,0.00,VWS V14.01,2013-10-21 06:51:00,
2013-10-21 02:52:00,53.6,43.7,29.60,SW,218,0.0,0.0,69,0.00,,CLR,0.00,0.00,VWS V14.01,2013-10-21 06:52:00,
2013-10-21 02:53:00,53.6,43.7,29.60,SW,218,0.0,0.0,69,0.00,,CLR,0.00,0.00,VWS V14.01,2013-10-21 06:53:00,
2013-10-21 02:54:00,53.6,43.7,29.60,West,261,0.0,0.0,69,0.00,,CLR,0.00,0.00,VWS V14.01,2013-10-21 06:54:00,
2013-10-21 02:55:00,53.6,43.7,29.60,West,261,0.0,0.0,69,0.00,,CLR,0.00,0.00,VWS V14.01,2013-10-21 06:55:00,
2013-10-21 02:56:00,53.6,43.7,29.60,SE,141,0.0,0.0,69,0.00,,CLR,0.00,0.00,VWS V14.01,2013-10-21 06:56:00,
2013-10-21 02:57:00,53.6,43.7,29.60,SE,142,0.0,0.0,69,0.00,,CLR,0.00,0.00,VWS V14.01,2013-10-21 06:57:00,
2013-10-21 02:58:00,53.6,43.7,29.60,SE,141,0.0,0.0,69,0.00,,CLR,0.00,0.00,VWS V14.01,2013-10-21 06:58:00,
2013-10-21 02:59:00,53.6,43.7,29.60,SE,142,1.0,0.0,69,0.00,,CLR,0.00,0.00,VWS V14.01,2013-10-21 06:59:00,
2013-10-21 03:00:00,53.5,43.6,29.61,NE,34,0.0,0.0,69,0.00,,CLR,0.00,0.00,VWS V14.01,2013-10-21 07:00:00,
2013-10-21 03:01:00,53.5,43.6,29.61,ENE,74,0.0,0.0,69,0.00,,CLR,0.00,0.00,VWS V14.01,2013-10-21 07:01:00,
2013-10-21 03:02:00,53.5,43.6,29.61,South,188,0.0,0.0,69,0.00,,CLR,0.00,0.00,VWS V14.01,2013-10-21 07:02:00,
2013-10-21 03:03:00,53.5,43.6,29.61,NNE,32,1.0,0.0,69,0.00,,CLR,0.00,0.00,VWS V14.01,2013-10-21 07:03:00,
2013-10-21 03:04:00,53.6,43.7,29.61,NNE,32,0.0,0.0,69,0.00,,CLR,0.00,0.00,VWS V14.01,2013-10-21 07:04:00,
2013-10-21 03:05:00,53.5,43.6,29.61,NE,35,1.0,0.0,69,0.00,,CLR,0.00,0.00,VWS V14.01,2013-10-21 07:05:00,
2013-10-21 03:06:00,53.5,43.6,29.61,NE,54,0.0,0.0,69,0.00,,CLR,0.00,0.00,VWS V14.01,2013-10-21 07:06:00,
2013-10-21 03:07:00,53.5,43.6,29.61,NNW,344,0.0,0.0,69,0.00,,CLR,0.00,0.00,VWS V14.01,2013-10-21 07:07:00,
2013-10-21 03:08:00,53.5,43.6,29.61,NNW,344,0.0,0.0,69,0.00,,CLR,0.00,0.00,VWS V14.01,2013-10-21 07:08:00,
2013-10-21 03:09:00,53.5,43.6,29.61,NNW,345,0.0,0.0,69,0.00,,CLR,0.00,0.00,VWS V14.01,2013-10-21 07:09:00,
2013-10-21 03:10:00,53.5,43.6,29.61,NNW,345,0.0,0.0,69,0.00,,CLR,0.00,0.00,VWS V14.01,2013-10-21 07:10:00,
2013-10-21 03:11:00,53.5,43.6,29.61,West,279,0.0,0.0,69,0.00,,CLR,0.00,0.00,VWS V14.01,2013-10-21 07:11:00,
2013-10-21 03:12:00,53.5,43.6,29.61,NW,320,0.0,0.0,69,0.00,,CLR,0.00,0.00,VWS V14.01,2013-10-21 07:12:00,
2013-10-21 03:13:00,53.5,43.6,29.61,NW,319,0.0,0.0,69,0.00,,CLR,0.00,0.00,VWS V14.01,2013-10-21 07:13:00,
2013-10-21 03:14:00,53.5,44.0,29.61,NW,319,0.0,0.0,70,0.00,,CLR,0.00,0.00,VWS V14.01,2013-10-21 07:14:00,
2013-10-21 03:15:00,53.5,44.0,29.61,SW,221,0.0,0.0,70,0.00,,CLR,0.00,0.00,VWS V14.01,2013-10-21 07:15:00,
2013-10-21 03:16:00,53.5,44.0,29.61,SW,221,0.0,0.0,70,0.00,,CLR,0.00,0.00,VWS V14.01,2013-10-21 07:16:00,
2013-10-21 03:17:00,53.5,44.0,29.61,SW,221,0.0,0.0,70,0.00,,CLR,0.00,0.00,VWS V14.01,2013-10-21 07:17:00,
2013-10-21 03:18:00,53.5,44.0,29.61,SW,221,0.0,0.0,70,0.00,,CLR,0.00,0.00,VWS V14.01,2013-10-21 07:18:00,
2013-10-21 03:19:00,53.5,44.0,29.61,SW,221,0.0,0.0,70,0.00,,CLR,0.00,0.00,VWS V14.01,2013-10-21 07:19:00,
2013-10-21 03:20:00,53.5,44.0,29.61,SW,221,0.0,0.0,70,0.00,,CLR,0.00,0.00,VWS V14.01,2013-10-21 07:20:00,
2013-10-21 03:21:00,53.5,44.0,29.61,NNE,14,1.0,0.0,70,0.00,,CLR,0.00,0.00,VWS V14.01,2013-10-21 07:21:00,
2013-10-21 03:22:00,53.5,44.0,29.61,NNW,340,0.0,0.0,70,0.00,,CLR,0.00,0.00,VWS V14.01,2013-10-21 07:22:00,
2013-10-21 03:23:00,53.5,44.0,29.61,North,11,0.0,0.0,70,0.00,,CLR,0.00,0.00,VWS V14.01,2013-10-21 07:23:00,
2013-10-21 03:24:00,53.5,44.3,29.61,North,11,0.0,0.0,71,0.00,,CLR,0.00,0.00,VWS V14.01,2013-10-21 07:24:00,
2013-10-21 03:25:00,53.5,44.3,29.61,North,11,0.0,0.0,71,0.00,,CLR,0.00,0.00,VWS V14.01,2013-10-21 07:25:00,
2013-10-21 03:26:00,53.5,44.3,29.61,NNE,28,0.0,0.0,71,0.00,,CLR,0.00,0.00,VWS V14.01,2013-10-21 07:26:00,
2013-10-21 03:27:00,53.5,44.3,29.61,NNE,28,0.0,0.0,71,0.00,,CLR,0.00,0.00,VWS V14.01,2013-10-21 07:27:00,
2013-10-21 03:28:00,53.5,44.3,29.61,NNE,28,0.0,0.0,71,0.00,,CLR,0.00,0.00,VWS V14.01,2013-10-21 07:28:00,
2013-10-21 03:29:00,53.5,44.3,29.61,NNE,19,0.0,0.0,71,0.00,,CLR,0.00,0.00,VWS V14.01,2013-10-21 07:29:00,
2013-10-21 03:30:00,53.5,44.3,29.61,NNE,19,0.0,0.0,71,0.00,,CLR,0.00,0.00,VWS V14.01,2013-10-21 07:30:00,
2013-10-21 03:31:00,53.5,44.3,29.61,NNE,19,1.0,0.0,71,0.00,,CLR,0.00,0.00,VWS V14.01,2013-10-21 07:31:00,
2013-10-21 03:32:00,53.5,44.7,29.61,North,11,0.0,0.0,72,0.00,,CLR,0.00,0.00,VWS V14.01,2013-10-21 07:32:00,
2013-10-21 03:33:00,53.5,44.7,29.61,North,11,0.0,0.0,72,0.00,,CLR,0.00,0.00,VWS V14.01,2013-10-21 07:33:00,
2013-10-21 03:34:00,53.5,44.7,29.61,North,11,0.0,0.0,72,0.00,,CLR,0.00,0.00,VWS V14.01,2013-10-21 07:34:00,
2013-10-21 03:35:00,53.5,44.7,29.61,North,11,0.0,0.0,72,0.00,,CLR,0.00,0.00,VWS V14.01,2013-10-21 07:35:00,
2013-10-21 03:36:00,53.3,44.5,29.61,North,355,0.0,0.0,72,0.00,,CLR,0.00,0.00,VWS V14.01,2013-10-21 07:36:00,
2013-10-21 03:37:00,53.3,44.9,29.61,North,355,0.0,0.0,73,0.00,,CLR,0.00,0.00,VWS V14.01,2013-10-21 07:37:00,
2013-10-21 03:38:00,53.3,44.9,29.61,North,355,0.0,0.0,73,0.00,,CLR,0.00,0.00,VWS V14.01,2013-10-21 07:38:00,
2013-10-21 03:39:00,53.3,44.9,29.61,North,355,0.0,0.0,73,0.00,,CLR,0.00,0.00,VWS V14.01,2013-10-21 07:39:00,
2013-10-21 03:40:00,53.3,44.9,29.61,North,355,0.0,0.0,73,0.00,,CLR,0.00,0.00,VWS V14.01,2013-10-21 07:40:00,
2013-10-21 03:41:00,53.3,44.9,29.61,North,10,0.0,0.0,73,0.00,,CLR,0.00,0.00,VWS V14.01,2013-10-21 07:41:00,
2013-10-21 03:42:00,53.3,45.2,29.61,North,10,0.0,0.0,74,0.00,,CLR,0.00,0.00,VWS V14.01,2013-10-21 07:42:00,
2013-10-21 03:43:00,53.3,45.2,29.61,NNW,329,0.0,0.0,74,0.00,,CLR,0.00,0.00,VWS V14.01,2013-10-21 07:43:00,
2013-10-21 03:44:00,53.3,45.2,29.61,NNW,329,0.0,0.0,74,0.00,,CLR,0.00,0.00,VWS V14.01,2013-10-21 07:44:00,
2013-10-21 03:45:00,53.2,45.1,29.61,NNW,329,0.0,0.0,74,0.00,,CLR,0.00,0.00,VWS V14.01,2013-10-21 07:45:00,
2013-10-21 03:46:00,53.2,45.1,29.61,NNW,329,0.0,0.0,74,0.00,,CLR,0.00,0.00,VWS V14.01,2013-10-21 07:46:00,
2013-10-21 03:47:00,53.2,45.1,29.61,NNW,329,0.0,0.0,74,0.00,,CLR,0.00,0.00,VWS V14.01,2013-10-21 07:47:00,
2013-10-21 03:48:00,53.2,45.1,29.61,NNW,329,0.0,0.0,74,0.00,,CLR,0.00,0.00,VWS V14.01,2013-10-21 07:48:00,
2013-10-21 03:49:00,53.2,45.5,29.61,NNW,340,0.0,0.0,75,0.00,,CLR,0.00,0.00,VWS V14.01,2013-10-21 07:49:00,
2013-10-21 03:50:00,53.2,45.5,29.61,NNW,337,0.0,0.0,75,0.00,,CLR,0.00,0.00,VWS V14.01,2013-10-21 07:50:00,
2013-10-21 03:51:00,53.1,45.4,29.61,NNW,337,0.0,0.0,75,0.00,,CLR,0.00,0.00,VWS V14.01,2013-10-21 07:51:00,
2013-10-21 03:52:00,53.1,45.4,29.61,NNW,337,0.0,0.0,75,0.00,,CLR,0.00,0.00,VWS V14.01,2013-10-21 07:52:00,
2013-10-21 03:53:00,53.1,45.8,29.61,NNW,337,0.0,0.0,76,0.00,,CLR,0.00,0.00,VWS V14.01,2013-10-21 07:53:00,
2013-10-21 03:54:00,53.1,45.8,29.61,NNW,337,0.0,0.0,76,0.01,,CLR,0.01,0.00,VWS V14.01,2013-10-21 07:54:00,
2013-10-21 03:55:00,52.9,45.5,29.61,NNW,337,0.0,0.0,76,0.01,,CLR,0.01,0.00,VWS V14.01,2013-10-21 07:55:00,
2013-10-21 03:56:00,52.9,45.5,29.61,NNW,337,0.0,0.0,76,0.01,,CLR,0.01,0.00,VWS V14.01,2013-10-21 07:56:00,
2013-10-21 03:57:00,52.9,45.9,29.61,NNW,337,0.0,0.0,77,0.01,,CLR,0.01,0.00,VWS V14.01,2013-10-21 07:57:00,
2013-10-21 03:58:00,52.9,45.9,29.61,NNW,337,0.0,0.0,77,0.01,,CLR,0.01,0.00,VWS V14.01,2013-10-21 07:58:00,
2013-10-21 03:59:00,52.8,45.8,29.61,NNW,337,0.0,0.0,77,0.01,,CLR,0.01,0.00,VWS V14.01,2013-10-21 07:59:00,
2013-10-21 04:00:00,52.8,45.8,29.60,NNW,337,0.0,0.0,77,0.01,,CLR,0.01,0.00,VWS V14.01,2013-10-21 08:00:00,
2013-10-21 04:01:00,52.8,45.8,29.60,NNW,337,0.0,0.0,77,0.01,,CLR,0.01,0.00,VWS V14.01,2013-10-21 08:01:00,
2013-10-21 04:02:00,52.8,45.8,29.60,NNW,337,0.0,0.0,77,0.01,,CLR,0.01,0.00,VWS V14.01,2013-10-21 08:02:00,
2013-10-21 04:03:00,52.8,45.8,29.60,NNW,337,0.0,0.0,77,0.01,,CLR,0.01,0.00,VWS V14.01,2013-10-21 08:03:00,
2013-10-21 04:04:00,52.6,45.6,29.60,NNW,337,0.0,0.0,77,0.01,,CLR,0.01,0.00,VWS V14.01,2013-10-21 08:04:00,
2013-10-21 04:05:00,52.6,45.6,29.60,NNW,337,0.0,0.0,77,0.01,,CLR,0.01,0.00,VWS V14.01,2013-10-21 08:05:00,
2013-10-21 04:06:00,52.6,45.6,29.60,NNW,337,0.0,0.0,77,0.01,,CLR,0.01,0.00,VWS V14.01,2013-10-21 08:06:00,
2013-10-21 04:07:00,52.5,45.8,29.60,NNW,337,0.0,0.0,78,0.01,,CLR,0.01,0.00,VWS V14.01,2013-10-21 08:07:00,
2013-10-21 04:08:00,52.5,45.8,29.60,NNW,337,0.0,0.0,78,0.01,,CLR,0.01,0.00,VWS V14.01,2013-10-21 08:08:00,
2013-10-21 04:09:00,52.5,45.8,29.60,NNW,337,0.0,0.0,78,0.01,,CLR,0.01,0.00,VWS V14.01,2013-10-21 08:09:00,
2013-10-21 04:10:00,52.5,45.8,29.60,NNW,337,0.0,0.0,78,0.01,,CLR,0.01,0.00,VWS V14.01,2013-10-21 08:10:00,
2013-10-21 04:11:00,52.3,45.7,29.60,NNW,337,0.0,0.0,78,0.01,,CLR,0.01,0.00,VWS V14.01,2013-10-21 08:11:00,
2013-10-21 04:12:00,52.3,45.7,29.60,NNW,337,0.0,0.0,78,0.01,,CLR,0.01,0.00,VWS V14.01,2013-10-21 08:12:00,
2013-10-21 04:13:00,52.3,46.0,29.60,NNW,337,0.0,0.0,79,0.01,,CLR,0.01,0.00,VWS V14.01,2013-10-21 08:13:00,
2013-10-21 04:14:00,52.3,46.0,29.60,NNW,337,0.0,0.0,79,0.01,,CLR,0.01,0.00,VWS V14.01,2013-10-21 08:14:00,
2013-10-21 04:15:00,52.3,46.0,29.60,NNW,337,0.0,0.0,79,0.01,,CLR,0.01,0.00,VWS V14.01,2013-10-21 08:15:00,
2013-10-21 04:16:00,52.2,45.9,29.60,NNW,337,0.0,0.0,79,0.01,,CLR,0.01,0.00,VWS V14.01,2013-10-21 08:16:00,
2013-10-21 04:17:00,52.2,45.9,29.60,NNW,337,0.0,0.0,79,0.01,,CLR,0.01,0.00,VWS V14.01,2013-10-21 08:17:00,
2013-10-21 04:18:00,52.2,45.9,29.60,NNW,337,0.0,0.0,79,0.01,,CLR,0.01,0.00,VWS V14.01,2013-10-21 08:18:00,
2013-10-21 04:19:00,52.2,45.9,29.60,NNW,337,0.0,0.0,79,0.01,,CLR,0.01,0.00,VWS V14.01,2013-10-21 08:19:00,
2013-10-21 04:20:00,52.0,45.7,29.60,NNW,337,0.0,0.0,79,0.01,,CLR,0.01,0.00,VWS V14.01,2013-10-21 08:20:00,
2013-10-21 04:21:00,52.0,45.7,29.60,NNW,337,0.0,0.0,79,0.01,,CLR,0.01,0.00,VWS V14.01,2013-10-21 08:21:00,
2013-10-21 04:22:00,52.0,45.7,29.60,NNW,337,0.0,0.0,79,0.01,,CLR,0.01,0.00,VWS V14.01,2013-10-21 08:22:00,
2013-10-21 04:23:00,52.0,45.7,29.60,NNW,337,0.0,0.0,79,0.01,,CLR,0.01,0.00,VWS V14.01,2013-10-21 08:23:00,
2013-10-21 04:24:00,52.0,45.7,29.60,NNW,337,0.0,0.0,79,0.01,,CLR,0.01,0.00,VWS V14.01,2013-10-21 08:24:00,
2013-10-21 04:25:00,52.0,45.7,29.60,NNW,337,0.0,0.0,79,0.01,,CLR,0.01,0.00,VWS V14.01,2013-10-21 08:25:00,
2013-10-21 04:26:00,51.9,45.6,29.60,West,281,0.0,0.0,79,0.01,,CLR,0.01,0.00,VWS V14.01,2013-10-21 08:26:00,
2013-10-21 04:27:00,51.9,45.6,29.60,West,281,0.0,0.0,79,0.01,,CLR,0.01,0.00,VWS V14.01,2013-10-21 08:27:00,
2013-10-21 04:28:00,51.9,45.6,29.60,West,281,0.0,0.0,79,0.01,,CLR,0.01,0.00,VWS V14.01,2013-10-21 08:28:00,
2013-10-21 04:29:00,51.7,45.7,29.60,WNW,288,0.0,0.0,80,0.01,,CLR,0.01,0.00,VWS V14.01,2013-10-21 08:29:00,
2013-10-21 04:30:00,51.7,45.7,29.61,WNW,288,0.0,0.0,80,0.01,,CLR,0.01,0.00,VWS V14.01,2013-10-21 08:30:00,
2013-10-21 04:31:00,51.7,45.7,29.61,WNW,288,0.0,0.0,80,0.01,,CLR,0.01,0.00,VWS V14.01,2013-10-21 08:31:00,
2013-10-21 04:32:00,51.7,45.7,29.61,WNW,288,0.0,0.0,80,0.01,,CLR,0.01,0.00,VWS V14.01,2013-10-21 08:32:00,
2013-10-21 04:33:00,51.6,46.0,29.61,NE,36,0.0,0.0,81,0.01,,CLR,0.01,0.00,VWS V14.01,2013-10-21 08:33:00,
2013-10-21 04:34:00,51.6,46.0,29.61,NE,36,0.0,0.0,81,0.01,,CLR,0.01,0.00,VWS V14.01,2013-10-21 08:34:00,
2013-10-21 04:35:00,51.6,46.0,29.61,NE,36,0.0,0.0,81,0.01,,CLR,0.01,0.00,VWS V14.01,2013-10-21 08:35:00,
2013-10-21 04:36:00,51.6,46.0,29.61,NNE,22,0.0,0.0,81,0.01,,CLR,0.01,0.00,VWS V14.01,2013-10-21 08:36:00,
2013-10-21 04:37:00,51.4,45.8,29.61,NNE,22,0.0,0.0,81,0.01,,CLR,0.01,0.00,VWS V14.01,2013-10-21 08:37:00,
2013-10-21 04:38:00,51.4,45.8,29.61,NNE,22,0.0,0.0,81,0.01,,CLR,0.01,0.00,VWS V14.01,2013-10-21 08:38:00,
2013-10-21 04:39:00,51.4,45.8,29.61,NNE,22,0.0,0.0,81,0.01,,CLR,0.01,0.00,VWS V14.01,2013-10-21 08:39:00,
2013-10-21 04:40:00,51.4,46.1,29.61,North,360,1.0,0.0,82,0.01,,CLR,0.01,0.00,VWS V14.01,2013-10-21 08:40:00,
2013-10-21 04:41:00,51.4,46.1,29.61,NNE,25,0.0,0.0,82,0.01,,CLR,0.01,0.00,VWS V14.01,2013-10-21 08:41:00,
2013-10-21 04:42:00,51.3,46.0,29.61,NNE,25,0.0,0.0,82,0.01,,CLR,0.01,0.00,VWS V14.01,2013-10-21 08:42:00,
2013-10-21 04:43:00,51.3,46.0,29.61,NNE,25,0.0,0.0,82,0.01,,CLR,0.01,0.00,VWS V14.01,2013-10-21 08:43:00,
2013-10-21 04:44:00,51.3,46.0,29.61,NNE,25,0.0,0.0,82,0.01,,CLR,0.01,0.00,VWS V14.01,2013-10-21 08:44:00,
2013-10-21 04:45:00,51.3,46.0,29.61,NNE,25,0.0,0.0,82,0.01,,CLR,0.01,0.00,VWS V14.01,2013-10-21 08:45:00,
2013-10-21 04:46:00,51.1,45.8,29.61,NNE,25,0.0,0.0,82,0.01,,CLR,0.01,0.00,VWS V14.01,2013-10-21 08:46:00,
2013-10-21 04:47:00,51.1,45.8,29.61,NNE,25,0.0,0.0,82,0.01,,CLR,0.01,0.00,VWS V14.01,2013-10-21 08:47:00,
2013-10-21 04:48:00,51.1,45.8,29.61,NNE,25,0.0,0.0,82,0.01,,CLR,0.01,0.00,VWS V14.01,2013-10-21 08:48:00,
2013-10-21 04:49:00,51.1,45.8,29.61,NNE,25,0.0,0.0,82,0.01,,CLR,0.01,0.00,VWS V14.01,2013-10-21 08:49:00,
2013-10-21 04:50:00,51.1,45.8,29.61,NNE,25,0.0,0.0,82,0.01,,CLR,0.01,0.00,VWS V14.01,2013-10-21 08:50:00,
2013-10-21 04:51:00,51.1,45.8,29.61,NW,315,0.0,0.0,82,0.01,,CLR,0.01,0.00,VWS V14.01,2013-10-21 08:51:00,
2013-10-21 04:52:00,51.0,45.7,29.61,NW,315,0.0,0.0,82,0.01,,CLR,0.01,0.00,VWS V14.01,2013-10-21 08:52:00,
2013-10-21 04:53:00,51.0,45.7,29.61,NW,315,0.0,0.0,82,0.01,,CLR,0.01,0.00,VWS V14.01,2013-10-21 08:53:00,
2013-10-21 04:54:00,51.0,45.7,29.61,NW,315,0.0,0.0,82,0.01,,CLR,0.01,0.00,VWS V14.01,2013-10-21 08:54:00,
2013-10-21 04:55:00,51.0,45.7,29.61,NW,315,0.0,0.0,82,0.01,,CLR,0.01,0.00,VWS V14.01,2013-10-21 08:55:00,
2013-10-21 04:56:00,51.0,45.7,29.61,NW,321,0.0,0.0,82,0.01,,CLR,0.01,0.00,VWS V14.01,2013-10-21 08:56:00,
2013-10-21 04:57:00,51.0,46.0,29.61,NW,326,0.0,0.0,83,0.01,,CLR,0.01,0.00,VWS V14.01,2013-10-21 08:57:00,
2013-10-21 04:58:00,51.0,46.0,29.61,NW,326,0.0,0.0,83,0.01,,CLR,0.01,0.00,VWS V14.01,2013-10-21 08:58:00,
2013-10-21 04:59:00,51.0,46.0,29.61,NW,326,0.0,0.0,83,0.01,,CLR,0.01,0.00,VWS V14.01,2013-10-21 08:59:00,
2013-10-21 05:00:00,51.0,46.0,29.60,NW,326,0.0,0.0,83,0.01,,CLR,0.01,0.00,VWS V14.01,2013-10-21 09:00:00,
2013-10-21 05:01:00,51.0,46.0,29.60,North,360,0.0,0.0,83,0.00,,CLR,0.01,0.00,VWS V14.01,2013-10-21 09:01:00,
2013-10-21 05:02:00,50.8,45.8,29.60,North,360,0.0,0.0,83,0.00,,CLR,0.01,0.00,VWS V14.01,2013-10-21 09:02:00,
2013-10-21 05:03:00,50.8,45.8,29.60,North,360,0.0,0.0,83,0.00,,CLR,0.01,0.00,VWS V14.01,2013-10-21 09:03:00,
2013-10-21 05:04:00,50.8,45.8,29.60,North,360,0.0,0.0,83,0.00,,CLR,0.01,0.00,VWS V14.01,2013-10-21 09:04:00,
2013-10-21 05:05:00,50.8,45.8,29.60,North,360,0.0,0.0,83,0.00,,CLR,0.01,0.00,VWS V14.01,2013-10-21 09:05:00,
2013-10-21 05:06:00,50.8,45.8,29.60,North,360,0.0,0.0,83,0.00,,CLR,0.01,0.00,VWS V14.01,2013-10-21 09:06:00,
2013-10-21 05:07:00,50.8,45.8,29.60,North,360,0.0,0.0,83,0.00,,CLR,0.01,0.00,VWS V14.01,2013-10-21 09:07:00,
2013-10-21 05:08:00,50.8,45.8,29.60,North,360,0.0,0.0,83,0.00,,CLR,0.01,0.00,VWS V14.01,2013-10-21 09:08:00,
2013-10-21 05:09:00,50.8,46.2,29.60,North,360,0.0,0.0,84,0.00,,CLR,0.01,0.00,VWS V14.01,2013-10-21 09:09:00,
2013-10-21 05:10:00,50.8,46.2,29.60,North,360,0.0,0.0,84,0.00,,CLR,0.01,0.00,VWS V14.01,2013-10-21 09:10:00,
2013-10-21 05:11:00,50.8,46.2,29.60,North,360,0.0,0.0,84,0.00,,CLR,0.01,0.00,VWS V14.01,2013-10-21 09:11:00,
2013-10-21 05:12:00,50.8,46.2,29.60,North,360,0.0,0.0,84,0.00,,CLR,0.01,0.00,VWS V14.01,2013-10-21 09:12:00,
2013-10-21 05:13:00,50.8,46.2,29.60,North,360,0.0,0.0,84,0.00,,CLR,0.01,0.00,VWS V14.01,2013-10-21 09:13:00,
2013-10-21 05:14:00,50.7,46.0,29.60,North,360,0.0,0.0,84,0.00,,CLR,0.01,0.00,VWS V14.01,2013-10-21 09:14:00,
2013-10-21 05:15:00,50.7,46.0,29.60,North,360,0.0,0.0,84,0.00,,CLR,0.01,0.00,VWS V14.01,2013-10-21 09:15:00,
2013-10-21 05:16:00,50.7,46.0,29.60,North,360,0.0,0.0,84,0.00,,CLR,0.01,0.00,VWS V14.01,2013-10-21 09:16:00,
2013-10-21 05:17:00,50.7,46.0,29.60,North,360,0.0,0.0,84,0.00,,CLR,0.01,0.00,VWS V14.01,2013-10-21 09:17:00,
2013-10-21 05:18:00,50.7,46.0,29.60,North,360,0.0,0.0,84,0.00,,CLR,0.01,0.00,VWS V14.01,2013-10-21 09:18:00,
2013-10-21 05:19:00,50.7,46.0,29.60,North,360,0.0,0.0,84,0.00,,CLR,0.01,0.00,VWS V14.01,2013-10-21 09:19:00,
2013-10-21 05:20:00,50.7,46.0,29.60,North,360,0.0,0.0,84,0.00,,CLR,0.01,0.00,VWS V14.01,2013-10-21 09:20:00,
2013-10-21 05:21:00,50.7,46.0,29.60,North,360,0.0,0.0,84,0.00,,CLR,0.01,0.00,VWS V14.01,2013-10-21 09:21:00,
2013-10-21 05:22:00,50.7,46.0,29.60,North,360,0.0,0.0,84,0.00,,CLR,0.01,0.00,VWS V14.01,2013-10-21 09:22:00,
2013-10-21 05:23:00,50.7,46.0,29.60,North,360,0.0,0.0,84,0.00,,CLR,0.01,0.00,VWS V14.01,2013-10-21 09:23:00,
2013-10-21 05:24:00,50.7,46.0,29.60,North,360,0.0,0.0,84,0.00,,CLR,0.01,0.00,VWS V14.01,2013-10-21 09:24:00,
2013-10-21 05:25:00,50.7,46.0,29.60,North,360,0.0,0.0,84,0.00,,CLR,0.01,0.00,VWS V14.01,2013-10-21 09:25:00,
2013-10-21 05:26:00,50.7,46.0,29.60,North,360,0.0,0.0,84,0.00,,CLR,0.01,0.00,VWS V14.01,2013-10-21 09:26:00,
2013-10-21 05:27:00,50.7,46.0,29.60,North,360,0.0,0.0,84,0.00,,CLR,0.01,0.00,VWS V14.01,2013-10-21 09:27:00,
2013-10-21 05:28:00,50.7,46.4,29.60,North,360,0.0,0.0,85,0.00,,CLR,0.01,0.00,VWS V14.01,2013-10-21 09:28:00,
2013-10-21 05:29:00,50.7,46.4,29.60,North,360,0.0,0.0,85,0.00,,CLR,0.01,0.00,VWS V14.01,2013-10-21 09:29:00,
2013-10-21 05:30:00,50.5,46.2,29.61,North,360,0.0,0.0,85,0.00,,CLR,0.01,0.00,VWS V14.01,2013-10-21 09:30:00,
2013-10-21 05:31:00,50.5,46.2,29.61,North,360,0.0,0.0,85,0.00,,CLR,0.01,0.00,VWS V14.01,2013-10-21 09:31:00,
2013-10-21 05:32:00,50.5,46.2,29.61,North,360,0.0,0.0,85,0.00,,CLR,0.01,0.00,VWS V14.01,2013-10-21 09:32:00,
2013-10-21 05:33:00,50.5,46.2,29.61,NNE,17,0.0,0.0,85,0.00,,CLR,0.01,0.00,VWS V14.01,2013-10-21 09:33:00,
2013-10-21 05:34:00,50.5,46.2,29.61,NNE,17,0.0,0.0,85,0.00,,CLR,0.01,0.00,VWS V14.01,2013-10-21 09:34:00,
2013-10-21 05:35:00,50.5,46.2,29.61,NNE,17,0.0,0.0,85,0.00,,CLR,0.01,0.00,VWS V14.01,2013-10-21 09:35:00,
2013-10-21 05:36:00,50.5,46.2,29.61,NNE,17,0.0,0.0,85,0.00,,CLR,0.01,0.00,VWS V14.01,2013-10-21 09:36:00,
2013-10-21 05:37:00,50.5,46.2,29.61,NNE,17,0.0,0.0,85,0.00,,CLR,0.01,0.00,VWS V14.01,2013-10-21 09:37:00,
2013-10-21 05:38:00,50.5,46.2,29.61,NNE,17,0.0,0.0,85,0.00,,CLR,0.01,0.00,VWS V14.01,2013-10-21 09:38:00,
2013-10-21 05:39:00,50.5,46.2,29.61,NNE,17,0.0,0.0,85,0.00,,CLR,0.01,0.00,VWS V14.01,2013-10-21 09:39:00,
2013-10-21 05:40:00,50.5,46.2,29.61,NNE,17,0.0,0.0,85,0.00,,CLR,0.01,0.00,VWS V14.01,2013-10-21 09:40:00,
2013-10-21 05:41:00,50.5,46.2,29.61,NNE,17,0.0,0.0,85,0.00,,CLR,0.01,0.00,VWS V14.01,2013-10-21 09:41:00,
2013-10-21 05:42:00,50.5,46.2,29.61,NNE,17,0.0,0.0,85,0.00,,CLR,0.01,0.00,VWS V14.01,2013-10-21 09:42:00,
2013-10-21 05:43:00,50.5,46.2,29.61,NNE,17,0.0,0.0,85,0.00,,CLR,0.01,0.00,VWS V14.01,2013-10-21 09:43:00,
2013-10-21 05:44:00,50.5,46.2,29.61,NNE,17,0.0,0.0,85,0.00,,CLR,0.01,0.00,VWS V14.01,2013-10-21 09:44:00,
2013-10-21 05:45:00,50.5,46.2,29.62,NNE,17,0.0,0.0,85,0.00,,CLR,0.01,0.00,VWS V14.01,2013-10-21 09:45:00,
2013-10-21 05:46:00,50.4,46.1,29.62,NNE,17,0.0,0.0,85,0.00,,CLR,0.01,0.00,VWS V14.01,2013-10-21 09:46:00,
2013-10-21 05:47:00,50.4,46.1,29.62,North,360,1.0,0.0,85,0.00,,CLR,0.01,0.00,VWS V14.01,2013-10-21 09:47:00,
2013-10-21 05:48:00,50.4,46.1,29.62,North,360,0.0,0.0,85,0.00,,CLR,0.01,0.00,VWS V14.01,2013-10-21 09:48:00,
2013-10-21 05:49:00,50.4,46.1,29.62,North,360,0.0,0.0,85,0.00,,CLR,0.01,0.00,VWS V14.01,2013-10-21 09:49:00,
2013-10-21 05:50:00,50.4,46.1,29.62,North,360,0.0,0.0,85,0.00,,CLR,0.01,0.00,VWS V14.01,2013-10-21 09:50:00,
2013-10-21 05:51:00,50.4,46.1,29.62,North,355,0.0,0.0,85,0.00,,CLR,0.01,0.00,VWS V14.01,2013-10-21 09:51:00,
2013-10-21 05:52:00,50.4,46.1,29.62,North,355,0.0,0.0,85,0.00,,CLR,0.01,0.00,VWS V14.01,2013-10-21 09:52:00,
2013-10-21 05:53:00,50.4,46.1,29.62,North,355,0.0,0.0,85,0.00,,CLR,0.01,0.00,VWS V14.01,2013-10-21 09:53:00,
2013-10-21 05:54:00,50.4,46.1,29.62,North,355,0.0,0.0,85,0.00,,CLR,0.01,0.00,VWS V14.01,2013-10-21 09:54:00,
2013-10-21 05:55:00,50.4,46.1,29.62,North,355,0.0,0.0,85,0.00,,CLR,0.01,0.00,VWS V14.01,2013-10-21 09:55:00,
2013-10-21 05:56:00,50.4,46.1,29.62,North,355,0.0,0.0,85,0.00,,CLR,0.01,0.00,VWS V14.01,2013-10-21 09:56:00,
2013-10-21 05:57:00,50.4,46.1,29.62,North,355,0.0,0.0,85,0.00,,CLR,0.01,0.00,VWS V14.01,2013-10-21 09:57:00,
2013-10-21 05:58:00,50.4,46.1,29.62,North,355,0.0,0.0,85,0.00,,CLR,0.01,0.00,VWS V14.01,2013-10-21 09:58:00,
2013-10-21 05:59:00,50.4,46.1,29.62,North,355,0.0,0.0,85,0.00,,CLR,0.01,0.00,VWS V14.01,2013-10-21 09:59:00,
2013-10-21 06:00:00,50.4,46.1,29.61,North,355,0.0,0.0,85,0.00,,CLR,0.01,0.00,VWS V14.01,2013-10-21 10:00:00,
2013-10-21 06:01:00,50.4,46.1,29.61,North,355,0.0,0.0,85,0.00,,CLR,0.01,0.00,VWS V14.01,2013-10-21 10:01:00,
2013-10-21 06:02:00,50.4,46.1,29.61,North,355,0.0,0.0,85,0.00,,CLR,0.01,0.00,VWS V14.01,2013-10-21 10:02:00,
2013-10-21 06:03:00,50.4,46.1,29.61,North,355,0.0,0.0,85,0.00,,CLR,0.01,0.00,VWS V14.01,2013-10-21 10:03:00,
2013-10-21 06:04:00,50.4,46.1,29.61,North,355,0.0,0.0,85,0.00,,CLR,0.01,0.00,VWS V14.01,2013-10-21 10:04:00,
2013-10-21 06:05:00,50.4,46.1,29.61,NNE,15,0.0,0.0,85,0.00,,CLR,0.01,0.00,VWS V14.01,2013-10-21 10:05:00,
2013-10-21 06:06:00,50.4,46.1,29.61,NNE,15,0.0,0.0,85,0.00,,CLR,0.01,0.00,VWS V14.01,2013-10-21 10:06:00,
2013-10-21 06:07:00,50.4,46.1,29.61,NNE,15,0.0,0.0,85,0.00,,CLR,0.01,0.00,VWS V14.01,2013-10-21 10:07:00,
2013-10-21 06:08:00,50.4,46.1,29.61,NNE,15,0.0,0.0,85,0.00,,CLR,0.01,0.00,VWS V14.01,2013-10-21 10:08:00,
2013-10-21 06:09:00,50.4,46.1,29.61,NNE,15,0.0,0.0,85,0.00,,CLR,0.01,0.00,VWS V14.01,2013-10-21 10:09:00,
2013-10-21 06:10:00,50.4,46.1,29.61,NNE,15,0.0,0.0,85,0.00,,CLR,0.01,0.00,VWS V14.01,2013-10-21 10:10:00,
2013-10-21 06:11:00,50.4,46.1,29.61,NNE,15,0.0,0.0,85,0.00,,CLR,0.01,0.00,VWS V14.01,2013-10-21 10:11:00,
2013-10-21 06:12:00,50.4,46.1,29.61,NNE,15,0.0,0.0,85,0.00,,CLR,0.01,0.00,VWS V14.01,2013-10-21 10:12:00,
2013-10-21 06:13:00,50.2,45.9,29.61,NNE,15,0.0,0.0,85,0.00,,CLR,0.01,0.00,VWS V14.01,2013-10-21 10:13:00,
2013-10-21 06:14:00,50.2,45.9,29.61,NNE,15,0.0,0.0,85,0.00,,CLR,0.01,0.00,VWS V14.01,2013-10-21 10:14:00,
2013-10-21 06:15:00,50.2,45.9,29.62,NNE,15,0.0,0.0,85,0.00,,CLR,0.01,0.00,VWS V14.01,2013-10-21 10:15:00,
2013-10-21 06:16:00,50.2,45.9,29.62,NNE,15,0.0,0.0,85,0.00,,CLR,0.01,0.00,VWS V14.01,2013-10-21 10:16:00,
2013-10-21 06:17:00,50.2,45.9,29.62,NNE,15,0.0,0.0,85,0.00,,CLR,0.01,0.00,VWS V14.01,2013-10-21 10:17:00,
2013-10-21 06:18:00,50.2,45.9,29.62,NNE,15,0.0,0.0,85,0.00,,CLR,0.01,0.00,VWS V14.01,2013-10-21 10:18:00,
2013-10-21 06:19:00,50.2,45.9,29.62,NNE,15,0.0,0.0,85,0.00,,CLR,0.01,0.00,VWS V14.01,2013-10-21 10:19:00,
2013-10-21 06:20:00,50.2,45.9,29.62,NNE,15,0.0,0.0,85,0.00,,CLR,0.01,0.00,VWS V14.01,2013-10-21 10:20:00,
2013-10-21 06:21:00,50.2,45.9,29.62,NNE,15,0.0,0.0,85,0.00,,CLR,0.01,0.00,VWS V14.01,2013-10-21 10:21:00,
2013-10-21 06:22:00,50.2,45.9,29.62,NNE,15,0.0,0.0,85,0.00,,CLR,0.01,0.00,VWS V14.01,2013-10-21 10:22:00,
2013-10-21 06:23:00,50.2,45.9,29.62,NNE,15,0.0,0.0,85,0.00,,CLR,0.01,0.00,VWS V14.01,2013-10-21 10:23:00,
2013-10-21 06:24:00,50.2,45.9,29.62,NNE,15,0.0,0.0,85,0.00,,CLR,0.01,0.00,VWS V14.01,2013-10-21 10:24:00,
2013-10-21 06:25:00,50.2,45.9,29.62,NNE,15,0.0,0.0,85,0.00,,CLR,0.01,0.00,VWS V14.01,2013-10-21 10:25:00,
2013-10-21 06:26:00,50.2,45.9,29.62,NNE,15,0.0,0.0,85,0.00,,CLR,0.01,0.00,VWS V14.01,2013-10-21 10:26:00,
2013-10-21 06:27:00,50.2,45.9,29.62,NNE,15,0.0,0.0,85,0.00,,CLR,0.01,0.00,VWS V14.01,2013-10-21 10:27:00,
2013-10-21 06:28:00,50.2,45.9,29.62,NNE,15,0.0,0.0,85,0.00,,CLR,0.01,0.00,VWS V14.01,2013-10-21 10:28:00,
2013-10-21 06:29:00,50.2,45.9,29.62,NNE,15,0.0,0.0,85,0.00,,CLR,0.01,0.00,VWS V14.01,2013-10-21 10:29:00,
2013-10-21 06:30:00,50.2,45.9,29.62,NNE,15,0.0,0.0,85,0.00,,CLR,0.01,0.00,VWS V14.01,2013-10-21 10:30:00,
2013-10-21 06:31:00,50.2,45.9,29.62,NNE,15,0.0,0.0,85,0.00,,CLR,0.01,0.00,VWS V14.01,2013-10-21 10:31:00,
2013-10-21 06:32:00,50.2,45.9,29.62,NNE,15,0.0,0.0,85,0.00,,CLR,0.01,0.00,VWS V14.01,2013-10-21 10:32:00,
2013-10-21 06:33:00,50.2,45.9,29.62,NNE,15,0.0,0.0,85,0.00,,CLR,0.01,0.00,VWS V14.01,2013-10-21 10:33:00,
2013-10-21 06:34:00,50.2,45.9,29.62,NNE,15,0.0,0.0,85,0.00,,CLR,0.01,0.00,VWS V14.01,2013-10-21 10:34:00,
2013-10-21 06:35:00,50.2,45.9,29.62,NNE,15,0.0,0.0,85,0.00,,CLR,0.01,0.00,VWS V14.01,2013-10-21 10:35:00,
2013-10-21 06:36:00,50.2,45.9,29.62,NNE,15,0.0,0.0,85,0.00,,CLR,0.01,0.00,VWS V14.01,2013-10-21 10:36:00,
2013-10-21 06:37:00,50.2,45.9,29.62,NNE,15,0.0,0.0,85,0.00,,CLR,0.01,0.00,VWS V14.01,2013-10-21 10:37:00,
2013-10-21 06:38:00,50.2,45.9,29.62,NNE,15,0.0,0.0,85,0.00,,CLR,0.01,0.00,VWS V14.01,2013-10-21 10:38:00,
2013-10-21 06:39:00,50.2,45.9,29.62,NNE,15,0.0,0.0,85,0.00,,CLR,0.01,0.00,VWS V14.01,2013-10-21 10:39:00,
2013-10-21 06:40:00,50.2,45.9,29.62,NNE,15,0.0,0.0,85,0.00,,CLR,0.01,0.00,VWS V14.01,2013-10-21 10:40:00,
2013-10-21 06:41:00,50.2,45.9,29.62,NNE,15,0.0,0.0,85,0.00,,CLR,0.01,0.00,VWS V14.01,2013-10-21 10:41:00,
2013-10-21 06:42:00,50.2,45.9,29.62,NNE,15,0.0,0.0,85,0.00,,CLR,0.01,0.00,VWS V14.01,2013-10-21 10:42:00,
2013-10-21 06:43:00,50.2,45.9,29.62,NNE,15,0.0,0.0,85,0.00,,CLR,0.01,0.00,VWS V14.01,2013-10-21 10:43:00,
2013-10-21 06:44:00,50.2,45.9,29.62,NNE,15,0.0,0.0,85,0.00,,CLR,0.01,0.00,VWS V14.01,2013-10-21 10:44:00,
2013-10-21 06:45:00,50.2,45.9,29.62,NNE,15,0.0,0.0,85,0.00,,CLR,0.01,0.00,VWS V14.01,2013-10-21 10:45:00,
2013-10-21 06:46:00,50.1,45.8,29.62,NNE,15,0.0,0.0,85,0.00,,CLR,0.01,0.00,VWS V14.01,2013-10-21 10:46:00,
2013-10-21 06:47:00,50.1,45.8,29.62,NNE,15,0.0,0.0,85,0.00,,CLR,0.01,0.00,VWS V14.01,2013-10-21 10:47:00,
2013-10-21 06:48:00,50.1,45.8,29.62,NNE,15,0.0,0.0,85,0.00,,CLR,0.01,0.00,VWS V14.01,2013-10-21 10:48:00,
2013-10-21 06:49:00,50.1,45.8,29.62,NNE,15,0.0,0.0,85,0.00,,CLR,0.01,0.00,VWS V14.01,2013-10-21 10:49:00,
2013-10-21 06:50:00,50.1,45.8,29.62,NNE,15,0.0,0.0,85,0.00,,CLR,0.01,0.00,VWS V14.01,2013-10-21 10:50:00,
2013-10-21 06:51:00,50.1,45.8,29.62,NNE,15,0.0,0.0,85,0.00,,CLR,0.01,0.00,VWS V14.01,2013-10-21 10:51:00,
2013-10-21 06:52:00,50.1,45.8,29.62,NNE,15,0.0,0.0,85,0.00,,CLR,0.01,0.00,VWS V14.01,2013-10-21 10:52:00,
2013-10-21 06:53:00,50.1,45.8,29.62,NNE,15,0.0,0.0,85,0.00,,CLR,0.01,0.00,VWS V14.01,2013-10-21 10:53:00,
2013-10-21 06:54:00,50.1,45.8,29.62,NNE,15,0.0,0.0,85,0.00,,CLR,0.01,0.00,VWS V14.01,2013-10-21 10:54:00,
2013-10-21 06:55:00,50.1,45.8,29.62,NNE,15,0.0,0.0,85,0.00,,CLR,0.01,0.00,VWS V14.01,2013-10-21 10:55:00,
2013-10-21 06:56:00,50.1,45.8,29.62,NNE,15,0.0,0.0,85,0.00,,CLR,0.01,0.00,VWS V14.01,2013-10-21 10:56:00,
2013-10-21 06:57:00,50.1,45.8,29.62,NNE,15,0.0,0.0,85,0.00,,CLR,0.01,0.00,VWS V14.01,2013-10-21 10:57:00,
2013-10-21 06:58:00,50.1,45.8,29.62,NNE,15,0.0,0.0,85,0.00,,CLR,0.01,0.00,VWS V14.01,2013-10-21 10:58:00,
2013-10-21 06:59:00,50.1,45.8,29.62,NNE,15,0.0,0.0,85,0.00,,CLR,0.01,0.00,VWS V14.01,2013-10-21 10:59:00,
2013-10-21 07:00:00,50.1,45.8,29.62,NNE,15,0.0,0.0,85,0.00,,CLR,0.01,0.00,VWS V14.01,2013-10-21 11:00:00,
2013-10-21 07:01:00,50.1,45.8,29.62,NNE,15,0.0,0.0,85,0.00,,CLR,0.01,0.00,VWS V14.01,2013-10-21 11:01:00,
2013-10-21 07:02:00,50.1,45.8,29.62,NNE,15,0.0,0.0,85,0.00,,CLR,0.01,0.00,VWS V14.01,2013-10-21 11:02:00,
2013-10-21 07:03:00,50.1,45.8,29.62,NNE,15,0.0,0.0,85,0.00,,CLR,0.01,0.00,VWS V14.01,2013-10-21 11:03:00,
2013-10-21 07:04:00,50.1,45.8,29.62,NNE,15,0.0,0.0,85,0.00,,CLR,0.01,0.00,VWS V14.01,2013-10-21 11:04:00,
2013-10-21 07:05:00,50.1,45.8,29.62,NNE,15,0.0,0.0,85,0.00,,CLR,0.01,0.00,VWS V14.01,2013-10-21 11:05:00,
2013-10-21 07:06:00,50.1,45.8,29.62,NNE,15,0.0,0.0,85,0.00,,CLR,0.01,0.00,VWS V14.01,2013-10-21 11:06:00,
2013-10-21 07:07:00,50.1,45.8,29.62,NNE,15,0.0,0.0,85,0.00,,CLR,0.01,0.00,VWS V14.01,2013-10-21 11:07:00,
2013-10-21 07:08:00,50.1,45.8,29.62,NNE,15,0.0,0.0,85,0.00,,CLR,0.01,0.00,VWS V14.01,2013-10-21 11:08:00,
2013-10-21 07:09:00,50.1,45.8,29.62,NNE,15,0.0,0.0,85,0.00,,CLR,0.01,0.00,VWS V14.01,2013-10-21 11:09:00,
2013-10-21 07:10:00,50.1,45.8,29.62,NNE,15,0.0,0.0,85,0.00,,CLR,0.01,0.00,VWS V14.01,2013-10-21 11:10:00,
2013-10-21 07:11:00,50.1,45.8,29.62,NNE,15,0.0,0.0,85,0.00,,CLR,0.01,0.00,VWS V14.01,2013-10-21 11:11:00,
2013-10-21 07:12:00,50.1,45.8,29.62,NNE,15,0.0,0.0,85,0.00,,CLR,0.01,0.00,VWS V14.01,2013-10-21 11:12:00,
2013-10-21 07:13:00,50.1,45.8,29.62,NNE,15,0.0,0.0,85,0.00,,CLR,0.01,0.00,VWS V14.01,2013-10-21 11:13:00,
2013-10-21 07:14:00,50.1,45.8,29.62,NNE,15,0.0,0.0,85,0.00,,CLR,0.01,0.00,VWS V14.01,2013-10-21 11:14:00,
2013-10-21 07:15:00,49.9,45.6,29.62,NNE,15,0.0,0.0,85,0.00,,CLR,0.01,0.00,VWS V14.01,2013-10-21 11:15:00,
2013-10-21 07:16:00,49.9,45.6,29.62,NNE,15,0.0,0.0,85,0.00,,CLR,0.01,0.00,VWS V14.01,2013-10-21 11:16:00,
2013-10-21 07:17:00,49.9,45.6,29.62,NNE,15,0.0,0.0,85,0.00,,CLR,0.01,0.00,VWS V14.01,2013-10-21 11:17:00,
2013-10-21 07:18:00,49.9,45.6,29.62,NNE,15,0.0,0.0,85,0.00,,CLR,0.01,0.00,VWS V14.01,2013-10-21 11:18:00,
2013-10-21 07:19:00,49.9,45.6,29.62,NNE,15,0.0,0.0,85,0.00,,CLR,0.01,0.00,VWS V14.01,2013-10-21 11:19:00,
2013-10-21 07:20:00,49.9,45.6,29.62,NNE,15,0.0,0.0,85,0.00,,CLR,0.01,0.00,VWS V14.01,2013-10-21 11:20:00,
2013-10-21 07:21:00,49.9,45.6,29.62,NNE,15,0.0,0.0,85,0.00,,CLR,0.01,0.00,VWS V14.01,2013-10-21 11:21:00,
2013-10-21 07:22:00,49.9,45.6,29.62,NNE,15,0.0,0.0,85,0.00,,CLR,0.01,0.00,VWS V14.01,2013-10-21 11:22:00,
2013-10-21 07:23:00,49.9,45.6,29.62,NNE,15,0.0,0.0,85,0.00,,CLR,0.01,0.00,VWS V14.01,2013-10-21 11:23:00,
2013-10-21 07:24:00,49.9,45.6,29.62,NNE,15,0.0,0.0,85,0.00,,CLR,0.01,0.00,VWS V14.01,2013-10-21 11:24:00,
2013-10-21 07:25:00,49.9,45.6,29.62,NNE,15,0.0,0.0,85,0.00,,CLR,0.01,0.00,VWS V14.01,2013-10-21 11:25:00,
2013-10-21 07:26:00,49.9,45.6,29.62,NNE,15,0.0,0.0,85,0.00,,CLR,0.01,0.00,VWS V14.01,2013-10-21 11:26:00,
2013-10-21 07:27:00,49.9,45.9,29.62,North,360,0.0,0.0,86,0.00,,CLR,0.01,0.00,VWS V14.01,2013-10-21 11:27:00,
2013-10-21 07:28:00,49.9,45.9,29.62,North,360,0.0,0.0,86,0.00,,CLR,0.01,0.00,VWS V14.01,2013-10-21 11:28:00,
2013-10-21 07:29:00,49.9,45.9,29.62,North,355,0.0,0.0,86,0.00,,CLR,0.01,0.00,VWS V14.01,2013-10-21 11:29:00,
2013-10-21 07:30:00,49.9,45.9,29.63,North,355,0.0,0.0,86,0.00,,CLR,0.01,0.00,VWS V14.01,2013-10-21 11:30:00,
2013-10-21 07:31:00,49.9,45.9,29.63,North,355,0.0,0.0,86,0.00,,CLR,0.01,0.00,VWS V14.01,2013-10-21 11:31:00,
2013-10-21 07:32:00,49.9,45.9,29.63,North,355,0.0,0.0,86,0.00,,CLR,0.01,0.00,VWS V14.01,2013-10-21 11:32:00,
2013-10-21 07:33:00,49.9,45.9,29.63,NNE,24,0.0,0.0,86,0.00,,CLR,0.01,0.00,VWS V14.01,2013-10-21 11:33:00,
2013-10-21 07:34:00,49.9,45.9,29.63,NNE,24,0.0,0.0,86,0.00,,CLR,0.01,0.00,VWS V14.01,2013-10-21 11:34:00,
2013-10-21 07:35:00,49.9,45.9,29.63,NNE,24,0.0,0.0,86,0.00,,CLR,0.01,0.00,VWS V14.01,2013-10-21 11:35:00,
2013-10-21 07:36:00,49.9,45.9,29.63,NNE,24,0.0,0.0,86,0.00,,CLR,0.01,0.00,VWS V14.01,2013-10-21 11:36:00,
2013-10-21 07:37:00,49.9,45.9,29.63,NNE,24,0.0,0.0,86,0.00,,CLR,0.01,0.00,VWS V14.01,2013-10-21 11:37:00,
2013-10-21 07:38:00,49.9,45.9,29.63,NNE,24,0.0,0.0,86,0.00,,CLR,0.01,0.00,VWS V14.01,2013-10-21 11:38:00,
2013-10-21 07:39:00,49.9,45.9,29.63,ENE,73,1.0,0.0,86,0.00,,CLR,0.01,0.00,VWS V14.01,2013-10-21 11:39:00,
2013-10-21 07:40:00,49.9,45.9,29.63,East,80,0.0,0.0,86,0.00,,CLR,0.01,0.00,VWS V14.01,2013-10-21 11:40:00,
2013-10-21 07:41:00,49.9,45.9,29.63,East,80,0.0,0.0,86,0.00,,CLR,0.01,0.00,VWS V14.01,2013-10-21 11:41:00,
2013-10-21 07:42:00,49.9,45.9,29.63,East,80,0.0,0.0,86,0.00,,CLR,0.01,0.00,VWS V14.01,2013-10-21 11:42:00,
2013-10-21 07:43:00,49.9,45.9,29.63,East,80,0.0,0.0,86,0.00,,CLR,0.01,0.00,VWS V14.01,2013-10-21 11:43:00,
2013-10-21 07:44:00,49.9,45.9,29.63,East,80,0.0,0.0,86,0.00,,CLR,0.01,0.00,VWS V14.01,2013-10-21 11:44:00,
2013-10-21 07:45:00,49.9,45.9,29.62,East,80,0.0,0.0,86,0.00,,CLR,0.01,0.00,VWS V14.01,2013-10-21 11:45:00,
2013-10-21 07:46:00,49.9,45.9,29.62,East,80,0.0,0.0,86,0.00,,CLR,0.01,0.00,VWS V14.01,2013-10-21 11:46:00,
2013-10-21 07:47:00,49.9,45.9,29.62,East,80,0.0,0.0,86,0.00,,CLR,0.01,0.00,VWS V14.01,2013-10-21 11:47:00,
2013-10-21 07:48:00,49.9,45.9,29.62,East,80,0.0,0.0,86,0.00,,CLR,0.01,0.00,VWS V14.01,2013-10-21 11:48:00,
2013-10-21 07:49:00,49.9,45.9,29.62,East,80,0.0,0.0,86,0.00,,CLR,0.01,0.00,VWS V14.01,2013-10-21 11:49:00,
2013-10-21 07:50:00,49.9,45.9,29.62,East,80,0.0,0.0,86,0.00,,CLR,0.01,0.00,VWS V14.01,2013-10-21 11:50:00,
2013-10-21 07:51:00,49.9,45.9,29.62,East,80,0.0,0.0,86,0.00,,CLR,0.01,0.00,VWS V14.01,2013-10-21 11:51:00,
2013-10-21 07:52:00,49.9,45.9,29.62,East,80,0.0,0.0,86,0.00,,CLR,0.01,0.00,VWS V14.01,2013-10-21 11:52:00,
2013-10-21 07:53:00,49.9,45.9,29.62,East,80,0.0,0.0,86,0.00,,CLR,0.01,0.00,VWS V14.01,2013-10-21 11:53:00,
2013-10-21 07:54:00,49.9,45.9,29.62,East,80,0.0,0.0,86,0.00,,CLR,0.01,0.00,VWS V14.01,2013-10-21 11:54:00,
2013-10-21 07:55:00,49.9,46.2,29.62,South,186,0.0,0.0,87,0.00,,CLR,0.01,0.00,VWS V14.01,2013-10-21 11:55:00,
2013-10-21 07:56:00,49.9,46.2,29.62,South,186,0.0,0.0,87,0.01,,CLR,0.02,0.00,VWS V14.01,2013-10-21 11:56:00,
2013-10-21 07:57:00,49.9,46.2,29.62,South,186,0.0,0.0,87,0.01,,CLR,0.02,0.00,VWS V14.01,2013-10-21 11:57:00,
2013-10-21 07:58:00,49.9,46.2,29.62,South,186,0.0,0.0,87,0.01,,CLR,0.02,0.00,VWS V14.01,2013-10-21 11:58:00,
2013-10-21 07:59:00,49.9,46.2,29.62,South,186,0.0,0.0,87,0.01,,CLR,0.02,0.00,VWS V14.01,2013-10-21 11:59:00,
2013-10-21 08:00:00,49.9,46.2,29.64,South,186,0.0,0.0,87,0.01,,CLR,0.02,0.00,VWS V14.01,2013-10-21 12:00:00,
2013-10-21 08:01:00,49.9,46.2,29.64,South,186,0.0,0.0,87,0.01,,CLR,0.02,0.00,VWS V14.01,2013-10-21 12:01:00,
2013-10-21 08:02:00,49.9,46.2,29.64,South,186,0.0,0.0,87,0.01,,CLR,0.02,0.00,VWS V14.01,2013-10-21 12:02:00,
2013-10-21 08:03:00,49.9,46.2,29.64,South,186,0.0,0.0,87,0.01,,CLR,0.02,0.00,VWS V14.01,2013-10-21 12:03:00,
2013-10-21 08:04:00,49.9,46.2,29.64,South,186,0.0,0.0,87,0.01,,CLR,0.02,0.00,VWS V14.01,2013-10-21 12:04:00,
2013-10-21 08:05:00,49.9,46.2,29.64,South,186,0.0,0.0,87,0.01,,CLR,0.02,0.00,VWS V14.01,2013-10-21 12:05:00,
2013-10-21 08:06:00,49.8,46.1,29.64,South,186,0.0,0.0,87,0.01,,CLR,0.02,0.00,VWS V14.01,2013-10-21 12:06:00,
2013-10-21 08:07:00,49.8,46.1,29.64,South,186,0.0,0.0,87,0.01,,CLR,0.02,0.00,VWS V14.01,2013-10-21 12:07:00,
2013-10-21 08:08:00,49.8,46.1,29.64,South,182,0.0,0.0,87,0.01,,CLR,0.02,0.00,VWS V14.01,2013-10-21 12:08:00,
2013-10-21 08:09:00,49.8,46.1,29.64,South,184,0.0,0.0,87,0.01,,CLR,0.02,0.00,VWS V14.01,2013-10-21 12:09:00,
2013-10-21 08:10:00,49.8,46.1,29.64,South,184,0.0,0.0,87,0.01,,CLR,0.02,0.00,VWS V14.01,2013-10-21 12:10:00,
2013-10-21 08:11:00,49.8,46.1,29.64,South,184,0.0,0.0,87,0.01,,CLR,0.02,0.00,VWS V14.01,2013-10-21 12:11:00,
2013-10-21 08:12:00,49.8,46.1,29.64,South,184,0.0,0.0,87,0.01,,CLR,0.02,0.00,VWS V14.01,2013-10-21 12:12:00,
2013-10-21 08:13:00,49.8,46.1,29.64,South,184,0.0,0.0,87,0.01,,CLR,0.02,0.00,VWS V14.01,2013-10-21 12:13:00,
2013-10-21 08:14:00,49.8,46.1,29.64,WSW,254,0.0,0.0,87,0.01,,CLR,0.02,0.00,VWS V14.01,2013-10-21 12:14:00,
2013-10-21 08:15:00,49.8,46.1,29.64,North,9,0.0,0.0,87,0.01,,CLR,0.02,0.00,VWS V14.01,2013-10-21 12:15:00,
2013-10-21 08:16:00,49.8,46.1,29.64,North,9,0.0,0.0,87,0.01,,CLR,0.02,0.00,VWS V14.01,2013-10-21 12:16:00,
2013-10-21 08:17:00,49.8,46.1,29.64,North,9,0.0,0.0,87,0.01,,CLR,0.02,0.00,VWS V14.01,2013-10-21 12:17:00,
2013-10-21 08:18:00,49.8,46.1,29.64,NNE,13,0.0,0.0,87,0.01,,CLR,0.02,0.00,VWS V14.01,2013-10-21 12:18:00,
2013-10-21 08:19:00,49.8,46.1,29.64,NNE,13,0.0,0.0,87,0.01,,CLR,0.02,0.00,VWS V14.01,2013-10-21 12:19:00,
2013-10-21 08:20:00,49.6,45.9,29.64,NNE,13,0.0,0.0,87,0.01,,CLR,0.02,0.00,VWS V14.01,2013-10-21 12:20:00,
2013-10-21 08:21:00,49.6,45.9,29.64,NNE,13,0.0,0.0,87,0.01,,CLR,0.02,0.00,VWS V14.01,2013-10-21 12:21:00,
2013-10-21 08:22:00,49.6,45.9,29.64,NNE,13,0.0,0.0,87,0.01,,CLR,0.02,0.00,VWS V14.01,2013-10-21 12:22:00,
2013-10-21 08:23:00,49.6,46.2,29.64,NNE,13,0.0,0.0,88,0.02,,CLR,0.03,0.00,VWS V14.01,2013-10-21 12:23:00,
2013-10-21 08:24:00,49.6,46.2,29.64,NNE,13,0.0,0.0,88,0.02,,CLR,0.03,5.00,VWS V14.01,2013-10-21 12:24:00,
2013-10-21 08:25:00,49.6,46.2,29.64,NNE,13,0.0,0.0,88,0.02,,CLR,0.03,5.00,VWS V14.01,2013-10-21 12:25:00,
2013-10-21 08:26:00,49.6,46.2,29.64,NNE,13,0.0,0.0,88,0.02,,CLR,0.03,5.00,VWS V14.01,2013-10-21 12:26:00,
2013-10-21 08:27:00,49.6,46.2,29.64,NNE,13,0.0,0.0,88,0.02,,CLR,0.03,5.00,VWS V14.01,2013-10-21 12:27:00,
2013-10-21 08:28:00,49.6,46.2,29.64,NNE,13,0.0,0.0,88,0.02,,CLR,0.03,5.00,VWS V14.01,2013-10-21 12:28:00,
2013-10-21 08:29:00,49.6,46.2,29.64,NNE,13,0.0,0.0,88,0.02,,CLR,0.03,7.00,VWS V14.01,2013-10-21 12:29:00,
2013-10-21 08:30:00,49.5,46.1,29.64,NNE,13,0.0,0.0,88,0.02,,CLR,0.03,9.00,VWS V14.01,2013-10-21 12:30:00,
2013-10-21 08:31:00,49.5,46.1,29.64,NNE,13,0.0,0.0,88,0.02,,CLR,0.03,9.00,VWS V14.01,2013-10-21 12:31:00,
2013-10-21 08:32:00,49.5,46.1,29.64,NNE,13,0.0,0.0,88,0.02,,CLR,0.03,9.00,VWS V14.01,2013-10-21 12:32:00,
2013-10-21 08:33:00,49.5,46.1,29.64,NNE,13,0.0,0.0,88,0.02,,CLR,0.03,9.00,VWS V14.01,2013-10-21 12:33:00,
2013-10-21 08:34:00,49.5,46.1,29.64,NNE,13,0.0,0.0,88,0.02,,CLR,0.03,9.00,VWS V14.01,2013-10-21 12:34:00,
2013-10-21 08:35:00,49.5,46.1,29.64,NNE,13,0.0,0.0,88,0.02,,CLR,0.03,12.00,VWS V14.01,2013-10-21 12:35:00,
2013-10-21 08:36:00,49.5,46.1,29.64,NNE,13,0.0,0.0,88,0.02,,CLR,0.03,14.00,VWS V14.01,2013-10-21 12:36:00,
2013-10-21 08:37:00,49.5,46.1,29.64,NNE,13,0.0,0.0,88,0.02,,CLR,0.03,14.00,VWS V14.01,2013-10-21 12:37:00,
2013-10-21 08:38:00,49.5,46.1,29.64,NNE,13,0.0,0.0,88,0.02,,CLR,0.03,14.00,VWS V14.01,2013-10-21 12:38:00,
2013-10-21 08:39:00,49.5,46.1,29.64,NNE,13,0.0,0.0,88,0.02,,CLR,0.03,16.00,VWS V14.01,2013-10-21 12:39:00,
2013-10-21 08:40:00,49.4,46.0,29.64,NNE,13,0.0,0.0,88,0.02,,CLR,0.03,16.00,VWS V14.01,2013-10-21 12:40:00,
2013-10-21 08:41:00,49.4,46.0,29.64,NNE,13,0.0,0.0,88,0.02,,CLR,0.03,14.00,VWS V14.01,2013-10-21 12:41:00,
2013-10-21 08:42:00,49.4,46.0,29.64,NNE,13,0.0,0.0,88,0.02,,CLR,0.03,14.00,VWS V14.01,2013-10-21 12:42:00,
2013-10-21 08:43:00,49.4,46.3,29.64,NNE,13,0.0,0.0,89,0.02,,CLR,0.03,14.00,VWS V14.01,2013-10-21 12:43:00,
2013-10-21 08:44:00,49.4,46.3,29.64,NNE,13,0.0,0.0,89,0.02,,CLR,0.03,16.00,VWS V14.01,2013-10-21 12:44:00,
2013-10-21 08:45:00,49.4,46.3,29.64,NNE,13,0.0,0.0,89,0.02,,CLR,0.03,16.00,VWS V14.01,2013-10-21 12:45:00,
2013-10-21 08:46:00,49.4,46.3,29.64,NNE,13,0.0,0.0,89,0.02,,CLR,0.03,16.00,VWS V14.01,2013-10-21 12:46:00,
2013-10-21 08:47:00,49.4,46.3,29.64,NNE,13,0.0,0.0,89,0.02,,CLR,0.03,18.00,VWS V14.01,2013-10-21 12:47:00,
2013-10-21 08:48:00,49.4,46.3,29.64,NNE,13,0.0,0.0,89,0.02,,CLR,0.03,19.00,VWS V14.01,2013-10-21 12:48:00,
2013-10-21 08:49:00,49.4,46.3,29.64,NNE,13,0.0,0.0,89,0.02,,CLR,0.03,19.00,VWS V14.01,2013-10-21 12:49:00,
2013-10-21 08:50:00,49.4,46.3,29.64,NNE,13,0.0,0.0,89,0.02,,CLR,0.03,21.00,VWS V14.01,2013-10-21 12:50:00,
2013-10-21 08:51:00,49.4,46.3,29.64,NNE,13,0.0,0.0,89,0.02,,CLR,0.03,25.00,VWS V14.01,2013-10-21 12:51:00,
2013-10-21 08:52:00,49.4,46.3,29.64,NNE,13,0.0,0.0,89,0.02,,CLR,0.03,33.00,VWS V14.01,2013-10-21 12:52:00,
2013-10-21 08:53:00,49.4,46.3,29.64,NNE,13,0.0,0.0,89,0.02,,CLR,0.03,37.00,VWS V14.01,2013-10-21 12:53:00,
2013-10-21 08:54:00,49.4,46.3,29.64,NNE,13,0.0,0.0,89,0.02,,CLR,0.03,37.00,VWS V14.01,2013-10-21 12:54:00,
2013-10-21 08:55:00,49.4,46.3,29.64,NNE,13,0.0,0.0,89,0.02,,CLR,0.03,37.00,VWS V14.01,2013-10-21 12:55:00,
2013-10-21 08:56:00,49.4,46.3,29.64,NNE,13,0.0,0.0,89,0.02,,CLR,0.03,33.00,VWS V14.01,2013-10-21 12:56:00,
2013-10-21 08:57:00,49.2,46.1,29.64,NNE,13,0.0,0.0,89,0.02,,CLR,0.03,32.00,VWS V14.01,2013-10-21 12:57:00,
2013-10-21 08:58:00,49.2,46.1,29.64,NNE,13,0.0,0.0,89,0.02,,CLR,0.03,33.00,VWS V14.01,2013-10-21 12:58:00,
2013-10-21 08:59:00,49.2,46.1,29.64,NNE,13,0.0,0.0,89,0.02,,CLR,0.03,42.00,VWS V14.01,2013-10-21 12:59:00,
2013-10-21 09:00:00,49.2,46.1,29.65,NNE,13,0.0,0.0,89,0.02,,CLR,0.03,46.00,VWS V14.01,2013-10-21 13:00:00,
2013-10-21 09:01:00,49.2,46.1,29.65,NNE,13,0.0,0.0,89,0.01,,CLR,0.03,47.00,VWS V14.01,2013-10-21 13:01:00,
2013-10-21 09:02:00,49.2,46.1,29.65,NNE,13,0.0,0.0,89,0.01,,CLR,0.03,47.00,VWS V14.01,2013-10-21 13:02:00,
2013-10-21 09:03:00,49.2,46.1,29.65,NNE,13,0.0,0.0,89,0.01,,CLR,0.03,47.00,VWS V14.01,2013-10-21 13:03:00,
2013-10-21 09:04:00,49.2,46.1,29.65,NNE,13,0.0,0.0,89,0.01,,CLR,0.03,44.00,VWS V14.01,2013-10-21 13:04:00,
2013-10-21 09:05:00,49.2,46.1,29.65,NNE,13,0.0,0.0,89,0.01,,CLR,0.03,44.00,VWS V14.01,2013-10-21 13:05:00,
2013-10-21 09:06:00,49.2,46.1,29.65,NNE,13,0.0,0.0,89,0.01,,CLR,0.03,44.00,VWS V14.01,2013-10-21 13:06:00,
2013-10-21 09:07:00,49.2,46.1,29.65,NNE,13,0.0,0.0,89,0.01,,CLR,0.03,47.00,VWS V14.01,2013-10-21 13:07:00,
2013-10-21 09:08:00,49.2,46.1,29.65,NNE,13,0.0,0.0,89,0.01,,CLR,0.03,49.00,VWS V14.01,2013-10-21 13:08:00,
2013-10-21 09:09:00,49.4,46.3,29.65,NNE,13,0.0,0.0,89,0.01,,CLR,0.03,53.00,VWS V14.01,2013-10-21 13:09:00,
2013-10-21 09:10:00,49.4,46.6,29.65,NNE,13,0.0,0.0,90,0.01,,CLR,0.03,54.00,VWS V14.01,2013-10-21 13:10:00,
2013-10-21 09:11:00,49.4,46.6,29.65,NNE,13,0.0,0.0,90,0.01,,CLR,0.03,54.00,VWS V14.01,2013-10-21 13:11:00,
2013-10-21 09:12:00,49.4,46.6,29.65,NNE,13,0.0,0.0,90,0.01,,CLR,0.03,53.00,VWS V14.01,2013-10-21 13:12:00,
2013-10-21 09:13:00,49.4,46.6,29.65,NNE,13,0.0,0.0,90,0.01,,CLR,0.03,49.00,VWS V14.01,2013-10-21 13:13:00,
2013-10-21 09:14:00,49.4,46.6,29.65,NNE,13,0.0,0.0,90,0.01,,CLR,0.03,47.00,VWS V14.01,2013-10-21 13:14:00,
2013-10-21 09:15:00,49.4,46.6,29.65,NNE,13,0.0,0.0,90,0.01,,CLR,0.03,47.00,VWS V14.01,2013-10-21 13:15:00,
2013-10-21 09:16:00,49.4,46.6,29.65,NNE,13,0.0,0.0,90,0.01,,CLR,0.03,49.00,VWS V14.01,2013-10-21 13:16:00,
2013-10-21 09:17:00,49.4,46.6,29.65,NNE,13,0.0,0.0,90,0.01,,CLR,0.03,51.00,VWS V14.01,2013-10-21 13:17:00,
2013-10-21 09:18:00,49.4,46.6,29.65,NNE,13,0.0,0.0,90,0.01,,CLR,0.03,51.00,VWS V14.01,2013-10-21 13:18:00,
2013-10-21 09:19:00,49.4,46.6,29.65,NNE,13,0.0,0.0,90,0.01,,CLR,0.03,51.00,VWS V14.01,2013-10-21 13:19:00,
2013-10-21 09:20:00,49.4,46.6,29.65,NNE,13,0.0,0.0,90,0.01,,CLR,0.03,53.00,VWS V14.01,2013-10-21 13:20:00,
2013-10-21 09:21:00,49.4,46.6,29.65,NNE,13,0.0,0.0,90,0.01,,CLR,0.03,54.00,VWS V14.01,2013-10-21 13:21:00,
2013-10-21 09:22:00,49.4,46.6,29.65,NNE,13,0.0,0.0,90,0.01,,CLR,0.03,56.00,VWS V14.01,2013-10-21 13:22:00,
2013-10-21 09:23:00,49.4,46.6,29.65,NNE,13,0.0,0.0,90,0.01,,CLR,0.03,54.00,VWS V14.01,2013-10-21 13:23:00,
2013-10-21 09:24:00,49.5,46.7,29.65,NNE,13,0.0,0.0,90,0.01,,CLR,0.03,53.00,VWS V14.01,2013-10-21 13:24:00,
2013-10-21 09:25:00,49.5,46.7,29.65,NNE,13,0.0,0.0,90,0.01,,CLR,0.03,53.00,VWS V14.01,2013-10-21 13:25:00,
2013-10-21 09:26:00,49.5,46.7,29.65,NNE,13,0.0,0.0,90,0.01,,CLR,0.03,54.00,VWS V14.01,2013-10-21 13:26:00,
2013-10-21 09:27:00,49.5,46.7,29.65,NNE,13,0.0,0.0,90,0.01,,CLR,0.03,56.00,VWS V14.01,2013-10-21 13:27:00,
2013-10-21 09:28:00,49.5,46.7,29.65,NE,46,0.0,0.0,90,0.01,,CLR,0.03,60.00,VWS V14.01,2013-10-21 13:28:00,
2013-10-21 09:29:00,49.5,46.7,29.65,North,355,0.0,0.0,90,0.01,,CLR,0.03,60.00,VWS V14.01,2013-10-21 13:29:00,
2013-10-21 09:30:00,49.5,46.7,29.65,North,355,0.0,0.0,90,0.01,,CLR,0.03,60.00,VWS V14.01,2013-10-21 13:30:00,
2013-10-21 09:31:00,49.5,46.7,29.65,North,349,0.0,0.0,90,0.00,,CLR,0.03,62.00,VWS V14.01,2013-10-21 13:31:00,
2013-10-21 09:32:00,49.5,46.7,29.65,North,349,0.0,0.0,90,0.00,,CLR,0.03,65.00,VWS V14.01,2013-10-21 13:32:00,
2013-10-21 09:33:00,49.5,46.7,29.65,NNW,339,1.0,0.0,90,0.00,,CLR,0.03,67.00,VWS V14.01,2013-10-21 13:33:00,
2013-10-21 09:34:00,49.5,46.7,29.65,NW,318,0.0,0.0,90,0.00,,CLR,0.03,70.00,VWS V14.01,2013-10-21 13:34:00,
2013-10-21 09:35:00,49.5,46.7,29.65,NW,318,0.0,0.0,90,0.00,,CLR,0.03,72.00,VWS V14.01,2013-10-21 13:35:00,
2013-10-21 09:36:00,49.5,46.7,29.65,NW,318,0.0,0.0,90,0.00,,CLR,0.03,72.00,VWS V14.01,2013-10-21 13:36:00,
2013-10-21 09:37:00,49.5,46.7,29.65,NW,318,0.0,0.0,90,0.00,,CLR,0.03,72.00,VWS V14.01,2013-10-21 13:37:00,
2013-10-21 09:38:00,49.5,46.7,29.65,NW,318,0.0,0.0,90,0.00,,CLR,0.03,74.00,VWS V14.01,2013-10-21 13:38:00,
2013-10-21 09:39:00,49.5,46.7,29.65,NW,318,0.0,0.0,90,0.00,,CLR,0.03,76.00,VWS V14.01,2013-10-21 13:39:00,
2013-10-21 09:40:00,49.5,46.7,29.65,NW,318,0.0,0.0,90,0.00,,CLR,0.03,76.00,VWS V14.01,2013-10-21 13:40:00,
2013-10-21 09:41:00,49.5,46.7,29.65,NW,318,0.0,0.0,90,0.00,,CLR,0.03,84.00,VWS V14.01,2013-10-21 13:41:00,
2013-10-21 09:42:00,49.5,47.0,29.65,NW,318,0.0,0.0,91,0.00,,CLR,0.03,88.00,VWS V14.01,2013-10-21 13:42:00,
2013-10-21 09:43:00,49.6,47.1,29.65,WSW,257,1.0,0.0,91,0.00,,CLR,0.03,88.00,VWS V14.01,2013-10-21 13:43:00,
2013-10-21 09:44:00,49.6,47.1,29.65,WSW,257,0.0,0.0,91,0.00,,CLR,0.03,88.00,VWS V14.01,2013-10-21 13:44:00,
2013-10-21 09:45:00,49.6,47.1,29.65,WSW,257,0.0,0.0,91,0.00,,CLR,0.03,86.00,VWS V14.01,2013-10-21 13:45:00,
2013-10-21 09:46:00,49.6,47.1,29.65,North,360,0.0,0.0,91,0.00,,CLR,0.03,84.00,VWS V14.01,2013-10-21 13:46:00,
2013-10-21 09:47:00,49.6,47.1,29.65,North,360,0.0,0.0,91,0.00,,CLR,0.03,83.00,VWS V14.01,2013-10-21 13:47:00,
2013-10-21 09:48:00,49.6,47.1,29.65,North,360,0.0,0.0,91,0.00,,CLR,0.03,79.00,VWS V14.01,2013-10-21 13:48:00,
2013-10-21 09:49:00,49.6,47.1,29.65,North,360,0.0,0.0,91,0.00,,CLR,0.03,77.00,VWS V14.01,2013-10-21 13:49:00,
2013-10-21 09:50:00,49.6,47.1,29.65,North,360,0.0,0.0,91,0.00,,CLR,0.03,77.00,VWS V14.01,2013-10-21 13:50:00,
2013-10-21 09:51:00,49.6,47.1,29.65,North,360,0.0,0.0,91,0.00,,CLR,0.03,74.00,VWS V14.01,2013-10-21 13:51:00,
2013-10-21 09:52:00,49.8,47.3,29.65,NE,37,0.0,0.0,91,0.00,,CLR,0.03,70.00,VWS V14.01,2013-10-21 13:52:00,
2013-10-21 09:53:00,49.8,47.3,29.65,NE,37,0.0,0.0,91,0.00,,CLR,0.03,69.00,VWS V14.01,2013-10-21 13:53:00,
2013-10-21 09:54:00,49.8,47.3,29.65,NE,37,0.0,0.0,91,0.00,,CLR,0.03,67.00,VWS V14.01,2013-10-21 13:54:00,
2013-10-21 09:55:00,49.8,47.3,29.65,NNE,25,0.0,0.0,91,0.00,,CLR,0.03,67.00,VWS V14.01,2013-10-21 13:55:00,
2013-10-21 09:56:00,49.8,47.3,29.65,NNE,25,0.0,0.0,91,0.00,,CLR,0.03,69.00,VWS V14.01,2013-10-21 13:56:00,
2013-10-21 09:57:00,49.8,47.3,29.65,NNE,25,0.0,0.0,91,0.00,,CLR,0.03,69.00,VWS V14.01,2013-10-21 13:57:00,
2013-10-21 09:58:00,49.8,47.3,29.65,NNE,25,0.0,0.0,91,0.00,,CLR,0.03,67.00,VWS V14.01,2013-10-21 13:58:00,
2013-10-21 09:59:00,49.8,47.3,29.65,NNE,25,0.0,0.0,91,0.00,,CLR,0.03,65.00,VWS V14.01,2013-10-21 13:59:00,
2013-10-21 10:00:00,49.8,47.3,29.65,NNE,25,0.0,0.0,91,0.00,,CLR,0.03,67.00,VWS V14.01,2013-10-21 14:00:00,
2013-10-21 10:01:00,49.8,47.3,29.65,NNE,25,0.0,0.0,91,0.00,,CLR,0.03,70.00,VWS V14.01,2013-10-21 14:01:00,
2013-10-21 10:02:00,49.8,47.3,29.65,NNE,25,0.0,0.0,91,0.00,,CLR,0.03,74.00,VWS V14.01,2013-10-21 14:02:00,
2013-10-21 10:03:00,49.8,47.3,29.65,NNE,25,0.0,0.0,91,0.00,,CLR,0.03,74.00,VWS V14.01,2013-10-21 14:03:00,
2013-10-21 10:04:00,49.8,47.3,29.65,NNE,25,0.0,0.0,91,0.00,,CLR,0.03,81.00,VWS V14.01,2013-10-21 14:04:00,
2013-10-21 10:05:00,49.8,47.3,29.65,NNE,25,0.0,0.0,91,0.00,,CLR,0.03,84.00,VWS V14.01,2013-10-21 14:05:00,
2013-10-21 10:06:00,49.8,47.3,29.65,NNE,25,0.0,0.0,91,0.00,,CLR,0.03,88.00,VWS V14.01,2013-10-21 14:06:00,
2013-10-21 10:07:00,49.8,47.3,29.65,NNE,25,0.0,0.0,91,0.00,,CLR,0.03,91.00,VWS V14.01,2013-10-21 14:07:00,
2013-10-21 10:08:00,49.8,47.3,29.65,NNE,25,0.0,0.0,91,0.00,,CLR,0.03,95.00,VWS V14.01,2013-10-21 14:08:00,
2013-10-21 10:09:00,49.8,47.3,29.65,NNE,25,2.0,0.0,91,0.00,,CLR,0.03,98.00,VWS V14.01,2013-10-21 14:09:00,
2013-10-21 10:10:00,49.8,47.3,29.65,NNE,25,0.0,0.0,91,0.00,,CLR,0.03,95.00,VWS V14.01,2013-10-21 14:10:00,
2013-10-21 10:11:00,49.8,47.3,29.65,NNE,25,0.0,0.0,91,0.00,,CLR,0.03,95.00,VWS V14.01,2013-10-21 14:11:00,
2013-10-21 10:12:00,49.9,47.4,29.65,NNE,25,0.0,0.0,91,0.00,,CLR,0.03,97.00,VWS V14.01,2013-10-21 14:12:00,
2013-10-21 10:13:00,49.9,47.4,29.65,NNE,25,0.0,0.0,91,0.00,,CLR,0.03,97.00,VWS V14.01,2013-10-21 14:13:00,
2013-10-21 10:14:00,49.9,47.4,29.65,NNE,25,0.0,0.0,91,0.00,,CLR,0.03,95.00,VWS V14.01,2013-10-21 14:14:00,
2013-10-21 10:15:00,49.9,47.4,29.65,NNE,25,0.0,0.0,91,0.00,,CLR,0.03,93.00,VWS V14.01,2013-10-21 14:15:00,
2013-10-21 10:16:00,49.9,47.4,29.65,NNE,25,0.0,0.0,91,0.00,,CLR,0.03,91.00,VWS V14.01,2013-10-21 14:16:00,
2013-10-21 10:17:00,49.9,47.4,29.65,North,11,0.0,0.0,91,0.00,,CLR,0.03,88.00,VWS V14.01,2013-10-21 14:17:00,
2013-10-21 10:18:00,49.9,47.4,29.65,NNE,26,0.0,0.0,91,0.00,,CLR,0.03,84.00,VWS V14.01,2013-10-21 14:18:00,
2013-10-21 10:19:00,49.9,47.4,29.65,NNE,26,0.0,0.0,91,0.00,,CLR,0.03,86.00,VWS V14.01,2013-10-21 14:19:00,
2013-10-21 10:20:00,49.9,47.4,29.65,NNW,336,0.0,0.0,91,0.00,,CLR,0.03,88.00,VWS V14.01,2013-10-21 14:20:00,
2013-10-21 10:21:00,49.9,47.4,29.65,NNW,336,0.0,0.0,91,0.00,,CLR,0.03,81.00,VWS V14.01,2013-10-21 14:21:00,
2013-10-21 10:22:00,49.9,47.4,29.65,NNW,336,0.0,0.0,91,0.00,,CLR,0.03,81.00,VWS V14.01,2013-10-21 14:22:00,
2013-10-21 10:23:00,49.9,47.4,29.65,NNW,336,0.0,0.0,91,0.00,,CLR,0.03,60.00,VWS V14.01,2013-10-21 14:23:00,
2013-10-21 10:24:00,49.9,47.4,29.65,WNW,287,0.0,0.0,91,0.00,,CLR,0.03,54.00,VWS V14.01,2013-10-21 14:24:00,
2013-10-21 10:25:00,49.9,47.4,29.65,ENE,76,1.0,0.0,91,0.00,,CLR,0.03,53.00,VWS V14.01,2013-10-21 14:25:00,
2013-10-21 10:26:00,49.9,47.4,29.65,ENE,76,0.0,0.0,91,0.00,,CLR,0.03,56.00,VWS V14.01,2013-10-21 14:26:00,
2013-10-21 10:27:00,49.9,47.4,29.65,NE,46,0.0,0.0,91,0.00,,CLR,0.03,49.00,VWS V14.01,2013-10-21 14:27:00,
2013-10-21 10:28:00,49.9,47.4,29.65,NE,46,0.0,0.0,91,0.00,,CLR,0.03,46.00,VWS V14.01,2013-10-21 14:28:00,
2013-10-21 10:29:00,49.9,47.4,29.65,NE,46,0.0,0.0,91,0.00,,CLR,0.03,44.00,VWS V14.01,2013-10-21 14:29:00,
2013-10-21 10:30:00,49.9,47.4,29.66,NNE,22,0.0,0.0,91,0.00,,CLR,0.03,46.00,VWS V14.01,2013-10-21 14:30:00,
2013-10-21 10:31:00,49.9,47.4,29.66,NNE,22,0.0,0.0,91,0.00,,CLR,0.03,47.00,VWS V14.01,2013-10-21 14:31:00,
2013-10-21 10:32:00,49.9,47.4,29.66,NNE,22,0.0,0.0,91,0.00,,CLR,0.03,47.00,VWS V14.01,2013-10-21 14:32:00,
2013-10-21 10:33:00,49.9,47.4,29.66,NNE,22,0.0,0.0,91,0.00,,CLR,0.03,47.00,VWS V14.01,2013-10-21 14:33:00,
2013-10-21 10:34:00,49.9,47.4,29.66,ENE,63,0.0,0.0,91,0.00,,CLR,0.03,42.00,VWS V14.01,2013-10-21 14:34:00,
2013-10-21 10:35:00,49.9,47.4,29.66,ENE,63,0.0,0.0,91,0.00,,CLR,0.03,40.00,VWS V14.01,2013-10-21 14:35:00,
2013-10-21 10:36:00,49.9,47.4,29.66,SE,129,0.0,0.0,91,0.00,,CLR,0.03,40.00,VWS V14.01,2013-10-21 14:36:00,
2013-10-21 10:37:00,49.9,47.1,29.66,NNE,21,0.0,0.0,90,0.00,,CLR,0.03,40.00,VWS V14.01,2013-10-21 14:37:00,
2013-10-21 10:38:00,49.8,47.3,29.66,NNE,24,1.0,0.0,91,0.00,,CLR,0.03,47.00,VWS V14.01,2013-10-21 14:38:00,
2013-10-21 10:39:00,49.8,47.0,29.66,NNW,343,0.0,0.0,90,0.00,,CLR,0.03,47.00,VWS V14.01,2013-10-21 14:39:00,
2013-10-21 10:40:00,49.8,47.0,29.66,NNW,343,0.0,0.0,90,0.00,,CLR,0.03,60.00,VWS V14.01,2013-10-21 14:40:00,
2013-10-21 10:41:00,49.8,47.0,29.66,NNW,343,0.0,0.0,90,0.00,,CLR,0.03,60.00,VWS V14.01,2013-10-21 14:41:00,
2013-10-21 10:42:00,49.8,47.0,29.66,NNW,343,0.0,0.0,90,0.00,,CLR,0.03,69.00,VWS V14.01,2013-10-21 14:42:00,
2013-10-21 10:43:00,49.8,47.0,29.66,NNW,346,0.0,0.0,90,0.00,,CLR,0.03,69.00,VWS V14.01,2013-10-21 14:43:00,
2013-10-21 10:44:00,49.8,47.0,29.66,NNW,346,0.0,0.0,90,0.00,,CLR,0.03,76.00,VWS V14.01,2013-10-21 14:44:00,
2013-10-21 10:45:00,49.8,47.0,29.66,NNW,346,0.0,0.0,90,0.00,,CLR,0.03,77.00,VWS V14.01,2013-10-21 14:45:00,
2013-10-21 10:46:00,49.8,47.0,29.66,WNW,286,0.0,0.0,90,0.00,,CLR,0.03,77.00,VWS V14.01,2013-10-21 14:46:00,
2013-10-21 10:47:00,49.8,47.0,29.66,NNW,327,0.0,0.0,90,0.00,,CLR,0.03,77.00,VWS V14.01,2013-10-21 14:47:00,
2013-10-21 10:48:00,49.8,47.0,29.66,WSW,242,0.0,0.0,90,0.00,,CLR,0.03,86.00,VWS V14.01,2013-10-21 14:48:00,
2013-10-21 10:49:00,49.6,46.8,29.66,WSW,242,0.0,0.0,90,0.00,,CLR,0.03,100.00,VWS V14.01,2013-10-21 14:49:00,
2013-10-21 10:50:00,49.6,46.8,29.66,WSW,248,0.0,0.0,90,0.00,,CLR,0.03,95.00,VWS V14.01,2013-10-21 14:50:00,
2013-10-21 10:51:00,49.6,46.8,29.66,WSW,248,0.0,0.0,90,0.00,,CLR,0.03,86.00,VWS V14.01,2013-10-21 14:51:00,
2013-10-21 10:52:00,49.6,46.8,29.66,WSW,248,0.0,0.0,90,0.00,,CLR,0.03,90.00,VWS V14.01,2013-10-21 14:52:00,
2013-10-21 10:53:00,49.6,46.8,29.66,North,5,0.0,0.0,90,0.00,,CLR,0.03,88.00,VWS V14.01,2013-10-21 14:53:00,
2013-10-21 10:54:00,49.8,47.0,29.66,North,5,0.0,0.0,90,0.00,,CLR,0.03,74.00,VWS V14.01,2013-10-21 14:54:00,
2013-10-21 10:55:00,49.8,47.0,29.66,North,5,0.0,0.0,90,0.00,,CLR,0.03,70.00,VWS V14.01,2013-10-21 14:55:00,
2013-10-21 10:56:00,49.8,47.0,29.66,North,360,0.0,0.0,90,0.00,,CLR,0.03,77.00,VWS V14.01,2013-10-21 14:56:00,
2013-10-21 10:57:00,49.8,47.0,29.66,West,274,0.0,0.0,90,0.00,,CLR,0.03,74.00,VWS V14.01,2013-10-21 14:57:00,
2013-10-21 10:58:00,49.8,47.0,29.66,West,274,0.0,0.0,90,0.00,,CLR,0.03,70.00,VWS V14.01,2013-10-21 14:58:00,
2013-10-21 10:59:00,49.8,47.0,29.66,West,274,0.0,0.0,90,0.00,,CLR,0.03,67.00,VWS V14.01,2013-10-21 14:59:00,
2013-10-21 11:00:00,49.6,46.8,29.66,West,273,0.0,0.0,90,0.00,,CLR,0.03,62.00,VWS V14.01,2013-10-21 15:00:00,
2013-10-21 11:01:00,49.6,46.8,29.66,West,273,0.0,0.0,90,0.00,,CLR,0.03,93.00,VWS V14.01,2013-10-21 15:01:00,
2013-10-21 11:02:00,49.6,46.8,29.66,West,273,0.0,0.0,90,0.00,,CLR,0.03,97.00,VWS V14.01,2013-10-21 15:02:00,
2013-10-21 11:03:00,49.6,46.8,29.66,West,273,0.0,0.0,90,0.00,,CLR,0.03,84.00,VWS V14.01,2013-10-21 15:03:00,
2013-10-21 11:04:00,49.6,46.8,29.66,West,273,0.0,0.0,90,0.00,,CLR,0.03,69.00,VWS V14.01,2013-10-21 15:04:00,
2013-10-21 11:05:00,49.6,46.8,29.66,West,273,0.0,0.0,90,0.00,,CLR,0.03,67.00,VWS V14.01,2013-10-21 15:05:00,
2013-10-21 11:06:00,49.6,46.5,29.66,NNE,17,0.0,0.0,89,0.00,,CLR,0.03,74.00,VWS V14.01,2013-10-21 15:06:00,
2013-10-21 11:07:00,49.6,46.5,29.66,North,11,0.0,0.0,89,0.00,,CLR,0.03,83.00,VWS V14.01,2013-10-21 15:07:00,
2013-10-21 11:08:00,49.6,46.5,29.66,SSE,164,0.0,0.0,89,0.00,,CLR,0.03,83.00,VWS V14.01,2013-10-21 15:08:00,
2013-10-21 11:09:00,49.5,46.4,29.66,WNW,294,0.0,0.0,89,0.00,,CLR,0.03,90.00,VWS V14.01,2013-10-21 15:09:00,
2013-10-21 11:10:00,49.5,46.4,29.66,WNW,288,0.0,0.0,89,0.00,,CLR,0.03,104.00,VWS V14.01,2013-10-21 15:10:00,
2013-10-21 11:11:00,49.5,46.4,29.66,WNW,288,0.0,0.0,89,0.00,,CLR,0.03,120.00,VWS V14.01,2013-10-21 15:11:00,
2013-10-21 11:12:00,49.5,46.4,29.66,WNW,288,0.0,0.0,89,0.00,,CLR,0.03,109.00,VWS V14.01,2013-10-21 15:12:00,
2013-10-21 11:13:00,49.5,46.4,29.66,WNW,288,0.0,0.0,89,0.00,,CLR,0.03,91.00,VWS V14.01,2013-10-21 15:13:00,
2013-10-21 11:14:00,49.5,46.4,29.66,WNW,288,0.0,0.0,89,0.00,,CLR,0.03,97.00,VWS V14.01,2013-10-21 15:14:00,
2013-10-21 11:15:00,49.5,46.1,29.67,WNW,288,0.0,0.0,88,0.00,,CLR,0.03,97.00,VWS V14.01,2013-10-21 15:15:00,
2013-10-21 11:16:00,49.5,46.1,29.67,WNW,288,0.0,0.0,88,0.00,,CLR,0.03,95.00,VWS V14.01,2013-10-21 15:16:00,
2013-10-21 11:17:00,49.5,46.1,29.67,WNW,288,0.0,0.0,88,0.00,,CLR,0.03,98.00,VWS V14.01,2013-10-21 15:17:00,
2013-10-21 11:18:00,49.5,46.1,29.67,SE,136,0.0,0.0,88,0.00,,CLR,0.03,102.00,VWS V14.01,2013-10-21 15:18:00,
2013-10-21 11:19:00,49.5,46.1,29.67,SE,136,0.0,0.0,88,0.00,,CLR,0.03,100.00,VWS V14.01,2013-10-21 15:19:00,
2013-10-21 11:20:00,49.5,46.1,29.67,North,9,0.0,0.0,88,0.00,,CLR,0.03,97.00,VWS V14.01,2013-10-21 15:20:00,
2013-10-21 11:21:00,49.5,46.1,29.67,North,9,0.0,0.0,88,0.00,,CLR,0.03,98.00,VWS V14.01,2013-10-21 15:21:00,
2013-10-21 11:22:00,49.5,46.1,29.67,North,9,0.0,0.0,88,0.00,,CLR,0.03,100.00,VWS V14.01,2013-10-21 15:22:00,
2013-10-21 11:23:00,49.5,46.1,29.67,North,9,0.0,0.0,88,0.00,,CLR,0.03,100.00,VWS V14.01,2013-10-21 15:23:00,
2013-10-21 11:24:00,49.5,45.8,29.67,North,11,0.0,0.0,87,0.00,,CLR,0.03,104.00,VWS V14.01,2013-10-21 15:24:00,
2013-10-21 11:25:00,49.5,45.8,29.67,North,11,0.0,0.0,87,0.00,,CLR,0.03,93.00,VWS V14.01,2013-10-21 15:25:00,
2013-10-21 11:26:00,49.5,45.8,29.67,North,11,0.0,0.0,87,0.00,,CLR,0.03,104.00,VWS V14.01,2013-10-21 15:26:00,
2013-10-21 11:27:00,49.5,45.8,29.67,North,11,0.0,0.0,87,0.00,,CLR,0.03,109.00,VWS V14.01,2013-10-21 15:27:00,
2013-10-21 11:28:00,49.6,45.9,29.67,NNE,15,0.0,0.0,87,0.00,,CLR,0.03,109.00,VWS V14.01,2013-10-21 15:28:00,
2013-10-21 11:29:00,49.6,45.9,29.67,NNE,15,0.0,0.0,87,0.00,,CLR,0.03,118.00,VWS V14.01,2013-10-21 15:29:00,
2013-10-21 11:30:00,49.6,45.9,29.67,NNE,15,0.0,0.0,87,0.00,,CLR,0.03,113.00,VWS V14.01,2013-10-21 15:30:00,
2013-10-21 11:31:00,49.6,45.9,29.67,NNE,15,0.0,0.0,87,0.00,,CLR,0.03,113.00,VWS V14.01,2013-10-21 15:31:00,
2013-10-21 11:32:00,49.6,45.9,29.67,NNE,15,0.0,0.0,87,0.00,,CLR,0.03,118.00,VWS V14.01,2013-10-21 15:32:00,
2013-10-21 11:33:00,49.8,46.1,29.67,NNE,15,0.0,0.0,87,0.00,,CLR,0.03,134.00,VWS V14.01,2013-10-21 15:33:00,
2013-10-21 11:34:00,49.8,46.1,29.67,WSW,239,0.0,0.0,87,0.00,,CLR,0.03,127.00,VWS V14.01,2013-10-21 15:34:00,
2013-10-21 11:35:00,49.8,46.1,29.67,WSW,239,0.0,0.0,87,0.00,,CLR,0.03,109.00,VWS V14.01,2013-10-21 15:35:00,
2013-10-21 11:36:00,49.8,46.1,29.67,WSW,239,0.0,0.0,87,0.00,,CLR,0.03,95.00,VWS V14.01,2013-10-21 15:36:00,
2013-10-21 11:37:00,49.8,46.1,29.67,South,177,1.0,0.0,87,0.00,,CLR,0.03,98.00,VWS V14.01,2013-10-21 15:37:00,
2013-10-21 11:38:00,49.8,46.1,29.67,SE,128,0.0,0.0,87,0.00,,CLR,0.03,114.00,VWS V14.01,2013-10-21 15:38:00,
2013-10-21 11:39:00,49.8,46.1,29.67,SE,128,0.0,0.0,87,0.00,,CLR,0.03,123.00,VWS V14.01,2013-10-21 15:39:00,
2013-10-21 11:40:00,49.8,46.1,29.67,SE,130,0.0,0.0,87,0.00,,CLR,0.03,121.00,VWS V14.01,2013-10-21 15:40:00,
2013-10-21 11:41:00,49.8,45.8,29.67,SE,127,0.0,0.0,86,0.00,,CLR,0.03,109.00,VWS V14.01,2013-10-21 15:41:00,
2013-10-21 11:42:00,49.8,45.8,29.67,SE,136,0.0,0.0,86,0.00,,CLR,0.03,98.00,VWS V14.01,2013-10-21 15:42:00,
2013-10-21 11:43:00,49.8,45.8,29.67,SE,136,0.0,0.0,86,0.00,,CLR,0.03,102.00,VWS V14.01,2013-10-21 15:43:00,
2013-10-21 11:44:00,49.8,45.8,29.67,WSW,252,0.0,0.0,86,0.00,,CLR,0.03,91.00,VWS V14.01,2013-10-21 15:44:00,
2013-10-21 11:45:00,49.8,45.8,29.67,ENE,74,0.0,0.0,86,0.00,,CLR,0.03,95.00,VWS V14.01,2013-10-21 15:45:00,
2013-10-21 11:46:00,49.8,45.8,29.67,ENE,74,0.0,0.0,86,0.00,,CLR,0.03,104.00,VWS V14.01,2013-10-21 15:46:00,
2013-10-21 11:47:00,49.8,45.5,29.67,SE,130,0.0,0.0,85,0.00,,CLR,0.03,104.00,VWS V14.01,2013-10-21 15:47:00,
2013-10-21 11:48:00,49.8,45.5,29.67,SE,130,0.0,0.0,85,0.00,,CLR,0.03,107.00,VWS V14.01,2013-10-21 15:48:00,
2013-10-21 11:49:00,49.8,45.5,29.67,SW,228,0.0,0.0,85,0.00,,CLR,0.03,121.00,VWS V14.01,2013-10-21 15:49:00,
2013-10-21 11:50:00,49.8,45.5,29.67,SW,228,0.0,0.0,85,0.00,,CLR,0.03,113.00,VWS V14.01,2013-10-21 15:50:00,
2013-10-21 11:51:00,49.8,45.5,29.67,North,351,0.0,0.0,85,0.00,,CLR,0.03,104.00,VWS V14.01,2013-10-21 15:51:00,
2013-10-21 11:52:00,49.8,45.5,29.67,North,351,0.0,0.0,85,0.00,,CLR,0.03,100.00,VWS V14.01,2013-10-21 15:52:00,
2013-10-21 11:53:00,49.8,45.2,29.67,NE,45,0.0,0.0,84,0.00,,CLR,0.03,93.00,VWS V14.01,2013-10-21 15:53:00,
2013-10-21 11:54:00,49.8,45.2,29.67,SW,222,0.0,0.0,84,0.00,,CLR,0.03,93.00,VWS V14.01,2013-10-21 15:54:00,
2013-10-21 11:55:00,49.8,45.2,29.67,SSW,192,0.0,0.0,84,0.00,,CLR,0.03,65.00,VWS V14.01,2013-10-21 15:55:00,
2013-10-21 11:56:00,49.8,45.2,29.67,West,271,1.0,0.0,84,0.00,,CLR,0.03,51.00,VWS V14.01,2013-10-21 15:56:00,
2013-10-21 11:57:00,49.8,45.2,29.67,North,5,0.0,0.0,84,0.00,,CLR,0.03,47.00,VWS V14.01,2013-10-21 15:57:00,
2013-10-21 11:58:00,49.8,45.2,29.67,North,5,0.0,0.0,84,0.00,,CLR,0.03,51.00,VWS V14.01,2013-10-21 15:58:00,
2013-10-21 11:59:00,49.8,45.2,29.67,North,5,0.0,0.0,84,0.00,,CLR,0.03,44.00,VWS V14.01,2013-10-21 15:59:00,
2013-10-21 12:00:00,49.8,44.8,29.67,NNW,336,0.0,0.0,83,0.00,,CLR,0.03,62.00,VWS V14.01,2013-10-21 16:00:00,
2013-10-21 12:01:00,49.6,44.7,29.67,NNW,336,0.0,0.0,83,0.00,,CLR,0.03,93.00,VWS V14.01,2013-10-21 16:01:00,
2013-10-21 12:02:00,49.6,44.7,29.67,NE,42,0.0,0.0,83,0.00,,CLR,0.03,102.00,VWS V14.01,2013-10-21 16:02:00,
2013-10-21 12:03:00,49.6,44.7,29.67,NE,38,1.0,0.0,83,0.00,,CLR,0.03,72.00,VWS V14.01,2013-10-21 16:03:00,
2013-10-21 12:04:00,49.6,44.7,29.67,West,276,0.0,0.0,83,0.00,,CLR,0.03,81.00,VWS V14.01,2013-10-21 16:04:00,
2013-10-21 12:05:00,49.6,44.7,29.67,West,279,0.0,0.0,83,0.00,,CLR,0.03,93.00,VWS V14.01,2013-10-21 16:05:00,
2013-10-21 12:06:00,49.6,44.7,29.67,NW,307,0.0,0.0,83,0.00,,CLR,0.03,93.00,VWS V14.01,2013-10-21 16:06:00,
2013-10-21 12:07:00,49.6,44.7,29.67,NW,307,0.0,0.0,83,0.00,,CLR,0.03,105.00,VWS V14.01,2013-10-21 16:07:00,
2013-10-21 12:08:00,49.6,44.7,29.67,NW,307,0.0,0.0,83,0.00,,CLR,0.03,76.00,VWS V14.01,2013-10-21 16:08:00,
2013-10-21 12:09:00,49.6,44.3,29.67,SE,138,0.0,0.0,82,0.00,,CLR,0.03,67.00,VWS V14.01,2013-10-21 16:09:00,
2013-10-21 12:10:00,49.6,44.3,29.67,SE,138,0.0,0.0,82,0.00,,CLR,0.03,63.00,VWS V14.01,2013-10-21 16:10:00,
2013-10-21 12:11:00,49.5,44.2,29.67,SE,138,0.0,0.0,82,0.00,,CLR,0.03,58.00,VWS V14.01,2013-10-21 16:11:00,
2013-10-21 12:12:00,49.5,44.2,29.67,WNW,299,0.0,0.0,82,0.00,,CLR,0.03,28.00,VWS V14.01,2013-10-21 16:12:00,
2013-10-21 12:13:00,49.5,44.2,29.67,WNW,299,0.0,0.0,82,0.00,,CLR,0.03,33.00,VWS V14.01,2013-10-21 16:13:00,
2013-10-21 12:14:00,49.5,44.2,29.67,South,190,0.0,0.0,82,0.00,,CLR,0.03,44.00,VWS V14.01,2013-10-21 16:14:00,
2013-10-21 12:15:00,49.4,44.1,29.67,ENE,57,0.0,0.0,82,0.00,,CLR,0.03,47.00,VWS V14.01,2013-10-21 16:15:00,
2013-10-21 12:16:00,49.4,44.1,29.67,ENE,57,0.0,0.0,82,0.00,,CLR,0.03,54.00,VWS V14.01,2013-10-21 16:16:00,
2013-10-21 12:17:00,49.4,44.1,29.67,ENE,57,0.0,0.0,82,0.00,,CLR,0.03,63.00,VWS V14.01,2013-10-21 16:17:00,
2013-10-21 12:18:00,49.4,44.1,29.67,ENE,57,0.0,0.0,82,0.00,,CLR,0.03,58.00,VWS V14.01,2013-10-21 16:18:00,
2013-10-21 12:19:00,49.4,44.1,29.67,ENE,57,0.0,0.0,82,0.00,,CLR,0.03,72.00,VWS V14.01,2013-10-21 16:19:00,
2013-10-21 12:20:00,49.2,43.6,29.67,ENE,59,0.0,0.0,81,0.00,,CLR,0.03,102.00,VWS V14.01,2013-10-21 16:20:00,
2013-10-21 12:21:00,49.2,43.6,29.67,ENE,59,0.0,0.0,81,0.00,,CLR,0.03,104.00,VWS V14.01,2013-10-21 16:21:00,
2013-10-21 12:22:00,49.2,43.6,29.67,ENE,59,0.0,0.0,81,0.00,,CLR,0.03,83.00,VWS V14.01,2013-10-21 16:22:00,
2013-10-21 12:23:00,49.2,43.6,29.67,ENE,59,0.0,0.0,81,0.00,,CLR,0.03,77.00,VWS V14.01,2013-10-21 16:23:00,
2013-10-21 12:24:00,49.2,43.6,29.67,ENE,59,0.0,0.0,81,0.00,,CLR,0.03,70.00,VWS V14.01,2013-10-21 16:24:00,
2013-10-21 12:25:00,49.2,43.6,29.67,ENE,59,0.0,0.0,81,0.00,,CLR,0.03,83.00,VWS V14.01,2013-10-21 16:25:00,
2013-10-21 12:26:00,49.1,43.5,29.67,ENE,59,0.0,0.0,81,0.00,,CLR,0.03,98.00,VWS V14.01,2013-10-21 16:26:00,
2013-10-21 12:27:00,49.1,43.5,29.67,ENE,59,1.0,0.0,81,0.00,,CLR,0.03,98.00,VWS V14.01,2013-10-21 16:27:00,
2013-10-21 12:28:00,49.1,43.5,29.67,ENE,59,0.0,0.0,81,0.00,,CLR,0.03,130.00,VWS V14.01,2013-10-21 16:28:00,
2013-10-21 12:29:00,49.1,43.5,29.67,ENE,59,0.0,0.0,81,0.00,,CLR,0.03,128.00,VWS V14.01,2013-10-21 16:29:00,
2013-10-21 12:30:00,48.9,43.3,29.67,ENE,59,0.0,0.0,81,0.00,,CLR,0.03,107.00,VWS V14.01,2013-10-21 16:30:00,
2013-10-21 12:31:00,48.9,43.3,29.67,SSE,152,0.0,0.0,81,0.00,,CLR,0.03,121.00,VWS V14.01,2013-10-21 16:31:00,
2013-10-21 12:32:00,48.9,43.3,29.67,East,90,0.0,0.0,81,0.00,,CLR,0.03,84.00,VWS V14.01,2013-10-21 16:32:00,
2013-10-21 12:33:00,48.9,43.3,29.67,WSW,246,0.0,0.0,81,0.00,,CLR,0.03,105.00,VWS V14.01,2013-10-21 16:33:00,
2013-10-21 12:34:00,48.8,42.9,29.67,SW,216,0.0,0.0,80,0.00,,CLR,0.03,123.00,VWS V14.01,2013-10-21 16:34:00,
2013-10-21 12:35:00,48.8,42.9,29.67,SW,221,0.0,0.0,80,0.00,,CLR,0.03,100.00,VWS V14.01,2013-10-21 16:35:00,
2013-10-21 12:36:00,48.8,42.9,29.67,SW,234,2.0,0.0,80,0.00,,CLR,0.03,97.00,VWS V14.01,2013-10-21 16:36:00,
2013-10-21 12:37:00,48.8,42.9,29.67,WSW,244,0.0,0.0,80,0.00,,CLR,0.03,98.00,VWS V14.01,2013-10-21 16:37:00,
2013-10-21 12:38:00,48.8,42.9,29.67,WSW,244,0.0,0.0,80,0.00,,CLR,0.03,104.00,VWS V14.01,2013-10-21 16:38:00,
2013-10-21 12:39:00,48.8,42.9,29.67,WSW,244,0.0,0.0,80,0.00,,CLR,0.03,107.00,VWS V14.01,2013-10-21 16:39:00,
2013-10-21 12:40:00,48.6,42.7,29.67,WSW,241,0.0,0.0,80,0.00,,CLR,0.03,98.00,VWS V14.01,2013-10-21 16:40:00,
2013-10-21 12:41:00,48.6,42.7,29.67,NW,315,0.0,0.0,80,0.00,,CLR,0.03,83.00,VWS V14.01,2013-10-21 16:41:00,
2013-10-21 12:42:00,48.6,42.7,29.67,NW,315,0.0,0.0,80,0.00,,CLR,0.03,88.00,VWS V14.01,2013-10-21 16:42:00,
2013-10-21 12:43:00,48.6,43.0,29.67,NW,315,0.0,0.0,81,0.00,,CLR,0.03,90.00,VWS V14.01,2013-10-21 16:43:00,
2013-10-21 12:44:00,48.6,42.7,29.67,West,281,1.0,0.0,80,0.00,,CLR,0.03,90.00,VWS V14.01,2013-10-21 16:44:00,
2013-10-21 12:45:00,48.6,42.7,29.67,West,281,0.0,0.0,80,0.00,,CLR,0.03,91.00,VWS V14.01,2013-10-21 16:45:00,
2013-10-21 12:46:00,48.6,42.7,29.67,WSW,248,0.0,0.0,80,0.00,,CLR,0.03,95.00,VWS V14.01,2013-10-21 16:46:00,
2013-10-21 12:47:00,48.6,42.7,29.67,WSW,249,0.0,0.0,80,0.00,,CLR,0.03,86.00,VWS V14.01,2013-10-21 16:47:00,
2013-10-21 12:48:00,48.6,42.7,29.67,South,172,0.0,0.0,80,0.00,,CLR,0.03,54.00,VWS V14.01,2013-10-21 16:48:00,
2013-10-21 12:49:00,48.5,42.6,29.67,South,180,0.0,0.0,80,0.00,,CLR,0.03,49.00,VWS V14.01,2013-10-21 16:49:00,
2013-10-21 12:50:00,48.5,42.6,29.67,South,180,0.0,0.0,80,0.00,,CLR,0.03,70.00,VWS V14.01,2013-10-21 16:50:00,
2013-10-21 12:51:00,48.5,42.6,29.67,South,180,0.0,0.0,80,0.00,,CLR,0.03,83.00,VWS V14.01,2013-10-21 16:51:00,
2013-10-21 12:52:00,48.5,42.6,29.67,South,180,0.0,0.0,80,0.00,,CLR,0.03,139.00,VWS V14.01,2013-10-21 16:52:00,
2013-10-21 12:53:00,48.5,42.6,29.67,South,180,0.0,0.0,80,0.00,,CLR,0.03,148.00,VWS V14.01,2013-10-21 16:53:00,
2013-10-21 12:54:00,48.5,42.6,29.67,South,180,0.0,0.0,80,0.00,,CLR,0.03,165.00,VWS V14.01,2013-10-21 16:54:00,
2013-10-21 12:55:00,48.5,42.6,29.67,WNW,286,0.0,0.0,80,0.00,,CLR,0.03,172.00,VWS V14.01,2013-10-21 16:55:00,
2013-10-21 12:56:00,48.5,42.6,29.67,ENE,69,1.0,0.0,80,0.00,,CLR,0.03,190.00,VWS V14.01,2013-10-21 16:56:00,
2013-10-21 12:57:00,48.5,42.6,29.67,East,94,0.0,0.0,80,0.00,,CLR,0.03,229.00,VWS V14.01,2013-10-21 16:57:00,
2013-10-21 12:58:00,48.5,42.6,29.67,East,94,0.0,0.0,80,0.00,,CLR,0.03,257.00,VWS V14.01,2013-10-21 16:58:00,
2013-10-21 12:59:00,48.5,42.6,29.67,East,94,0.0,0.0,80,0.00,,CLR,0.03,276.00,VWS V14.01,2013-10-21 16:59:00,
2013-10-21 13:00:00,48.5,42.6,29.67,East,94,0.0,0.0,80,0.00,,CLR,0.03,218.00,VWS V14.01,2013-10-21 17:00:00,
2013-10-21 13:01:00,48.5,42.6,29.67,East,94,0.0,0.0,80,0.00,,CLR,0.03,160.00,VWS V14.01,2013-10-21 17:01:00,
2013-10-21 13:02:00,48.5,42.6,29.67,East,94,0.0,0.0,80,0.00,,CLR,0.03,135.00,VWS V14.01,2013-10-21 17:02:00,
2013-10-21 13:03:00,48.6,42.7,29.67,East,94,0.0,0.0,80,0.00,,CLR,0.03,104.00,VWS V14.01,2013-10-21 17:03:00,
2013-10-21 13:04:00,48.6,42.7,29.67,East,94,0.0,0.0,80,0.00,,CLR,0.03,88.00,VWS V14.01,2013-10-21 17:04:00,
2013-10-21 13:05:00,48.6,42.7,29.67,East,94,0.0,0.0,80,0.00,,CLR,0.03,97.00,VWS V14.01,2013-10-21 17:05:00,
2013-10-21 13:06:00,48.6,42.7,29.67,East,94,0.0,0.0,80,0.00,,CLR,0.03,97.00,VWS V14.01,2013-10-21 17:06:00,
2013-10-21 13:07:00,48.6,42.7,29.67,ESE,104,0.0,0.0,80,0.00,,CLR,0.03,105.00,VWS V14.01,2013-10-21 17:07:00,
2013-10-21 13:08:00,48.6,42.7,29.67,NNW,329,0.0,0.0,80,0.00,,CLR,0.03,120.00,VWS V14.01,2013-10-21 17:08:00,
2013-10-21 13:09:00,48.6,42.7,29.67,WSW,256,0.0,0.0,80,0.00,,CLR,0.03,125.00,VWS V14.01,2013-10-21 17:09:00,
2013-10-21 13:10:00,48.6,42.7,29.67,SE,144,0.0,0.0,80,0.00,,CLR,0.03,148.00,VWS V14.01,2013-10-21 17:10:00,
2013-10-21 13:11:00,48.6,42.4,29.67,SSE,147,0.0,0.0,79,0.00,,CLR,0.03,118.00,VWS V14.01,2013-10-21 17:11:00,
2013-10-21 13:12:00,48.6,42.4,29.67,South,171,0.0,0.0,79,0.00,,CLR,0.03,98.00,VWS V14.01,2013-10-21 17:12:00,
2013-10-21 13:13:00,48.5,42.3,29.67,SSE,147,0.0,0.0,79,0.00,,CLR,0.03,91.00,VWS V14.01,2013-10-21 17:13:00,
2013-10-21 13:14:00,48.5,42.0,29.67,SSE,147,0.0,0.0,78,0.00,,CLR,0.03,93.00,VWS V14.01,2013-10-21 17:14:00,
2013-10-21 13:15:00,48.5,42.0,29.66,SSW,200,0.0,0.0,78,0.00,,CLR,0.03,97.00,VWS V14.01,2013-10-21 17:15:00,
2013-10-21 13:16:00,48.5,42.0,29.66,SW,215,0.0,0.0,78,0.00,,CLR,0.03,90.00,VWS V14.01,2013-10-21 17:16:00,
2013-10-21 13:17:00,48.5,42.0,29.66,SW,215,0.0,0.0,78,0.00,,CLR,0.03,79.00,VWS V14.01,2013-10-21 17:17:00,
2013-10-21 13:18:00,48.5,42.0,29.66,SW,215,0.0,0.0,78,0.00,,CLR,0.03,91.00,VWS V14.01,2013-10-21 17:18:00,
2013-10-21 13:19:00,48.5,42.0,29.66,West,281,0.0,0.0,78,0.00,,CLR,0.03,104.00,VWS V14.01,2013-10-21 17:19:00,
2013-10-21 13:20:00,48.5,42.0,29.66,West,281,0.0,0.0,78,0.00,,CLR,0.03,95.00,VWS V14.01,2013-10-21 17:20:00,
2013-10-21 13:21:00,48.5,42.0,29.66,West,281,0.0,0.0,78,0.00,,CLR,0.03,90.00,VWS V14.01,2013-10-21 17:21:00,
2013-10-21 13:22:00,48.5,42.0,29.66,West,281,0.0,0.0,78,0.00,,CLR,0.03,84.00,VWS V14.01,2013-10-21 17:22:00,
2013-10-21 13:23:00,48.5,42.0,29.66,West,281,0.0,0.0,78,0.00,,CLR,0.03,88.00,VWS V14.01,2013-10-21 17:23:00,
2013-10-21 13:24:00,48.5,42.0,29.66,West,281,0.0,0.0,78,0.00,,CLR,0.03,88.00,VWS V14.01,2013-10-21 17:24:00,
2013-10-21 13:25:00,48.5,42.0,29.66,West,281,0.0,0.0,78,0.00,,CLR,0.03,88.00,VWS V14.01,2013-10-21 17:25:00,
2013-10-21 13:26:00,48.3,41.8,29.66,NNE,13,1.0,0.0,78,0.00,,CLR,0.03,88.00,VWS V14.01,2013-10-21 17:26:00,
2013-10-21 13:27:00,48.3,41.4,29.66,NNE,13,0.0,0.0,77,0.00,,CLR,0.03,86.00,VWS V14.01,2013-10-21 17:27:00,
2013-10-21 13:28:00,48.3,41.4,29.66,NE,56,0.0,0.0,77,0.00,,CLR,0.03,76.00,VWS V14.01,2013-10-21 17:28:00,
2013-10-21 13:29:00,48.3,41.4,29.66,SW,219,0.0,0.0,77,0.00,,CLR,0.03,76.00,VWS V14.01,2013-10-21 17:29:00,
2013-10-21 13:30:00,48.3,41.4,29.66,SSE,156,0.0,0.0,77,0.00,,CLR,0.03,163.00,VWS V14.01,2013-10-21 17:30:00,
2013-10-21 13:31:00,48.3,41.4,29.66,SSE,159,0.0,0.0,77,0.00,,CLR,0.03,207.00,VWS V14.01,2013-10-21 17:31:00,
2013-10-21 13:32:00,48.3,41.4,29.66,SSE,162,0.0,0.0,77,0.00,,CLR,0.03,209.00,VWS V14.01,2013-10-21 17:32:00,
2013-10-21 13:33:00,48.3,41.8,29.66,West,273,1.0,0.0,78,0.00,,CLR,0.03,156.00,VWS V14.01,2013-10-21 17:33:00,
2013-10-21 13:34:00,48.3,41.8,29.66,West,273,0.0,0.0,78,0.00,,CLR,0.03,132.00,VWS V14.01,2013-10-21 17:34:00,
2013-10-21 13:35:00,48.3,41.8,29.66,West,276,0.0,0.0,78,0.00,,CLR,0.03,134.00,VWS V14.01,2013-10-21 17:35:00,
2013-10-21 13:36:00,48.3,41.4,29.66,NNE,15,0.0,0.0,77,0.00,,CLR,0.03,141.00,VWS V14.01,2013-10-21 17:36:00,
2013-10-21 13:37:00,48.3,41.4,29.66,NNE,15,0.0,0.0,77,0.00,,CLR,0.03,123.00,VWS V14.01,2013-10-21 17:37:00,
2013-10-21 13:38:00,48.3,41.4,29.66,NNE,15,0.0,0.0,77,0.00,,CLR,0.03,107.00,VWS V14.01,2013-10-21 17:38:00,
2013-10-21 13:39:00,48.3,41.4,29.66,NNE,15,0.0,0.0,77,0.00,,CLR,0.03,123.00,VWS V14.01,2013-10-21 17:39:00,
2013-10-21 13:40:00,48.3,41.8,29.66,NNE,15,0.0,0.0,78,0.00,,CLR,0.03,146.00,VWS V14.01,2013-10-21 17:40:00,
2013-10-21 13:41:00,48.3,41.8,29.66,NNE,15,0.0,0.0,78,0.00,,CLR,0.03,185.00,VWS V14.01,2013-10-21 17:41:00,
2013-10-21 13:42:00,48.3,41.4,29.66,NNE,15,0.0,0.0,77,0.00,,CLR,0.03,190.00,VWS V14.01,2013-10-21 17:42:00,
2013-10-21 13:43:00,48.3,41.8,29.66,NNE,15,0.0,0.0,78,0.00,,CLR,0.03,174.00,VWS V14.01,2013-10-21 17:43:00,
2013-10-21 13:44:00,48.5,42.0,29.66,NNE,15,0.0,0.0,78,0.00,,CLR,0.03,141.00,VWS V14.01,2013-10-21 17:44:00,
2013-10-21 13:45:00,48.5,42.0,29.66,SSW,192,1.0,0.0,78,0.00,,CLR,0.03,109.00,VWS V14.01,2013-10-21 17:45:00,
2013-10-21 13:46:00,48.5,41.6,29.66,SSW,193,0.0,0.0,77,0.00,,CLR,0.03,116.00,VWS V14.01,2013-10-21 17:46:00,
2013-10-21 13:47:00,48.5,41.6,29.66,SSW,193,0.0,0.0,77,0.00,,CLR,0.03,120.00,VWS V14.01,2013-10-21 17:47:00,
2013-10-21 13:48:00,48.5,41.6,29.66,SSW,193,0.0,0.0,77,0.00,,CLR,0.03,130.00,VWS V14.01,2013-10-21 17:48:00,
2013-10-21 13:49:00,48.5,41.6,29.66,SSW,205,0.0,0.0,77,0.00,,CLR,0.03,135.00,VWS V14.01,2013-10-21 17:49:00,
2013-10-21 13:50:00,48.3,41.1,29.66,SW,217,0.0,0.0,76,0.00,,CLR,0.03,144.00,VWS V14.01,2013-10-21 17:50:00,
2013-10-21 13:51:00,48.3,41.1,29.66,SW,217,0.0,0.0,76,0.00,,CLR,0.03,142.00,VWS V14.01,2013-10-21 17:51:00,
2013-10-21 13:52:00,48.3,41.1,29.66,SW,217,0.0,0.0,76,0.00,,CLR,0.03,155.00,VWS V14.01,2013-10-21 17:52:00,
2013-10-21 13:53:00,48.3,41.1,29.66,SSW,197,0.0,0.0,76,0.00,,CLR,0.03,155.00,VWS V14.01,2013-10-21 17:53:00,
2013-10-21 13:54:00,48.5,41.3,29.66,SSW,197,0.0,0.0,76,0.00,,CLR,0.03,146.00,VWS V14.01,2013-10-21 17:54:00,
2013-10-21 13:55:00,48.5,41.3,29.66,SSW,197,0.0,0.0,76,0.00,,CLR,0.03,132.00,VWS V14.01,2013-10-21 17:55:00,
2013-10-21 13:56:00,48.5,41.3,29.66,SSW,197,0.0,0.0,76,0.00,,CLR,0.03,132.00,VWS V14.01,2013-10-21 17:56:00,
2013-10-21 13:57:00,48.5,41.3,29.66,SSW,197,0.0,0.0,76,0.00,,CLR,0.03,137.00,VWS V14.01,2013-10-21 17:57:00,
2013-10-21 13:58:00,48.5,41.3,29.66,SSW,197,0.0,0.0,76,0.00,,CLR,0.03,149.00,VWS V14.01,2013-10-21 17:58:00,
2013-10-21 13:59:00,48.5,41.6,29.66,SSW,197,0.0,0.0,77,0.00,,CLR,0.03,156.00,VWS V14.01,2013-10-21 17:59:00,
2013-10-21 14:00:00,48.5,41.6,29.66,SSW,197,0.0,0.0,77,0.00,,CLR,0.03,181.00,VWS V14.01,2013-10-21 18:00:00,
2013-10-21 14:01:00,48.6,41.7,29.66,SSW,197,0.0,0.0,77,0.00,,CLR,0.03,214.00,VWS V14.01,2013-10-21 18:01:00,
2013-10-21 14:02:00,48.6,41.7,29.66,SSW,197,0.0,0.0,77,0.00,,CLR,0.03,206.00,VWS V14.01,2013-10-21 18:02:00,
2013-10-21 14:03:00,48.6,41.7,29.66,SSW,197,0.0,0.0,77,0.00,,CLR,0.03,225.00,VWS V14.01,2013-10-21 18:03:00,
2013-10-21 14:04:00,48.6,41.7,29.66,SSW,197,0.0,0.0,77,0.00,,CLR,0.03,206.00,VWS V14.01,2013-10-21 18:04:00,
2013-10-21 14:05:00,48.6,41.7,29.66,South,182,0.0,0.0,77,0.00,,CLR,0.03,172.00,VWS V14.01,2013-10-21 18:05:00,
2013-10-21 14:06:00,48.6,41.4,29.66,SE,145,0.0,0.0,76,0.00,,CLR,0.03,188.00,VWS V14.01,2013-10-21 18:06:00,
2013-10-21 14:07:00,48.6,41.4,29.66,SE,146,0.0,0.0,76,0.00,,CLR,0.03,188.00,VWS V14.01,2013-10-21 18:07:00,
2013-10-21 14:08:00,48.6,41.0,29.66,SE,146,0.0,0.0,75,0.00,,CLR,0.03,193.00,VWS V14.01,2013-10-21 18:08:00,
2013-10-21 14:09:00,48.6,41.0,29.66,SSE,152,0.0,0.0,75,0.00,,CLR,0.03,165.00,VWS V14.01,2013-10-21 18:09:00,
2013-10-21 14:10:00,48.6,41.0,29.66,SW,236,1.0,0.0,75,0.00,,CLR,0.03,132.00,VWS V14.01,2013-10-21 18:10:00,
2013-10-21 14:11:00,48.6,40.7,29.66,SW,236,0.0,0.0,74,0.00,,CLR,0.03,116.00,VWS V14.01,2013-10-21 18:11:00,
2013-10-21 14:12:00,48.6,41.0,29.66,WSW,237,0.0,0.0,75,0.00,,CLR,0.03,127.00,VWS V14.01,2013-10-21 18:12:00,
2013-10-21 14:13:00,48.6,41.0,29.66,WSW,247,0.0,0.0,75,0.00,,CLR,0.03,151.00,VWS V14.01,2013-10-21 18:13:00,
2013-10-21 14:14:00,48.6,41.0,29.66,WSW,247,0.0,0.0,75,0.00,,CLR,0.03,146.00,VWS V14.01,2013-10-21 18:14:00,
2013-10-21 14:15:00,48.6,40.7,29.66,WSW,248,0.0,0.0,74,0.00,,CLR,0.03,142.00,VWS V14.01,2013-10-21 18:15:00,
2013-10-21 14:16:00,48.6,40.7,29.66,WSW,248,0.0,0.0,74,0.00,,CLR,0.03,144.00,VWS V14.01,2013-10-21 18:16:00,
2013-10-21 14:17:00,48.6,40.7,29.66,WSW,248,0.0,0.0,74,0.00,,CLR,0.03,158.00,VWS V14.01,2013-10-21 18:17:00,
2013-10-21 14:18:00,48.6,40.7,29.66,WSW,248,0.0,0.0,74,0.00,,CLR,0.03,165.00,VWS V14.01,2013-10-21 18:18:00,
2013-10-21 14:19:00,48.6,40.7,29.66,WSW,248,0.0,0.0,74,0.00,,CLR,0.03,169.00,VWS V14.01,2013-10-21 18:19:00,
2013-10-21 14:20:00,48.6,40.7,29.66,WSW,248,0.0,0.0,74,0.00,,CLR,0.03,178.00,VWS V14.01,2013-10-21 18:20:00,
2013-10-21 14:21:00,48.6,40.7,29.66,WSW,248,0.0,0.0,74,0.00,,CLR,0.03,155.00,VWS V14.01,2013-10-21 18:21:00,
2013-10-21 14:22:00,48.8,40.9,29.66,WSW,248,0.0,0.0,74,0.00,,OVC038,0.03,155.00,VWS V14.01,2013-10-21 18:22:00,
2013-10-21 14:23:00,48.8,40.9,29.66,WSW,248,0.0,0.0,74,0.00,,OVC038,0.03,156.00,VWS V14.01,2013-10-21 18:23:00,
2013-10-21 14:24:00,48.8,40.9,29.66,WSW,248,0.0,0.0,74,0.00,,OVC038,0.03,149.00,VWS V14.01,2013-10-21 18:24:00,
2013-10-21 14:25:00,48.8,41.2,29.66,WSW,249,0.0,0.0,75,0.00,,OVC038,0.03,158.00,VWS V14.01,2013-10-21 18:25:00,
2013-10-21 14:26:00,48.8,41.2,29.66,ESE,107,1.0,0.0,75,0.00,,OVC038,0.03,162.00,VWS V14.01,2013-10-21 18:26:00,
2013-10-21 14:27:00,48.8,40.9,29.66,ESE,105,0.0,0.0,74,0.00,,OVC038,0.03,169.00,VWS V14.01,2013-10-21 18:27:00,
2013-10-21 14:28:00,48.8,40.9,29.66,ESE,105,0.0,0.0,74,0.00,,OVC038,0.03,158.00,VWS V14.01,2013-10-21 18:28:00,
2013-10-21 14:29:00,48.8,40.9,29.66,ESE,105,0.0,0.0,74,0.00,,OVC038,0.03,169.00,VWS V14.01,2013-10-21 18:29:00,
2013-10-21 14:30:00,48.8,41.2,29.66,East,96,1.0,0.0,75,0.00,,OVC038,0.03,176.00,VWS V14.01,2013-10-21 18:30:00,
2013-10-21 14:31:00,48.8,40.9,29.66,East,96,0.0,0.0,74,0.00,,OVC038,0.03,179.00,VWS V14.01,2013-10-21 18:31:00,
2013-10-21 14:32:00,48.8,41.2,29.66,East,96,0.0,0.0,75,0.00,,OVC038,0.03,197.00,VWS V14.01,2013-10-21 18:32:00,
2013-10-21 14:33:00,48.8,41.2,29.66,NNW,327,0.0,0.0,75,0.00,,OVC038,0.03,176.00,VWS V14.01,2013-10-21 18:33:00,
2013-10-21 14:34:00,48.8,40.9,29.66,SE,146,1.0,0.0,74,0.00,,OVC038,0.03,149.00,VWS V14.01,2013-10-21 18:34:00,
2013-10-21 14:35:00,48.8,40.5,29.66,West,269,0.0,0.0,73,0.00,,OVC038,0.03,146.00,VWS V14.01,2013-10-21 18:35:00,
2013-10-21 14:36:00,48.8,40.9,29.66,West,269,0.0,0.0,74,0.00,,OVC038,0.03,163.00,VWS V14.01,2013-10-21 18:36:00,
2013-10-21 14:37:00,48.8,40.5,29.66,West,265,0.0,0.0,73,0.00,,OVC038,0.03,171.00,VWS V14.01,2013-10-21 18:37:00,
2013-10-21 14:38:00,48.8,40.9,29.66,West,265,0.0,0.0,74,0.00,,OVC038,0.03,176.00,VWS V14.01,2013-10-21 18:38:00,
2013-10-21 14:39:00,48.8,40.5,29.66,SW,222,0.0,0.0,73,0.00,,OVC038,0.03,195.00,VWS V14.01,2013-10-21 18:39:00,
2013-10-21 14:40:00,48.8,40.5,29.66,SSW,200,1.0,0.0,73,0.00,,OVC038,0.03,193.00,VWS V14.01,2013-10-21 18:40:00,
2013-10-21 14:41:00,48.6,40.0,29.66,SSW,200,0.0,0.0,72,0.00,,OVC038,0.03,216.00,VWS V14.01,2013-10-21 18:41:00,
2013-10-21 14:42:00,48.6,40.0,29.66,SSW,194,0.0,0.0,72,0.00,,OVC038,0.03,220.00,VWS V14.01,2013-10-21 18:42:00,
2013-10-21 14:43:00,48.6,40.0,29.66,SSE,155,0.0,0.0,72,0.00,,OVC038,0.03,209.00,VWS V14.01,2013-10-21 18:43:00,
2013-10-21 14:44:00,48.6,40.0,29.66,SSE,155,0.0,0.0,72,0.00,,OVC038,0.03,211.00,VWS V14.01,2013-10-21 18:44:00,
2013-10-21 14:45:00,48.6,40.0,29.66,SSE,155,0.0,0.0,72,0.00,,OVC038,0.03,211.00,VWS V14.01,2013-10-21 18:45:00,
2013-10-21 14:46:00,48.6,40.0,29.66,WNW,289,0.0,0.0,72,0.00,,OVC038,0.03,204.00,VWS V14.01,2013-10-21 18:46:00,
2013-10-21 14:47:00,48.6,40.0,29.66,WNW,292,0.0,0.0,72,0.00,,OVC038,0.03,227.00,VWS V14.01,2013-10-21 18:47:00,
2013-10-21 14:48:00,48.6,40.0,29.66,WNW,292,1.0,0.0,72,0.00,,OVC038,0.03,227.00,VWS V14.01,2013-10-21 18:48:00,
2013-10-21 14:49:00,48.6,40.0,29.66,WNW,292,0.0,0.0,72,0.00,,OVC038,0.03,188.00,VWS V14.01,2013-10-21 18:49:00,
2013-10-21 14:50:00,48.6,40.0,29.66,WNW,292,0.0,0.0,72,0.00,,OVC038,0.03,200.00,VWS V14.01,2013-10-21 18:50:00,
2013-10-21 14:51:00,48.6,40.0,29.66,WNW,292,0.0,0.0,72,0.00,,OVC038,0.03,209.00,VWS V14.01,2013-10-21 18:51:00,
2013-10-21 14:52:00,48.6,40.3,29.66,NNE,25,0.0,0.0,73,0.00,,BKN110,0.03,244.00,VWS V14.01,2013-10-21 18:52:00,
2013-10-21 14:53:00,48.6,40.0,29.66,WNW,297,0.0,0.0,72,0.00,,BKN110,0.03,220.00,VWS V14.01,2013-10-21 18:53:00,
2013-10-21 14:54:00,48.6,40.3,29.66,WNW,297,0.0,0.0,73,0.00,,BKN110,0.03,225.00,VWS V14.01,2013-10-21 18:54:00,
2013-10-21 14:55:00,48.8,40.5,29.66,WNW,297,0.0,0.0,73,0.00,,BKN110,0.03,283.00,VWS V14.01,2013-10-21 18:55:00,
2013-10-21 14:56:00,48.8,40.5,29.66,WNW,292,0.0,0.0,73,0.00,,BKN110,0.03,267.00,VWS V14.01,2013-10-21 18:56:00,
2013-10-21 14:57:00,48.8,40.5,29.66,WNW,292,0.0,0.0,73,0.00,,BKN110,0.03,278.00,VWS V14.01,2013-10-21 18:57:00,
2013-10-21 14:58:00,48.8,40.5,29.66,WNW,292,0.0,0.0,73,0.00,,BKN110,0.03,264.00,VWS V14.01,2013-10-21 18:58:00,
2013-10-21 14:59:00,48.8,40.5,29.66,WNW,292,0.0,0.0,73,0.00,,BKN110,0.03,227.00,VWS V14.01,2013-10-21 18:59:00,
2013-10-21 15:00:00,48.8,40.5,29.66,WNW,300,1.0,0.0,73,0.00,,BKN110,0.03,185.00,VWS V14.01,2013-10-21 19:00:00,
2013-10-21 15:01:00,48.8,40.5,29.66,WNW,300,0.0,0.0,73,0.00,,BKN110,0.03,156.00,VWS V14.01,2013-10-21 19:01:00,
2013-10-21 15:02:00,48.9,40.6,29.66,WNW,300,0.0,0.0,73,0.00,,BKN110,0.03,153.00,VWS V14.01,2013-10-21 19:02:00,
2013-10-21 15:03:00,48.9,41.0,29.66,WNW,300,0.0,0.0,74,0.00,,BKN110,0.03,155.00,VWS V14.01,2013-10-21 19:03:00,
2013-10-21 15:04:00,48.9,41.0,29.66,WNW,300,0.0,0.0,74,0.00,,BKN110,0.03,160.00,VWS V14.01,2013-10-21 19:04:00,
2013-10-21 15:05:00,48.9,40.6,29.66,WNW,300,0.0,0.0,73,0.00,,BKN110,0.03,165.00,VWS V14.01,2013-10-21 19:05:00,
2013-10-21 15:06:00,48.9,40.6,29.66,WNW,300,0.0,0.0,73,0.00,,BKN110,0.03,195.00,VWS V14.01,2013-10-21 19:06:00,
2013-10-21 15:07:00,48.9,40.3,29.66,WNW,300,0.0,0.0,72,0.00,,BKN110,0.03,181.00,VWS V14.01,2013-10-21 19:07:00,
2013-10-21 15:08:00,48.9,40.6,29.66,WNW,300,0.0,0.0,73,0.00,,BKN110,0.03,181.00,VWS V14.01,2013-10-21 19:08:00,
2013-10-21 15:09:00,48.9,40.6,29.66,WNW,300,0.0,0.0,73,0.00,,BKN110,0.03,171.00,VWS V14.01,2013-10-21 19:09:00,
2013-10-21 15:10:00,48.9,40.6,29.66,WNW,300,0.0,0.0,73,0.00,,BKN110,0.03,162.00,VWS V14.01,2013-10-21 19:10:00,
2013-10-21 15:11:00,48.9,40.6,29.66,WNW,300,0.0,0.0,73,0.00,,BKN110,0.03,165.00,VWS V14.01,2013-10-21 19:11:00,
2013-10-21 15:12:00,48.9,40.3,29.66,WNW,300,0.0,0.0,72,0.00,,BKN110,0.03,171.00,VWS V14.01,2013-10-21 19:12:00,
2013-10-21 15:13:00,48.9,40.3,29.66,WNW,300,0.0,0.0,72,0.00,,BKN110,0.03,186.00,VWS V14.01,2013-10-21 19:13:00,
2013-10-21 15:14:00,49.1,40.8,29.66,SE,134,3.0,0.0,73,0.00,,BKN110,0.03,185.00,VWS V14.01,2013-10-21 19:14:00,
2013-10-21 15:15:00,48.9,40.3,29.66,SSW,209,0.0,0.0,72,0.00,,BKN110,0.03,179.00,VWS V14.01,2013-10-21 19:15:00,
2013-10-21 15:16:00,48.9,39.9,29.66,ENE,61,0.0,0.0,71,0.00,,BKN110,0.03,178.00,VWS V14.01,2013-10-21 19:16:00,
2013-10-21 15:17:00,48.9,39.9,29.66,ENE,61,0.0,0.0,71,0.00,,BKN110,0.03,167.00,VWS V14.01,2013-10-21 19:17:00,
2013-10-21 15:18:00,48.9,39.9,29.66,ENE,61,0.0,0.0,71,0.00,,BKN110,0.03,158.00,VWS V14.01,2013-10-21 19:18:00,
2013-10-21 15:19:00,48.9,39.9,29.66,ENE,61,0.0,0.0,71,0.00,,BKN110,0.03,149.00,VWS V14.01,2013-10-21 19:19:00,
2013-10-21 15:20:00,48.9,39.9,29.66,ENE,61,0.0,0.0,71,0.00,,BKN110,0.03,149.00,VWS V14.01,2013-10-21 19:20:00,
2013-10-21 15:21:00,48.9,39.9,29.66,ENE,61,0.0,0.0,71,0.00,,BKN110,0.03,158.00,VWS V14.01,2013-10-21 19:21:00,
2013-10-21 15:22:00,48.9,39.9,29.66,NNW,331,0.0,0.0,71,0.00,,BKN110,0.03,162.00,VWS V14.01,2013-10-21 19:22:00,
2013-10-21 15:23:00,48.9,39.9,29.66,ENE,59,1.0,0.0,71,0.00,,BKN110,0.03,176.00,VWS V14.01,2013-10-21 19:23:00,
2013-10-21 15:24:00,48.9,39.9,29.66,ENE,59,0.0,0.0,71,0.00,,BKN110,0.03,202.00,VWS V14.01,2013-10-21 19:24:00,
2013-10-21 15:25:00,48.8,39.8,29.66,ENE,59,0.0,0.0,71,0.00,,BKN110,0.03,193.00,VWS V14.01,2013-10-21 19:25:00,
2013-10-21 15:26:00,48.8,39.8,29.66,ENE,59,0.0,0.0,71,0.00,,BKN110,0.03,193.00,VWS V14.01,2013-10-21 19:26:00,
2013-10-21 15:27:00,48.8,39.8,29.66,ENE,59,0.0,0.0,71,0.00,,BKN110,0.03,214.00,VWS V14.01,2013-10-21 19:27:00,
2013-10-21 15:28:00,48.8,39.8,29.66,North,349,0.0,0.0,71,0.00,,BKN110,0.03,199.00,VWS V14.01,2013-10-21 19:28:00,
2013-10-21 15:29:00,48.8,39.8,29.66,North,349,0.0,0.0,71,0.00,,BKN110,0.03,190.00,VWS V14.01,2013-10-21 19:29:00,
2013-10-21 15:30:00,48.9,39.9,29.66,North,5,0.0,0.0,71,0.00,,BKN110,0.03,176.00,VWS V14.01,2013-10-21 19:30:00,
2013-10-21 15:31:00,48.9,39.9,29.66,North,5,0.0,0.0,71,0.00,,BKN110,0.03,174.00,VWS V14.01,2013-10-21 19:31:00,
2013-10-21 15:32:00,48.9,39.9,29.66,North,5,0.0,0.0,71,0.00,,BKN110,0.03,171.00,VWS V14.01,2013-10-21 19:32:00,
2013-10-21 15:33:00,48.8,39.8,29.66,North,5,0.0,0.0,71,0.00,,BKN110,0.03,163.00,VWS V14.01,2013-10-21 19:33:00,
2013-10-21 15:34:00,48.8,39.8,29.66,North,5,0.0,0.0,71,0.00,,BKN110,0.03,156.00,VWS V14.01,2013-10-21 19:34:00,
2013-10-21 15:35:00,48.8,39.5,29.66,SSE,165,0.0,0.0,70,0.00,,BKN110,0.03,151.00,VWS V14.01,2013-10-21 19:35:00,
2013-10-21 15:36:00,48.8,39.5,29.66,ESE,107,0.0,0.0,70,0.00,,BKN110,0.03,163.00,VWS V14.01,2013-10-21 19:36:00,
2013-10-21 15:37:00,48.8,39.5,29.66,WSW,244,0.0,0.0,70,0.00,,BKN110,0.03,160.00,VWS V14.01,2013-10-21 19:37:00,
2013-10-21 15:38:00,48.8,39.5,29.66,WSW,244,0.0,0.0,70,0.00,,BKN110,0.03,153.00,VWS V14.01,2013-10-21 19:38:00,
2013-10-21 15:39:00,48.8,39.5,29.66,WSW,244,0.0,0.0,70,0.00,,BKN110,0.03,148.00,VWS V14.01,2013-10-21 19:39:00,
2013-10-21 15:40:00,48.8,39.5,29.66,ESE,102,1.0,0.0,70,0.00,,BKN110,0.03,137.00,VWS V14.01,2013-10-21 19:40:00,
2013-10-21 15:41:00,48.8,39.5,29.66,NNE,16,0.0,0.0,70,0.00,,BKN110,0.03,125.00,VWS V14.01,2013-10-21 19:41:00,
2013-10-21 15:42:00,48.6,39.3,29.66,NNE,16,0.0,0.0,70,0.00,,BKN110,0.03,95.00,VWS V14.01,2013-10-21 19:42:00,
2013-10-21 15:43:00,48.6,39.3,29.66,ENE,65,0.0,0.0,70,0.00,,BKN110,0.03,100.00,VWS V14.01,2013-10-21 19:43:00,
2013-10-21 15:44:00,48.6,39.3,29.66,ENE,65,1.0,0.0,70,0.00,,BKN110,0.03,95.00,VWS V14.01,2013-10-21 19:44:00,
2013-10-21 15:45:00,48.6,39.3,29.66,NNW,335,1.0,0.0,70,0.00,,BKN110,0.03,88.00,VWS V14.01,2013-10-21 19:45:00,
2013-10-21 15:46:00,48.6,38.9,29.66,NNW,335,0.0,0.0,69,0.00,,BKN110,0.03,107.00,VWS V14.01,2013-10-21 19:46:00,
2013-10-21 15:47:00,48.5,38.8,29.66,NNW,335,0.0,0.0,69,0.00,,BKN110,0.03,125.00,VWS V14.01,2013-10-21 19:47:00,
2013-10-21 15:48:00,48.5,38.8,29.66,West,279,0.0,0.0,69,0.00,,BKN110,0.03,123.00,VWS V14.01,2013-10-21 19:48:00,
2013-10-21 15:49:00,48.5,38.8,29.66,West,279,0.0,0.0,69,0.00,,BKN110,0.03,172.00,VWS V14.01,2013-10-21 19:49:00,
2013-10-21 15:50:00,48.5,38.8,29.66,West,276,0.0,0.0,69,0.00,,BKN110,0.03,153.00,VWS V14.01,2013-10-21 19:50:00,
2013-10-21 15:51:00,48.5,38.8,29.66,West,276,0.0,0.0,69,0.00,,BKN110,0.03,165.00,VWS V14.01,2013-10-21 19:51:00,
2013-10-21 15:52:00,48.5,39.2,29.66,SSW,196,0.0,0.0,70,0.00,,BKN110,0.03,165.00,VWS V14.01,2013-10-21 19:52:00,
2013-10-21 15:53:00,48.3,38.6,29.66,SW,222,1.0,0.0,69,0.00,,BKN110,0.03,167.00,VWS V14.01,2013-10-21 19:53:00,
2013-10-21 15:54:00,48.3,38.6,29.66,SW,225,1.0,0.0,69,0.00,,BKN110,0.03,158.00,VWS V14.01,2013-10-21 19:54:00,
2013-10-21 15:55:00,48.3,38.6,29.66,SW,235,0.0,0.0,69,0.00,,BKN110,0.03,155.00,VWS V14.01,2013-10-21 19:55:00,
2013-10-21 15:56:00,48.2,38.5,29.66,SW,235,0.0,0.0,69,0.00,,BKN110,0.03,123.00,VWS V14.01,2013-10-21 19:56:00,
2013-10-21 15:57:00,48.2,38.5,29.66,SW,236,0.0,0.0,69,0.00,,BKN110,0.03,125.00,VWS V14.01,2013-10-21 19:57:00,
2013-10-21 15:58:00,48.2,38.5,29.66,East,98,1.0,0.0,69,0.00,,BKN110,0.03,137.00,VWS V14.01,2013-10-21 19:58:00,
2013-10-21 15:59:00,48.2,38.2,29.66,ESE,111,0.0,0.0,68,0.00,,BKN110,0.03,130.00,VWS V14.01,2013-10-21 19:59:00,
2013-10-21 16:00:00,48.0,38.0,29.66,North,350,0.0,0.0,68,0.00,,BKN110,0.03,169.00,VWS V14.01,2013-10-21 20:00:00,
2013-10-21 16:01:00,48.0,38.0,29.66,North,350,0.0,0.0,68,0.00,,BKN110,0.03,165.00,VWS V14.01,2013-10-21 20:01:00,
2013-10-21 16:02:00,48.0,38.0,29.66,North,350,0.0,0.0,68,0.00,,BKN110,0.03,174.00,VWS V14.01,2013-10-21 20:02:00,
2013-10-21 16:03:00,48.0,38.3,29.66,North,350,0.0,0.0,69,0.00,,BKN110,0.03,169.00,VWS V14.01,2013-10-21 20:03:00,
2013-10-21 16:04:00,48.0,38.3,29.66,ENE,74,0.0,0.0,69,0.00,,BKN110,0.03,156.00,VWS V14.01,2013-10-21 20:04:00,
2013-10-21 16:05:00,47.9,37.9,29.66,ENE,69,0.0,0.0,68,0.00,,BKN110,0.03,149.00,VWS V14.01,2013-10-21 20:05:00,
2013-10-21 16:06:00,47.9,38.2,29.66,ENE,69,0.0,0.0,69,0.00,,BKN110,0.03,141.00,VWS V14.01,2013-10-21 20:06:00,
2013-10-21 16:07:00,47.9,37.9,29.66,West,271,1.0,0.0,68,0.00,,BKN110,0.03,132.00,VWS V14.01,2013-10-21 20:07:00,
2013-10-21 16:08:00,47.9,37.9,29.66,West,271,0.0,0.0,68,0.00,,BKN110,0.03,120.00,VWS V14.01,2013-10-21 20:08:00,
2013-10-21 16:09:00,47.9,37.9,29.66,West,271,0.0,0.0,68,0.00,,BKN110,0.03,116.00,VWS V14.01,2013-10-21 20:09:00,
2013-10-21 16:10:00,47.9,37.9,29.66,West,275,0.0,0.0,68,0.00,,BKN110,0.03,114.00,VWS V14.01,2013-10-21 20:10:00,
2013-10-21 16:11:00,47.7,37.7,29.66,West,275,0.0,0.0,68,0.00,,BKN110,0.03,120.00,VWS V14.01,2013-10-21 20:11:00,
2013-10-21 16:12:00,47.7,37.7,29.66,West,269,0.0,0.0,68,0.00,,BKN110,0.03,116.00,VWS V14.01,2013-10-21 20:12:00,
2013-10-21 16:13:00,47.7,37.7,29.66,West,269,0.0,0.0,68,0.00,,BKN110,0.03,102.00,VWS V14.01,2013-10-21 20:13:00,
2013-10-21 16:14:00,47.7,37.7,29.66,West,269,0.0,0.0,68,0.00,,BKN110,0.03,88.00,VWS V14.01,2013-10-21 20:14:00,
2013-10-21 16:15:00,47.7,37.7,29.67,SSE,161,0.0,0.0,68,0.00,,BKN110,0.03,83.00,VWS V14.01,2013-10-21 20:15:00,
2013-10-21 16:16:00,47.6,37.2,29.67,SSW,192,0.0,0.0,67,0.00,,BKN110,0.03,86.00,VWS V14.01,2013-10-21 20:16:00,
2013-10-21 16:17:00,47.6,36.8,29.67,West,262,1.0,0.0,66,0.00,,BKN110,0.03,90.00,VWS V14.01,2013-10-21 20:17:00,
2013-10-21 16:18:00,47.6,36.8,29.67,North,349,0.0,0.0,66,0.00,,BKN110,0.03,91.00,VWS V14.01,2013-10-21 20:18:00,
2013-10-21 16:19:00,47.4,37.0,29.67,North,349,0.0,0.0,67,0.00,,BKN110,0.03,90.00,VWS V14.01,2013-10-21 20:19:00,
2013-10-21 16:20:00,47.4,36.6,29.67,North,349,0.0,0.0,66,0.00,,BKN110,0.03,90.00,VWS V14.01,2013-10-21 20:20:00,
2013-10-21 16:21:00,47.4,36.6,29.67,NNW,332,0.0,0.0,66,0.00,,BKN110,0.03,88.00,VWS V14.01,2013-10-21 20:21:00,
2013-10-21 16:22:00,47.4,36.6,29.67,NNW,332,0.0,0.0,66,0.00,,BKN110,0.03,90.00,VWS V14.01,2013-10-21 20:22:00,
2013-10-21 16:23:00,47.4,36.6,29.67,ENE,59,0.0,0.0,66,0.00,,BKN110,0.03,93.00,VWS V14.01,2013-10-21 20:23:00,
2013-10-21 16:24:00,47.3,36.9,29.67,ENE,59,0.0,0.0,67,0.00,,BKN110,0.03,102.00,VWS V14.01,2013-10-21 20:24:00,
2013-10-21 16:25:00,47.3,36.9,29.67,ENE,59,0.0,0.0,67,0.00,,BKN110,0.03,100.00,VWS V14.01,2013-10-21 20:25:00,
2013-10-21 16:26:00,47.3,36.9,29.67,ENE,59,0.0,0.0,67,0.00,,BKN110,0.03,100.00,VWS V14.01,2013-10-21 20:26:00,
2013-10-21 16:27:00,47.3,36.9,29.67,ENE,59,0.0,0.0,67,0.00,,BKN110,0.03,100.00,VWS V14.01,2013-10-21 20:27:00,
2013-10-21 16:28:00,47.1,36.3,29.67,NNW,333,0.0,0.0,66,0.00,,BKN110,0.03,113.00,VWS V14.01,2013-10-21 20:28:00,
2013-10-21 16:29:00,47.1,36.3,29.67,ENE,73,0.0,0.0,66,0.00,,BKN110,0.03,98.00,VWS V14.01,2013-10-21 20:29:00,
2013-10-21 16:30:00,47.0,35.9,29.67,NE,53,0.0,0.0,65,0.00,,BKN110,0.03,90.00,VWS V14.01,2013-10-21 20:30:00,
2013-10-21 16:31:00,47.0,35.9,29.67,NW,305,0.0,0.0,65,0.00,,BKN110,0.03,79.00,VWS V14.01,2013-10-21 20:31:00,
2013-10-21 16:32:00,47.0,36.2,29.67,NW,304,0.0,0.0,66,0.00,,BKN110,0.03,63.00,VWS V14.01,2013-10-21 20:32:00,
2013-10-21 16:33:00,47.0,36.2,29.67,WNW,302,0.0,0.0,66,0.00,,BKN110,0.03,60.00,VWS V14.01,2013-10-21 20:33:00,
2013-10-21 16:34:00,47.0,36.2,29.67,WNW,302,0.0,0.0,66,0.00,,BKN110,0.03,70.00,VWS V14.01,2013-10-21 20:34:00,
2013-10-21 16:35:00,46.8,36.0,29.67,WNW,302,0.0,0.0,66,0.00,,BKN110,0.03,70.00,VWS V14.01,2013-10-21 20:35:00,
2013-10-21 16:36:00,46.8,36.0,29.67,WNW,302,0.0,0.0,66,0.00,,BKN110,0.03,90.00,VWS V14.01,2013-10-21 20:36:00,
2013-10-21 16:37:00,46.8,36.0,29.67,WSW,244,1.0,0.0,66,0.00,,BKN110,0.03,113.00,VWS V14.01,2013-10-21 20:37:00,
2013-10-21 16:38:00,46.8,36.0,29.67,West,277,1.0,0.0,66,0.00,,BKN110,0.03,120.00,VWS V14.01,2013-10-21 20:38:00,
2013-10-21 16:39:00,46.7,35.6,29.67,West,277,0.0,0.0,65,0.00,,BKN110,0.03,98.00,VWS V14.01,2013-10-21 20:39:00,
2013-10-21 16:40:00,46.7,36.0,29.67,West,277,0.0,0.0,66,0.00,,BKN110,0.03,77.00,VWS V14.01,2013-10-21 20:40:00,
2013-10-21 16:41:00,46.7,36.0,29.67,SE,140,0.0,0.0,66,0.00,,BKN110,0.03,76.00,VWS V14.01,2013-10-21 20:41:00,
2013-10-21 16:42:00,46.7,35.6,29.67,ESE,107,2.0,0.0,65,0.00,,BKN110,0.03,83.00,VWS V14.01,2013-10-21 20:42:00,
2013-10-21 16:43:00,46.5,35.4,29.67,NE,56,0.0,0.0,65,0.00,,BKN110,0.03,88.00,VWS V14.01,2013-10-21 20:43:00,
2013-10-21 16:44:00,46.5,35.4,29.67,NE,56,0.0,0.0,65,0.00,,BKN110,0.03,91.00,VWS V14.01,2013-10-21 20:44:00,
2013-10-21 16:45:00,46.5,35.4,29.67,NE,56,0.0,0.0,65,0.00,,BKN110,0.03,81.00,VWS V14.01,2013-10-21 20:45:00,
2013-10-21 16:46:00,46.5,35.8,29.67,NE,56,0.0,0.0,66,0.00,,BKN110,0.03,72.00,VWS V14.01,2013-10-21 20:46:00,
2013-10-21 16:47:00,46.5,35.8,29.67,NE,56,0.0,0.0,66,0.00,,BKN110,0.03,72.00,VWS V14.01,2013-10-21 20:47:00,
2013-10-21 16:48:00,46.5,35.8,29.67,NE,56,0.0,0.0,66,0.00,,BKN110,0.03,72.00,VWS V14.01,2013-10-21 20:48:00,
2013-10-21 16:49:00,46.5,35.8,29.67,NE,56,0.0,0.0,66,0.00,,BKN110,0.03,72.00,VWS V14.01,2013-10-21 20:49:00,
2013-10-21 16:50:00,46.5,35.8,29.67,NE,56,0.0,0.0,66,0.00,,BKN110,0.03,65.00,VWS V14.01,2013-10-21 20:50:00,
2013-10-21 16:51:00,46.4,35.7,29.67,NE,56,0.0,0.0,66,0.00,,BKN110,0.03,54.00,VWS V14.01,2013-10-21 20:51:00,
2013-10-21 16:52:00,46.4,36.0,29.67,NE,56,0.0,0.0,67,0.00,,BKN110,0.03,39.00,VWS V14.01,2013-10-21 20:52:00,
2013-10-21 16:53:00,46.4,36.0,29.67,NE,56,0.0,0.0,67,0.00,,BKN110,0.03,44.00,VWS V14.01,2013-10-21 20:53:00,
2013-10-21 16:54:00,46.4,36.0,29.67,SW,220,0.0,0.0,67,0.00,,BKN110,0.03,44.00,VWS V14.01,2013-10-21 20:54:00,
2013-10-21 16:55:00,46.4,36.0,29.67,NW,322,1.0,0.0,67,0.00,,BKN110,0.03,44.00,VWS V14.01,2013-10-21 20:55:00,
2013-10-21 16:56:00,46.4,36.0,29.67,NW,322,1.0,0.0,67,0.00,,BKN110,0.03,44.00,VWS V14.01,2013-10-21 20:56:00,
2013-10-21 16:57:00,46.2,35.5,29.67,WSW,245,2.0,0.0,66,0.00,,BKN110,0.03,44.00,VWS V14.01,2013-10-21 20:57:00,
2013-10-21 16:58:00,46.2,35.5,29.67,WSW,246,0.0,0.0,66,0.00,,BKN110,0.03,30.00,VWS V14.01,2013-10-21 20:58:00,
2013-10-21 16:59:00,46.2,35.5,29.67,WSW,246,0.0,0.0,66,0.00,,BKN110,0.03,35.00,VWS V14.01,2013-10-21 20:59:00,
2013-10-21 17:00:00,46.1,35.4,29.67,WSW,246,0.0,0.0,66,0.00,,BKN110,0.03,37.00,VWS V14.01,2013-10-21 21:00:00,
2013-10-21 17:01:00,46.1,35.8,29.67,WSW,246,0.0,0.0,67,0.00,,BKN110,0.03,44.00,VWS V14.01,2013-10-21 21:01:00,
2013-10-21 17:02:00,46.1,35.8,29.67,WSW,246,0.0,0.0,67,0.00,,BKN110,0.03,39.00,VWS V14.01,2013-10-21 21:02:00,
2013-10-21 17:03:00,46.1,35.8,29.67,WSW,246,0.0,0.0,67,0.00,,BKN110,0.03,35.00,VWS V14.01,2013-10-21 21:03:00,
2013-10-21 17:04:00,46.1,35.8,29.67,WSW,246,0.0,0.0,67,0.00,,BKN110,0.03,32.00,VWS V14.01,2013-10-21 21:04:00,
2013-10-21 17:05:00,46.0,35.7,29.67,WSW,246,0.0,0.0,67,0.00,,BKN110,0.03,32.00,VWS V14.01,2013-10-21 21:05:00,
2013-10-21 17:06:00,46.0,35.7,29.67,WSW,246,0.0,0.0,67,0.00,,BKN110,0.03,32.00,VWS V14.01,2013-10-21 21:06:00,
2013-10-21 17:07:00,46.0,36.0,29.67,WSW,246,0.0,0.0,68,0.00,,BKN110,0.03,32.00,VWS V14.01,2013-10-21 21:07:00,
2013-10-21 17:08:00,46.0,36.0,29.67,WSW,246,0.0,0.0,68,0.00,,BKN110,0.03,32.00,VWS V14.01,2013-10-21 21:08:00,
2013-10-21 17:09:00,46.0,36.0,29.67,WSW,246,0.0,0.0,68,0.00,,BKN110,0.03,32.00,VWS V14.01,2013-10-21 21:09:00,
2013-10-21 17:10:00,46.0,36.0,29.67,WSW,246,0.0,0.0,68,0.00,,BKN110,0.03,32.00,VWS V14.01,2013-10-21 21:10:00,
2013-10-21 17:11:00,45.8,35.8,29.67,NNE,13,0.0,0.0,68,0.00,,BKN110,0.03,32.00,VWS V14.01,2013-10-21 21:11:00,
2013-10-21 17:12:00,45.8,35.5,29.67,NNE,13,0.0,0.0,67,0.00,,BKN110,0.03,28.00,VWS V14.01,2013-10-21 21:12:00,
2013-10-21 17:13:00,45.8,35.5,29.67,NNE,13,0.0,0.0,67,0.00,,BKN110,0.03,26.00,VWS V14.01,2013-10-21 21:13:00,
2013-10-21 17:14:00,45.8,35.8,29.67,NNE,13,0.0,0.0,68,0.00,,BKN110,0.03,28.00,VWS V14.01,2013-10-21 21:14:00,
2013-10-21 17:15:00,45.7,35.8,29.67,NNE,13,0.0,0.0,68,0.00,,BKN110,0.03,26.00,VWS V14.01,2013-10-21 21:15:00,
2013-10-21 17:16:00,45.7,35.8,29.67,East,98,0.0,0.0,68,0.00,,BKN110,0.03,30.00,VWS V14.01,2013-10-21 21:16:00,
2013-10-21 17:17:00,45.7,35.8,29.67,East,98,0.0,0.0,68,0.00,,BKN110,0.03,30.00,VWS V14.01,2013-10-21 21:17:00,
2013-10-21 17:18:00,45.7,35.8,29.67,East,98,0.0,0.0,68,0.00,,BKN110,0.03,32.00,VWS V14.01,2013-10-21 21:18:00,
2013-10-21 17:19:00,45.7,35.8,29.67,East,98,0.0,0.0,68,0.00,,BKN110,0.03,26.00,VWS V14.01,2013-10-21 21:19:00,
2013-10-21 17:20:00,45.5,35.6,29.67,NE,52,2.0,0.0,68,0.00,,BKN110,0.03,25.00,VWS V14.01,2013-10-21 21:20:00,
2013-10-21 17:21:00,45.5,35.6,29.67,NNE,27,0.0,0.0,68,0.00,,BKN110,0.03,23.00,VWS V14.01,2013-10-21 21:21:00,
2013-10-21 17:22:00,45.5,35.6,29.67,NNE,27,0.0,0.0,68,0.00,,BKN110,0.03,23.00,VWS V14.01,2013-10-21 21:22:00,
2013-10-21 17:23:00,45.4,35.5,29.67,NNE,27,0.0,0.0,68,0.00,,BKN110,0.03,28.00,VWS V14.01,2013-10-21 21:23:00,
2013-10-21 17:24:00,45.4,35.5,29.67,NNE,27,0.0,0.0,68,0.00,,BKN110,0.03,33.00,VWS V14.01,2013-10-21 21:24:00,
2013-10-21 17:25:00,45.4,35.5,29.67,NNE,27,0.0,0.0,68,0.00,,BKN110,0.03,39.00,VWS V14.01,2013-10-21 21:25:00,
2013-10-21 17:26:00,45.4,35.5,29.67,NNE,27,0.0,0.0,68,0.00,,BKN110,0.03,42.00,VWS V14.01,2013-10-21 21:26:00,
2013-10-21 17:27:00,45.2,35.3,29.67,NNE,27,0.0,0.0,68,0.00,,BKN110,0.03,42.00,VWS V14.01,2013-10-21 21:27:00,
2013-10-21 17:28:00,45.2,35.3,29.67,NNE,27,0.0,0.0,68,0.00,,BKN110,0.03,33.00,VWS V14.01,2013-10-21 21:28:00,
2013-10-21 17:29:00,45.2,35.3,29.67,NNE,27,0.0,0.0,68,0.00,,BKN110,0.03,30.00,VWS V14.01,2013-10-21 21:29:00,
2013-10-21 17:30:00,45.2,35.3,29.68,NNE,27,0.0,0.0,68,0.00,,BKN110,0.03,28.00,VWS V14.01,2013-10-21 21:30:00,
2013-10-21 17:31:00,45.2,35.3,29.68,NNE,27,0.0,0.0,68,0.00,,BKN110,0.03,26.00,VWS V14.01,2013-10-21 21:31:00,
2013-10-21 17:32:00,45.2,35.3,29.68,NNE,27,0.0,0.0,68,0.00,,BKN110,0.03,28.00,VWS V14.01,2013-10-21 21:32:00,
2013-10-21 17:33:00,45.1,35.2,29.68,NNE,27,0.0,0.0,68,0.00,,BKN110,0.03,35.00,VWS V14.01,2013-10-21 21:33:00,
2013-10-21 17:34:00,45.1,35.2,29.68,NNE,27,0.0,0.0,68,0.00,,BKN110,0.03,44.00,VWS V14.01,2013-10-21 21:34:00,
2013-10-21 17:35:00,45.1,35.2,29.68,NNE,27,0.0,0.0,68,0.00,,BKN110,0.03,40.00,VWS V14.01,2013-10-21 21:35:00,
2013-10-21 17:36:00,45.1,35.2,29.68,NNE,27,0.0,0.0,68,0.00,,BKN110,0.03,35.00,VWS V14.01,2013-10-21 21:36:00,
2013-10-21 17:37:00,45.1,35.2,29.68,NNE,27,0.0,0.0,68,0.00,,BKN110,0.03,30.00,VWS V14.01,2013-10-21 21:37:00,
2013-10-21 17:38:00,45.1,35.2,29.68,NNE,27,0.0,0.0,68,0.00,,BKN110,0.03,28.00,VWS V14.01,2013-10-21 21:38:00,
2013-10-21 17:39:00,44.9,35.0,29.68,NNE,27,0.0,0.0,68,0.00,,BKN110,0.03,25.00,VWS V14.01,2013-10-21 21:39:00,
2013-10-21 17:40:00,44.9,35.0,29.68,NNE,27,0.0,0.0,68,0.00,,BKN110,0.03,28.00,VWS V14.01,2013-10-21 21:40:00,
2013-10-21 17:41:00,44.9,35.0,29.68,NNE,27,0.0,0.0,68,0.00,,BKN110,0.03,28.00,VWS V14.01,2013-10-21 21:41:00,
2013-10-21 17:42:00,44.9,35.0,29.68,NNE,27,0.0,0.0,68,0.00,,BKN110,0.03,30.00,VWS V14.01,2013-10-21 21:42:00,
2013-10-21 17:43:00,44.9,35.0,29.68,NNE,27,1.0,0.0,68,0.00,,BKN110,0.03,33.00,VWS V14.01,2013-10-21 21:43:00,
2013-10-21 17:44:00,44.9,35.0,29.68,NNE,27,0.0,0.0,68,0.00,,BKN110,0.03,35.00,VWS V14.01,2013-10-21 21:44:00,
2013-10-21 17:45:00,44.9,35.4,29.68,NNE,27,0.0,0.0,69,0.00,,BKN110,0.03,40.00,VWS V14.01,2013-10-21 21:45:00,
2013-10-21 17:46:00,44.8,35.3,29.68,NNE,27,0.0,0.0,69,0.00,,BKN110,0.03,44.00,VWS V14.01,2013-10-21 21:46:00,
2013-10-21 17:47:00,44.8,35.3,29.68,NNE,27,0.0,0.0,69,0.00,,BKN110,0.03,44.00,VWS V14.01,2013-10-21 21:47:00,
2013-10-21 17:48:00,44.8,35.3,29.68,NNE,27,0.0,0.0,69,0.00,,BKN110,0.03,47.00,VWS V14.01,2013-10-21 21:48:00,
2013-10-21 17:49:00,44.8,35.3,29.68,NNE,27,0.0,0.0,69,0.00,,BKN110,0.03,49.00,VWS V14.01,2013-10-21 21:49:00,
2013-10-21 17:50:00,44.6,35.1,29.68,NNE,27,0.0,0.0,69,0.00,,BKN110,0.03,47.00,VWS V14.01,2013-10-21 21:50:00,
2013-10-21 17:51:00,44.6,35.1,29.68,NNE,27,0.0,0.0,69,0.00,,BKN110,0.03,39.00,VWS V14.01,2013-10-21 21:51:00,
2013-10-21 17:52:00,44.6,35.4,29.68,NNE,27,0.0,0.0,70,0.00,,BKN110,0.03,35.00,VWS V14.01,2013-10-21 21:52:00,
2013-10-21 17:53:00,44.6,35.4,29.68,NNE,27,0.0,0.0,70,0.00,,BKN110,0.03,32.00,VWS V14.01,2013-10-21 21:53:00,
2013-10-21 17:54:00,44.6,35.4,29.68,NNE,27,0.0,0.0,70,0.00,,BKN110,0.03,28.00,VWS V14.01,2013-10-21 21:54:00,
2013-10-21 17:55:00,44.6,35.4,29.68,NNE,27,0.0,0.0,70,0.00,,BKN110,0.03,28.00,VWS V14.01,2013-10-21 21:55:00,
2013-10-21 17:56:00,44.6,35.4,29.68,NNE,27,0.0,0.0,70,0.00,,BKN110,0.03,32.00,VWS V14.01,2013-10-21 21:56:00,
2013-10-21 17:57:00,44.6,35.8,29.68,NNE,27,0.0,0.0,71,0.00,,BKN110,0.03,33.00,VWS V14.01,2013-10-21 21:57:00,
2013-10-21 17:58:00,44.6,35.8,29.68,NNE,27,0.0,0.0,71,0.00,,BKN110,0.03,32.00,VWS V14.01,2013-10-21 21:58:00,
2013-10-21 17:59:00,44.6,35.8,29.68,NNE,27,0.0,0.0,71,0.00,,BKN110,0.03,28.00,VWS V14.01,2013-10-21 21:59:00,
2013-10-21 18:00:00,44.5,35.7,29.68,NNE,27,0.0,0.0,71,0.00,,BKN110,0.03,26.00,VWS V14.01,2013-10-21 22:00:00,
2013-10-21 18:01:00,44.5,35.7,29.68,NNE,27,0.0,0.0,71,0.00,,BKN110,0.03,25.00,VWS V14.01,2013-10-21 22:01:00,
2013-10-21 18:02:00,44.5,35.7,29.68,NNE,27,0.0,0.0,71,0.00,,BKN110,0.03,23.00,VWS V14.01,2013-10-21 22:02:00,
2013-10-21 18:03:00,44.5,35.7,29.68,NNE,27,0.0,0.0,71,0.00,,BKN110,0.03,23.00,VWS V14.01,2013-10-21 22:03:00,
2013-10-21 18:04:00,44.5,35.7,29.68,NNE,27,0.0,0.0,71,0.00,,BKN110,0.03,23.00,VWS V14.01,2013-10-21 22:04:00,
2013-10-21 18:05:00,44.5,35.7,29.68,NNE,27,0.0,0.0,71,0.00,,BKN110,0.03,21.00,VWS V14.01,2013-10-21 22:05:00,
2013-10-21 18:06:00,44.5,35.7,29.68,NNE,27,0.0,0.0,71,0.00,,BKN110,0.03,19.00,VWS V14.01,2013-10-21 22:06:00,
2013-10-21 18:07:00,44.5,35.7,29.68,NNE,27,0.0,0.0,71,0.00,,BKN110,0.03,18.00,VWS V14.01,2013-10-21 22:07:00,
2013-10-21 18:08:00,44.3,35.5,29.68,NNE,27,0.0,0.0,71,0.00,,BKN110,0.03,16.00,VWS V14.01,2013-10-21 22:08:00,
2013-10-21 18:09:00,44.3,35.5,29.68,NNE,27,0.0,0.0,71,0.00,,BKN110,0.03,16.00,VWS V14.01,2013-10-21 22:09:00,
2013-10-21 18:10:00,44.3,35.5,29.68,NNE,27,0.0,0.0,71,0.00,,BKN110,0.03,14.00,VWS V14.01,2013-10-21 22:10:00,
2013-10-21 18:11:00,44.3,35.9,29.68,NNE,27,0.0,0.0,72,0.00,,BKN110,0.03,14.00,VWS V14.01,2013-10-21 22:11:00,
2013-10-21 18:12:00,44.3,35.9,29.68,NNE,27,0.0,0.0,72,0.00,,BKN110,0.03,16.00,VWS V14.01,2013-10-21 22:12:00,
2013-10-21 18:13:00,44.3,35.9,29.68,NNE,27,0.0,0.0,72,0.00,,BKN110,0.03,16.00,VWS V14.01,2013-10-21 22:13:00,
2013-10-21 18:14:00,44.3,35.9,29.68,NNE,27,0.0,0.0,72,0.00,,BKN110,0.03,16.00,VWS V14.01,2013-10-21 22:14:00,
2013-10-21 18:15:00,44.2,35.8,29.68,NNE,27,0.0,0.0,72,0.00,,BKN110,0.03,18.00,VWS V14.01,2013-10-21 22:15:00,
2013-10-21 18:16:00,44.2,35.8,29.68,NNE,27,0.0,0.0,72,0.00,,BKN110,0.03,16.00,VWS V14.01,2013-10-21 22:16:00,
2013-10-21 18:17:00,44.2,35.8,29.68,NNE,27,0.0,0.0,72,0.00,,BKN110,0.03,16.00,VWS V14.01,2013-10-21 22:17:00,
2013-10-21 18:18:00,44.2,35.8,29.68,NNE,27,0.0,0.0,72,0.00,,BKN110,0.03,14.00,VWS V14.01,2013-10-21 22:18:00,
2013-10-21 18:19:00,44.2,35.8,29.68,NNE,27,0.0,0.0,72,0.00,,BKN110,0.03,11.00,VWS V14.01,2013-10-21 22:19:00,
2013-10-21 18:20:00,44.2,35.8,29.68,NNE,27,0.0,0.0,72,0.00,,BKN110,0.03,11.00,VWS V14.01,2013-10-21 22:20:00,
2013-10-21 18:21:00,44.1,35.7,29.68,NNE,27,0.0,0.0,72,0.00,,BKN110,0.03,9.00,VWS V14.01,2013-10-21 22:21:00,
2013-10-21 18:22:00,44.1,35.7,29.68,NNE,27,0.0,0.0,72,0.00,,BKN110,0.03,9.00,VWS V14.01,2013-10-21 22:22:00,
2013-10-21 18:23:00,44.1,35.7,29.68,NNE,27,0.0,0.0,72,0.00,,BKN110,0.03,9.00,VWS V14.01,2013-10-21 22:23:00,
2013-10-21 18:24:00,44.1,35.7,29.68,NNE,27,0.0,0.0,72,0.00,,BKN110,0.03,9.00,VWS V14.01,2013-10-21 22:24:00,
2013-10-21 18:25:00,44.1,35.7,29.68,NNE,27,0.0,0.0,72,0.00,,BKN110,0.03,9.00,VWS V14.01,2013-10-21 22:25:00,
2013-10-21 18:26:00,43.9,35.5,29.68,NNE,27,0.0,0.0,72,0.00,,BKN110,0.03,9.00,VWS V14.01,2013-10-21 22:26:00,
2013-10-21 18:27:00,43.9,35.5,29.68,NNE,27,0.0,0.0,72,0.00,,BKN110,0.03,9.00,VWS V14.01,2013-10-21 22:27:00,
2013-10-21 18:28:00,43.9,35.5,29.68,NNE,27,0.0,0.0,72,0.00,,BKN110,0.03,7.00,VWS V14.01,2013-10-21 22:28:00,
2013-10-21 18:29:00,43.9,35.5,29.68,NNE,27,0.0,0.0,72,0.00,,BKN110,0.03,7.00,VWS V14.01,2013-10-21 22:29:00,
2013-10-21 18:30:00,43.9,35.5,29.68,NNE,27,0.0,0.0,72,0.00,,BKN110,0.03,5.00,VWS V14.01,2013-10-21 22:30:00,
2013-10-21 18:31:00,43.8,35.4,29.68,NNE,27,0.0,0.0,72,0.00,,BKN110,0.03,5.00,VWS V14.01,2013-10-21 22:31:00,
2013-10-21 18:32:00,43.8,35.4,29.68,NNE,27,0.0,0.0,72,0.00,,BKN110,0.03,5.00,VWS V14.01,2013-10-21 22:32:00,
2013-10-21 18:33:00,43.8,35.4,29.68,NNE,27,0.0,0.0,72,0.00,,BKN110,0.03,5.00,VWS V14.01,2013-10-21 22:33:00,
2013-10-21 18:34:00,43.8,35.4,29.68,NNE,27,0.0,0.0,72,0.00,,BKN110,0.03,5.00,VWS V14.01,2013-10-21 22:34:00,
2013-10-21 18:35:00,43.6,35.2,29.68,NNE,27,0.0,0.0,72,0.00,,BKN110,0.03,0.00,VWS V14.01,2013-10-21 22:35:00,
2013-10-21 18:36:00,43.6,35.2,29.68,NNE,27,0.0,0.0,72,0.00,,BKN110,0.03,0.00,VWS V14.01,2013-10-21 22:36:00,
2013-10-21 18:37:00,43.6,35.2,29.68,NNE,27,0.0,0.0,72,0.00,,BKN110,0.03,0.00,VWS V14.01,2013-10-21 22:37:00,
2013-10-21 18:38:00,43.6,35.2,29.68,NNE,27,0.0,0.0,72,0.00,,BKN110,0.03,0.00,VWS V14.01,2013-10-21 22:38:00,
2013-10-21 18:39:00,43.5,35.1,29.68,NNE,27,0.0,0.0,72,0.00,,BKN110,0.03,0.00,VWS V14.01,2013-10-21 22:39:00,
2013-10-21 18:40:00,43.5,35.1,29.68,NNE,27,0.0,0.0,72,0.00,,BKN110,0.03,0.00,VWS V14.01,2013-10-21 22:40:00,
2013-10-21 18:41:00,43.5,35.1,29.68,NNE,27,0.0,0.0,72,0.00,,BKN110,0.03,0.00,VWS V14.01,2013-10-21 22:41:00,
2013-10-21 18:42:00,43.5,35.1,29.68,NNE,27,0.0,0.0,72,0.00,,BKN110,0.03,0.00,VWS V14.01,2013-10-21 22:42:00,
2013-10-21 18:43:00,43.5,35.1,29.68,NNE,27,0.0,0.0,72,0.00,,BKN110,0.03,0.00,VWS V14.01,2013-10-21 22:43:00,
2013-10-21 18:44:00,43.5,35.1,29.68,NNE,27,0.0,0.0,72,0.00,,BKN110,0.03,0.00,VWS V14.01,2013-10-21 22:44:00,
2013-10-21 18:45:00,43.3,34.9,29.69,NNE,27,0.0,0.0,72,0.00,,BKN110,0.03,0.00,VWS V14.01,2013-10-21 22:45:00,
2013-10-21 18:46:00,43.3,35.2,29.69,NNE,27,0.0,0.0,73,0.00,,BKN110,0.03,0.00,VWS V14.01,2013-10-21 22:46:00,
2013-10-21 18:47:00,43.3,35.2,29.69,NNE,27,0.0,0.0,73,0.00,,BKN110,0.03,0.00,VWS V14.01,2013-10-21 22:47:00,
2013-10-21 18:48:00,43.3,35.2,29.69,NNE,27,0.0,0.0,73,0.00,,BKN110,0.03,0.00,VWS V14.01,2013-10-21 22:48:00,
2013-10-21 18:49:00,43.3,35.2,29.69,NNE,27,0.0,0.0,73,0.00,,BKN110,0.03,0.00,VWS V14.01,2013-10-21 22:49:00,
2013-10-21 18:50:00,43.3,35.2,29.69,NNE,27,0.0,0.0,73,0.00,,BKN110,0.03,0.00,VWS V14.01,2013-10-21 22:50:00,
2013-10-21 18:51:00,43.2,35.5,29.69,NNE,27,0.0,0.0,74,0.00,,BKN110,0.03,0.00,VWS V14.01,2013-10-21 22:51:00,
2013-10-21 18:52:00,43.2,35.5,29.69,NNE,27,0.0,0.0,74,0.00,,BKN110,0.03,0.00,VWS V14.01,2013-10-21 22:52:00,
2013-10-21 18:53:00,43.2,35.5,29.69,NNE,27,0.0,0.0,74,0.00,,BKN110,0.03,0.00,VWS V14.01,2013-10-21 22:53:00,
2013-10-21 18:54:00,43.2,35.5,29.69,NNE,27,0.0,0.0,74,0.00,,BKN110,0.03,0.00,VWS V14.01,2013-10-21 22:54:00,
2013-10-21 18:55:00,43.2,35.5,29.69,NNE,27,0.0,0.0,74,0.00,,BKN110,0.03,0.00,VWS V14.01,2013-10-21 22:55:00,
2013-10-21 18:56:00,43.1,35.4,29.69,NNE,27,0.0,0.0,74,0.00,,BKN110,0.03,0.00,VWS V14.01,2013-10-21 22:56:00,
2013-10-21 18:57:00,43.1,35.4,29.69,NNE,27,0.0,0.0,74,0.00,,BKN110,0.03,0.00,VWS V14.01,2013-10-21 22:57:00,
2013-10-21 18:58:00,43.1,35.4,29.69,NNE,27,0.0,0.0,74,0.00,,BKN110,0.03,0.00,VWS V14.01,2013-10-21 22:58:00,
2013-10-21 18:59:00,43.1,35.4,29.69,NNE,27,0.0,0.0,74,0.00,,BKN110,0.03,0.00,VWS V14.01,2013-10-21 22:59:00,
2013-10-21 19:00:00,43.1,35.4,29.69,NNE,27,0.0,0.0,74,0.00,,BKN110,0.03,0.00,VWS V14.01,2013-10-21 23:00:00,
2013-10-21 19:01:00,43.1,35.4,29.69,NNE,27,0.0,0.0,74,0.00,,BKN110,0.03,0.00,VWS V14.01,2013-10-21 23:01:00,
2013-10-21 19:02:00,43.1,35.4,29.69,NNE,27,0.0,0.0,74,0.00,,BKN110,0.03,0.00,VWS V14.01,2013-10-21 23:02:00,
2013-10-21 19:03:00,42.9,35.2,29.69,NNE,27,0.0,0.0,74,0.00,,BKN110,0.03,0.00,VWS V14.01,2013-10-21 23:03:00,
2013-10-21 19:04:00,42.9,35.2,29.69,NNE,27,0.0,0.0,74,0.00,,BKN110,0.03,0.00,VWS V14.01,2013-10-21 23:04:00,
2013-10-21 19:05:00,42.9,35.5,29.69,NNE,27,0.0,0.0,75,0.00,,BKN110,0.03,0.00,VWS V14.01,2013-10-21 23:05:00,
2013-10-21 19:06:00,42.9,35.5,29.69,NNE,27,0.0,0.0,75,0.00,,BKN110,0.03,0.00,VWS V14.01,2013-10-21 23:06:00,
2013-10-21 19:07:00,42.9,35.5,29.69,NNE,27,0.0,0.0,75,0.00,,BKN110,0.03,0.00,VWS V14.01,2013-10-21 23:07:00,
2013-10-21 19:08:00,42.9,35.5,29.69,NNE,27,0.0,0.0,75,0.00,,BKN110,0.03,0.00,VWS V14.01,2013-10-21 23:08:00,
2013-10-21 19:09:00,42.9,35.5,29.69,NNE,27,0.0,0.0,75,0.00,,BKN110,0.03,0.00,VWS V14.01,2013-10-21 23:09:00,
2013-10-21 19:10:00,42.9,35.5,29.69,NNE,27,0.0,0.0,75,0.00,,BKN110,0.03,0.00,VWS V14.01,2013-10-21 23:10:00,
2013-10-21 19:11:00,42.8,35.4,29.69,NNE,27,0.0,0.0,75,0.00,,BKN110,0.03,0.00,VWS V14.01,2013-10-21 23:11:00,
2013-10-21 19:12:00,42.8,35.8,29.69,NNE,27,0.0,0.0,76,0.00,,BKN110,0.03,0.00,VWS V14.01,2013-10-21 23:12:00,
2013-10-21 19:13:00,42.8,35.8,29.69,NNE,27,0.0,0.0,76,0.00,,BKN110,0.03,0.00,VWS V14.01,2013-10-21 23:13:00,
2013-10-21 19:14:00,42.8,35.8,29.69,NNE,27,0.0,0.0,76,0.00,,BKN110,0.03,0.00,VWS V14.01,2013-10-21 23:14:00,
2013-10-21 19:15:00,42.8,35.8,29.70,NNE,27,0.0,0.0,76,0.00,,BKN110,0.03,0.00,VWS V14.01,2013-10-21 23:15:00,
2013-10-21 19:16:00,42.8,35.8,29.70,NNE,27,0.0,0.0,76,0.00,,BKN110,0.03,0.00,VWS V14.01,2013-10-21 23:16:00,
2013-10-21 19:17:00,42.8,35.8,29.70,NNE,27,0.0,0.0,76,0.00,,BKN110,0.03,0.00,VWS V14.01,2013-10-21 23:17:00,
2013-10-21 19:18:00,42.8,35.8,29.70,NNE,27,0.0,0.0,76,0.00,,BKN110,0.03,0.00,VWS V14.01,2013-10-21 23:18:00,
2013-10-21 19:19:00,42.8,35.8,29.70,NNE,27,0.0,0.0,76,0.00,,BKN110,0.03,0.00,VWS V14.01,2013-10-21 23:19:00,
2013-10-21 19:20:00,42.6,35.6,29.70,NNE,27,0.0,0.0,76,0.00,,BKN110,0.03,0.00,VWS V14.01,2013-10-21 23:20:00,
2013-10-21 19:21:00,42.6,35.6,29.70,NNE,27,0.0,0.0,76,0.00,,BKN110,0.03,0.00,VWS V14.01,2013-10-21 23:21:00,
2013-10-21 19:22:00,42.6,35.6,29.70,NNE,27,0.0,0.0,76,0.00,,BKN110,0.03,0.00,VWS V14.01,2013-10-21 23:22:00,
2013-10-21 19:23:00,42.6,35.6,29.70,WNW,286,0.0,0.0,76,0.00,,BKN110,0.03,0.00,VWS V14.01,2013-10-21 23:23:00,
2013-10-21 19:24:00,42.6,35.9,29.70,SW,220,1.0,0.0,77,0.00,,BKN110,0.03,0.00,VWS V14.01,2013-10-21 23:24:00,
2013-10-21 19:25:00,42.6,35.9,29.70,SSW,202,0.0,0.0,77,0.00,,BKN110,0.03,0.00,VWS V14.01,2013-10-21 23:25:00,
2013-10-21 19:26:00,42.6,35.6,29.70,SSW,202,0.0,0.0,76,0.00,,BKN110,0.03,0.00,VWS V14.01,2013-10-21 23:26:00,
2013-10-21 19:27:00,42.6,35.6,29.70,SSW,202,0.0,0.0,76,0.00,,BKN110,0.03,0.00,VWS V14.01,2013-10-21 23:27:00,
2013-10-21 19:28:00,42.6,35.6,29.70,SSW,202,0.0,0.0,76,0.00,,BKN110,0.03,0.00,VWS V14.01,2013-10-21 23:28:00,
2013-10-21 19:29:00,42.5,35.5,29.70,SSW,197,0.0,0.0,76,0.00,,BKN110,0.03,0.00,VWS V14.01,2013-10-21 23:29:00,
2013-10-21 19:30:00,42.5,35.5,29.70,SSW,192,0.0,0.0,76,0.00,,BKN110,0.03,0.00,VWS V14.01,2013-10-21 23:30:00,
2013-10-21 19:31:00,42.5,35.5,29.70,SSW,192,0.0,0.0,76,0.00,,BKN110,0.03,0.00,VWS V14.01,2013-10-21 23:31:00,
2013-10-21 19:32:00,42.5,35.5,29.70,SSW,192,0.0,0.0,76,0.00,,BKN110,0.03,0.00,VWS V14.01,2013-10-21 23:32:00,
2013-10-21 19:33:00,42.5,35.5,29.70,SSW,192,0.0,0.0,76,0.00,,BKN110,0.03,0.00,VWS V14.01,2013-10-21 23:33:00,
2013-10-21 19:34:00,42.5,35.5,29.70,SSE,157,1.0,0.0,76,0.00,,BKN110,0.03,0.00,VWS V14.01,2013-10-21 23:34:00,
2013-10-21 19:35:00,42.5,35.2,29.70,South,172,0.0,0.0,75,0.00,,BKN110,0.03,0.00,VWS V14.01,2013-10-21 23:35:00,
2013-10-21 19:36:00,42.5,34.8,29.70,South,172,0.0,0.0,74,0.00,,BKN110,0.03,0.00,VWS V14.01,2013-10-21 23:36:00,
2013-10-21 19:37:00,42.5,34.8,29.70,South,172,0.0,0.0,74,0.00,,BKN110,0.03,0.00,VWS V14.01,2013-10-21 23:37:00,
2013-10-21 19:38:00,42.5,34.8,29.70,South,172,0.0,0.0,74,0.00,,BKN110,0.03,0.00,VWS V14.01,2013-10-21 23:38:00,
2013-10-21 19:39:00,42.5,34.8,29.70,South,172,0.0,0.0,74,0.00,,BKN110,0.03,0.00,VWS V14.01,2013-10-21 23:39:00,
2013-10-21 19:40:00,42.5,34.8,29.70,South,173,0.0,0.0,74,0.00,,BKN110,0.03,0.00,VWS V14.01,2013-10-21 23:40:00,
2013-10-21 19:41:00,42.5,34.8,29.70,South,173,0.0,0.0,74,0.00,,BKN110,0.03,0.00,VWS V14.01,2013-10-21 23:41:00,
2013-10-21 19:42:00,42.5,34.8,29.70,South,173,0.0,0.0,74,0.00,,BKN110,0.03,0.00,VWS V14.01,2013-10-21 23:42:00,
2013-10-21 19:43:00,42.5,34.8,29.70,South,173,0.0,0.0,74,0.00,,BKN110,0.03,0.00,VWS V14.01,2013-10-21 23:43:00,
2013-10-21 19:44:00,42.5,34.8,29.70,SSE,162,0.0,0.0,74,0.00,,BKN110,0.03,0.00,VWS V14.01,2013-10-21 23:44:00,
2013-10-21 19:45:00,42.5,34.8,29.70,SSE,162,0.0,0.0,74,0.00,,BKN110,0.03,0.00,VWS V14.01,2013-10-21 23:45:00,
2013-10-21 19:46:00,42.5,34.8,29.70,SSE,162,0.0,0.0,74,0.00,,BKN110,0.03,0.00,VWS V14.01,2013-10-21 23:46:00,
2013-10-21 19:47:00,42.5,34.8,29.70,SSE,162,0.0,0.0,74,0.00,,BKN110,0.03,0.00,VWS V14.01,2013-10-21 23:47:00,
2013-10-21 19:48:00,42.5,34.8,29.70,SSE,162,0.0,0.0,74,0.00,,BKN110,0.03,0.00,VWS V14.01,2013-10-21 23:48:00,
2013-10-21 19:49:00,42.5,34.8,29.70,SSE,162,0.0,0.0,74,0.00,,BKN110,0.03,0.00,VWS V14.01,2013-10-21 23:49:00,
2013-10-21 19:50:00,42.5,34.8,29.70,SE,140,0.0,0.0,74,0.00,,BKN110,0.03,0.00,VWS V14.01,2013-10-21 23:50:00,
2013-10-21 19:51:00,42.6,34.9,29.70,SE,140,0.0,0.0,74,0.00,,BKN110,0.03,0.00,VWS V14.01,2013-10-21 23:51:00,
2013-10-21 19:52:00,42.6,34.9,29.70,SE,140,0.0,0.0,74,0.00,,BKN110,0.03,0.00,VWS V14.01,2013-10-21 23:52:00,
2013-10-21 19:53:00,42.6,34.2,29.70,North,5,2.0,0.0,72,0.00,,BKN110,0.03,0.00,VWS V14.01,2013-10-21 23:53:00,
2013-10-21 19:54:00,42.6,33.9,29.70,SSW,212,0.0,0.0,71,0.00,,BKN110,0.03,0.00,VWS V14.01,2013-10-21 23:54:00,
2013-10-21 19:55:00,42.6,33.5,29.70,South,189,0.0,0.0,70,0.00,,BKN110,0.03,0.00,VWS V14.01,2013-10-21 23:55:00,
2013-10-21 19:56:00,42.6,33.5,29.70,South,190,0.0,0.0,70,0.00,,BKN110,0.03,0.00,VWS V14.01,2013-10-21 23:56:00,
2013-10-21 19:57:00,42.6,33.2,29.70,SSW,197,0.0,0.0,69,0.00,,BKN110,0.03,0.00,VWS V14.01,2013-10-21 23:57:00,
2013-10-21 19:58:00,42.6,33.2,29.70,WSW,245,2.0,0.0,69,0.00,,BKN110,0.03,0.00,VWS V14.01,2013-10-21 23:58:00,
2013-10-21 19:59:00,42.6,32.8,29.70,WSW,246,0.0,0.0,68,0.00,,BKN110,0.03,0.00,VWS V14.01,2013-10-21 23:59:00,
2013-10-21 20:00:00,42.6,32.8,29.70,WNW,290,0.0,0.0,68,0.00,,BKN110,0.03,0.00,VWS V14.01,2013-10-22 00:00:00,
2013-10-21 20:01:00,42.6,32.4,29.70,WNW,290,0.0,0.0,67,0.00,,BKN110,0.03,0.00,VWS V14.01,2013-10-22 00:01:00,
2013-10-21 20:02:00,42.8,32.6,29.70,WNW,290,0.0,0.0,67,0.00,,BKN110,0.03,0.00,VWS V14.01,2013-10-22 00:02:00,
2013-10-21 20:03:00,42.8,32.6,29.70,WSW,254,0.0,0.0,67,0.00,,BKN110,0.03,0.00,VWS V14.01,2013-10-22 00:03:00,
2013-10-21 20:04:00,42.8,32.2,29.70,SSW,209,0.0,0.0,66,0.00,,BKN110,0.03,0.00,VWS V14.01,2013-10-22 00:04:00,
2013-10-21 20:05:00,42.8,32.2,29.70,SSW,209,0.0,0.0,66,0.00,,BKN110,0.03,0.00,VWS V14.01,2013-10-22 00:05:00,
2013-10-21 20:06:00,42.8,32.2,29.70,SSW,209,0.0,0.0,66,0.00,,BKN110,0.03,0.00,VWS V14.01,2013-10-22 00:06:00,
2013-10-21 20:07:00,42.8,32.2,29.70,North,360,1.0,0.0,66,0.00,,BKN110,0.03,0.00,VWS V14.01,2013-10-22 00:07:00,
2013-10-21 20:08:00,42.8,32.2,29.70,North,360,0.0,0.0,66,0.00,,BKN110,0.03,0.00,VWS V14.01,2013-10-22 00:08:00,
2013-10-21 20:09:00,42.8,32.2,29.70,North,360,0.0,0.0,66,0.00,,BKN110,0.03,0.00,VWS V14.01,2013-10-22 00:09:00,
2013-10-21 20:10:00,42.8,32.2,29.70,North,360,0.0,0.0,66,0.00,,BKN110,0.03,0.00,VWS V14.01,2013-10-22 00:10:00,
2013-10-21 20:11:00,42.8,32.2,29.70,North,360,0.0,0.0,66,0.00,,BKN110,0.03,0.00,VWS V14.01,2013-10-22 00:11:00,
2013-10-21 20:12:00,42.8,32.2,29.70,North,360,0.0,0.0,66,0.00,,BKN110,0.03,0.00,VWS V14.01,2013-10-22 00:12:00,
2013-10-21 20:13:00,42.8,32.2,29.70,SSW,205,4.0,0.0,66,0.00,,BKN110,0.03,0.00,VWS V14.01,2013-10-22 00:13:00,
2013-10-21 20:14:00,42.8,32.2,29.70,SW,228,2.0,0.0,66,0.00,,BKN110,0.03,0.00,VWS V14.01,2013-10-22 00:14:00,
2013-10-21 20:15:00,42.8,31.9,29.70,SW,228,0.0,0.0,65,0.00,,BKN110,0.03,0.00,VWS V14.01,2013-10-22 00:15:00,
2013-10-21 20:16:00,42.8,31.9,29.70,SW,231,0.0,0.0,65,0.00,,BKN110,0.03,0.00,VWS V14.01,2013-10-22 00:16:00,
2013-10-21 20:17:00,42.8,31.5,29.70,NE,44,1.0,0.0,64,0.00,,BKN110,0.03,0.00,VWS V14.01,2013-10-22 00:17:00,
2013-10-21 20:18:00,42.8,31.5,29.70,NE,44,0.0,0.0,64,0.00,,BKN110,0.03,0.00,VWS V14.01,2013-10-22 00:18:00,
2013-10-21 20:19:00,42.6,31.3,29.70,NNE,29,0.0,0.0,64,0.00,,BKN110,0.03,0.00,VWS V14.01,2013-10-22 00:19:00,
2013-10-21 20:20:00,42.6,30.9,29.70,South,171,2.0,0.0,63,0.00,,BKN110,0.03,0.00,VWS V14.01,2013-10-22 00:20:00,
2013-10-21 20:21:00,42.6,30.9,29.70,West,268,0.0,0.0,63,0.00,,BKN110,0.03,0.00,VWS V14.01,2013-10-22 00:21:00,
2013-10-21 20:22:00,42.6,30.9,29.70,West,268,0.0,0.0,63,0.00,,BKN110,0.03,0.00,VWS V14.01,2013-10-22 00:22:00,
2013-10-21 20:23:00,42.6,30.9,29.70,West,268,0.0,0.0,63,0.00,,BKN110,0.03,0.00,VWS V14.01,2013-10-22 00:23:00,
2013-10-21 20:24:00,42.6,30.9,29.70,West,268,0.0,0.0,63,0.00,,BKN110,0.03,0.00,VWS V14.01,2013-10-22 00:24:00,
2013-10-21 20:25:00,42.6,30.9,29.70,West,268,0.0,0.0,63,0.00,,BKN110,0.03,0.00,VWS V14.01,2013-10-22 00:25:00,
2013-10-21 20:26:00,42.6,31.3,29.70,West,268,0.0,0.0,64,0.00,,BKN110,0.03,0.00,VWS V14.01,2013-10-22 00:26:00,
2013-10-21 20:27:00,42.6,31.3,29.70,West,268,0.0,0.0,64,0.00,,BKN110,0.03,0.00,VWS V14.01,2013-10-22 00:27:00,
2013-10-21 20:28:00,42.6,31.3,29.70,West,268,0.0,0.0,64,0.00,,BKN110,0.03,0.00,VWS V14.01,2013-10-22 00:28:00,
2013-10-21 20:29:00,42.6,31.3,29.70,West,268,0.0,0.0,64,0.00,,BKN110,0.03,0.00,VWS V14.01,2013-10-22 00:29:00,
2013-10-21 20:30:00,42.5,31.2,29.71,NE,42,1.0,0.0,64,0.00,,BKN110,0.03,0.00,VWS V14.01,2013-10-22 00:30:00,
2013-10-21 20:31:00,42.5,31.2,29.71,NE,38,0.0,0.0,64,0.00,,BKN110,0.03,0.00,VWS V14.01,2013-10-22 00:31:00,
2013-10-21 20:32:00,42.5,31.2,29.71,NE,38,0.0,0.0,64,0.00,,BKN110,0.03,0.00,VWS V14.01,2013-10-22 00:32:00,
2013-10-21 20:33:00,42.5,31.2,29.71,NE,38,0.0,0.0,64,0.00,,BKN110,0.03,0.00,VWS V14.01,2013-10-22 00:33:00,
2013-10-21 20:34:00,42.5,31.2,29.71,NE,40,0.0,0.0,64,0.00,,BKN110,0.03,0.00,VWS V14.01,2013-10-22 00:34:00,
2013-10-21 20:35:00,42.5,31.2,29.71,NE,40,0.0,0.0,64,0.00,,BKN110,0.03,0.00,VWS V14.01,2013-10-22 00:35:00,
2013-10-21 20:36:00,42.5,31.2,29.71,NE,40,0.0,0.0,64,0.00,,BKN110,0.03,0.00,VWS V14.01,2013-10-22 00:36:00,
2013-10-21 20:37:00,42.3,31.0,29.71,NE,40,0.0,0.0,64,0.00,,BKN110,0.03,0.00,VWS V14.01,2013-10-22 00:37:00,
2013-10-21 20:38:00,42.3,31.0,29.71,NE,40,0.0,0.0,64,0.00,,BKN110,0.03,0.00,VWS V14.01,2013-10-22 00:38:00,
2013-10-21 20:39:00,42.3,31.0,29.71,NE,40,0.0,0.0,64,0.00,,BKN110,0.03,0.00,VWS V14.01,2013-10-22 00:39:00,
2013-10-21 20:40:00,42.3,31.0,29.71,West,277,0.0,0.0,64,0.00,,BKN110,0.03,0.00,VWS V14.01,2013-10-22 00:40:00,
2013-10-21 20:41:00,42.3,31.0,29.71,NE,36,0.0,0.0,64,0.00,,BKN110,0.03,0.00,VWS V14.01,2013-10-22 00:41:00,
2013-10-21 20:42:00,42.2,30.9,29.71,NE,36,0.0,0.0,64,0.00,,BKN110,0.03,0.00,VWS V14.01,2013-10-22 00:42:00,
2013-10-21 20:43:00,42.2,30.9,29.71,NE,36,0.0,0.0,64,0.00,,BKN110,0.03,0.00,VWS V14.01,2013-10-22 00:43:00,
2013-10-21 20:44:00,42.2,30.9,29.71,NE,36,0.0,0.0,64,0.00,,BKN110,0.03,0.00,VWS V14.01,2013-10-22 00:44:00,
2013-10-21 20:45:00,42.2,30.9,29.71,NE,53,0.0,0.0,64,0.00,,BKN110,0.03,0.00,VWS V14.01,2013-10-22 00:45:00,
2013-10-21 20:46:00,42.1,30.8,29.71,East,79,0.0,0.0,64,0.00,,BKN110,0.03,0.00,VWS V14.01,2013-10-22 00:46:00,
2013-10-21 20:47:00,42.1,30.8,29.71,East,79,1.0,0.0,64,0.00,,BKN110,0.03,0.00,VWS V14.01,2013-10-22 00:47:00,
2013-10-21 20:48:00,42.1,30.8,29.71,North,11,0.0,0.0,64,0.00,,BKN110,0.03,0.00,VWS V14.01,2013-10-22 00:48:00,
2013-10-21 20:49:00,42.1,30.8,29.71,North,11,0.0,0.0,64,0.00,,BKN110,0.03,0.00,VWS V14.01,2013-10-22 00:49:00,
2013-10-21 20:50:00,42.1,30.8,29.71,NW,308,0.0,0.0,64,0.00,,BKN110,0.03,0.00,VWS V14.01,2013-10-22 00:50:00,
2013-10-21 20:51:00,41.9,30.6,29.71,West,270,0.0,0.0,64,0.00,,BKN110,0.03,0.00,VWS V14.01,2013-10-22 00:51:00,
2013-10-21 20:52:00,41.9,30.2,29.71,NNE,26,0.0,0.0,63,0.00,,BKN110,0.03,0.00,VWS V14.01,2013-10-22 00:52:00,
2013-10-21 20:53:00,41.9,30.2,29.71,West,261,0.0,0.0,63,0.00,,BKN110,0.03,0.00,VWS V14.01,2013-10-22 00:53:00,
2013-10-21 20:54:00,41.9,30.2,29.71,WSW,246,0.0,0.0,63,0.00,,BKN110,0.03,0.00,VWS V14.01,2013-10-22 00:54:00,
2013-10-21 20:55:00,41.9,30.2,29.71,WSW,246,0.0,0.0,63,0.00,,BKN110,0.03,0.00,VWS V14.01,2013-10-22 00:55:00,
2013-10-21 20:56:00,41.8,30.1,29.71,WSW,246,0.0,0.0,63,0.00,,BKN110,0.03,0.00,VWS V14.01,2013-10-22 00:56:00,
2013-10-21 20:57:00,41.8,30.5,29.71,WSW,246,0.0,0.0,64,0.00,,BKN110,0.03,0.00,VWS V14.01,2013-10-22 00:57:00,
2013-10-21 20:58:00,41.8,30.5,29.71,WSW,246,0.0,0.0,64,0.00,,BKN110,0.03,0.00,VWS V14.01,2013-10-22 00:58:00,
2013-10-21 20:59:00,41.8,30.5,29.71,WSW,246,0.0,0.0,64,0.00,,BKN110,0.03,0.00,VWS V14.01,2013-10-22 00:59:00,
2013-10-21 21:00:00,41.8,30.5,29.71,WSW,246,0.0,0.0,64,0.00,,BKN110,0.03,0.00,VWS V14.01,2013-10-22 01:00:00,
2013-10-21 21:01:00,41.8,30.5,29.71,West,266,0.0,0.0,64,0.00,,BKN110,0.03,0.00,VWS V14.01,2013-10-22 01:01:00,
2013-10-21 21:02:00,41.8,30.5,29.71,West,266,0.0,0.0,64,0.00,,BKN110,0.03,0.00,VWS V14.01,2013-10-22 01:02:00,
2013-10-21 21:03:00,41.8,30.9,29.71,West,266,0.0,0.0,65,0.00,,BKN110,0.03,0.00,VWS V14.01,2013-10-22 01:03:00,
2013-10-21 21:04:00,41.8,30.9,29.71,West,266,0.0,0.0,65,0.00,,BKN110,0.03,0.00,VWS V14.01,2013-10-22 01:04:00,
2013-10-21 21:05:00,41.8,30.9,29.71,West,266,0.0,0.0,65,0.00,,BKN110,0.03,0.00,VWS V14.01,2013-10-22 01:05:00,
2013-10-21 21:06:00,41.8,30.9,29.71,West,266,0.0,0.0,65,0.00,,BKN110,0.03,0.00,VWS V14.01,2013-10-22 01:06:00,
2013-10-21 21:07:00,41.8,30.9,29.71,NNE,33,0.0,0.0,65,0.00,,BKN110,0.03,0.00,VWS V14.01,2013-10-22 01:07:00,
2013-10-21 21:08:00,41.8,30.9,29.71,NNE,33,0.0,0.0,65,0.00,,BKN110,0.03,0.00,VWS V14.01,2013-10-22 01:08:00,
2013-10-21 21:09:00,41.8,30.9,29.71,NNE,33,0.0,0.0,65,0.00,,BKN110,0.03,0.00,VWS V14.01,2013-10-22 01:09:00,
2013-10-21 21:10:00,41.8,30.9,29.71,NNE,33,0.0,0.0,65,0.00,,BKN110,0.03,0.00,VWS V14.01,2013-10-22 01:10:00,
2013-10-21 21:11:00,41.8,30.9,29.71,NNE,33,0.0,0.0,65,0.00,,BKN110,0.03,0.00,VWS V14.01,2013-10-22 01:11:00,
2013-10-21 21:12:00,41.8,30.9,29.71,NNE,33,1.0,0.0,65,0.00,,BKN110,0.03,0.00,VWS V14.01,2013-10-22 01:12:00,
2013-10-21 21:13:00,41.8,30.9,29.71,NNE,33,0.0,0.0,65,0.00,,BKN110,0.03,0.00,VWS V14.01,2013-10-22 01:13:00,
2013-10-21 21:14:00,41.8,30.9,29.71,NNE,33,0.0,0.0,65,0.00,,BKN110,0.03,0.00,VWS V14.01,2013-10-22 01:14:00,
2013-10-21 21:15:00,41.8,30.9,29.71,NNE,33,0.0,0.0,65,0.00,,BKN110,0.03,0.00,VWS V14.01,2013-10-22 01:15:00,
2013-10-21 21:16:00,41.6,30.7,29.71,ENE,75,0.0,0.0,65,0.00,,BKN110,0.03,0.00,VWS V14.01,2013-10-22 01:16:00,
2013-10-21 21:17:00,41.6,30.7,29.71,ESE,104,0.0,0.0,65,0.00,,CLR,0.03,0.00,VWS V14.01,2013-10-22 01:17:00,
2013-10-21 21:18:00,41.6,30.7,29.71,West,281,0.0,0.0,65,0.00,,CLR,0.03,0.00,VWS V14.01,2013-10-22 01:18:00,
2013-10-21 21:19:00,41.8,30.9,29.71,West,280,0.0,0.0,65,0.00,,CLR,0.03,0.00,VWS V14.01,2013-10-22 01:19:00,
2013-10-21 21:20:00,41.8,31.3,29.71,East,98,0.0,0.0,66,0.00,,CLR,0.03,0.00,VWS V14.01,2013-10-22 01:20:00,
2013-10-21 21:21:00,41.8,30.9,29.71,West,268,1.0,0.0,65,0.00,,CLR,0.03,0.00,VWS V14.01,2013-10-22 01:21:00,
2013-10-21 21:22:00,41.8,31.3,29.71,West,267,0.0,0.0,66,0.00,,CLR,0.03,0.00,VWS V14.01,2013-10-22 01:22:00,
2013-10-21 21:23:00,41.8,31.3,29.71,West,267,0.0,0.0,66,0.00,,CLR,0.03,0.00,VWS V14.01,2013-10-22 01:23:00,
2013-10-21 21:24:00,41.8,31.3,29.71,SSW,211,1.0,0.0,66,0.00,,CLR,0.03,0.00,VWS V14.01,2013-10-22 01:24:00,
2013-10-21 21:25:00,41.8,30.9,29.71,SSW,213,0.0,0.0,65,0.00,,CLR,0.03,0.00,VWS V14.01,2013-10-22 01:25:00,
2013-10-21 21:26:00,41.8,30.9,29.71,ESE,123,1.0,0.0,65,0.00,,CLR,0.03,0.00,VWS V14.01,2013-10-22 01:26:00,
2013-10-21 21:27:00,41.8,30.9,29.71,North,360,2.0,0.0,65,0.00,,CLR,0.03,0.00,VWS V14.01,2013-10-22 01:27:00,
2013-10-21 21:28:00,41.8,30.9,29.71,North,360,0.0,0.0,65,0.00,,CLR,0.03,0.00,VWS V14.01,2013-10-22 01:28:00,
2013-10-21 21:29:00,41.8,30.9,29.71,North,360,0.0,0.0,65,0.00,,CLR,0.03,0.00,VWS V14.01,2013-10-22 01:29:00,
2013-10-21 21:30:00,41.8,30.9,29.71,North,360,0.0,0.0,65,0.00,,CLR,0.03,0.00,VWS V14.01,2013-10-22 01:30:00,
2013-10-21 21:31:00,41.8,30.9,29.71,SE,128,2.0,0.0,65,0.00,,CLR,0.03,0.00,VWS V14.01,2013-10-22 01:31:00,
2013-10-21 21:32:00,41.8,30.9,29.71,NNE,22,1.0,0.0,65,0.00,,CLR,0.03,0.00,VWS V14.01,2013-10-22 01:32:00,
2013-10-21 21:33:00,41.8,30.9,29.71,North,355,0.0,0.0,65,0.00,,CLR,0.03,0.00,VWS V14.01,2013-10-22 01:33:00,
2013-10-21 21:34:00,41.8,30.9,29.71,ENE,72,0.0,0.0,65,0.00,,CLR,0.03,0.00,VWS V14.01,2013-10-22 01:34:00,
2013-10-21 21:35:00,41.8,30.9,29.71,ENE,72,0.0,0.0,65,0.00,,CLR,0.03,0.00,VWS V14.01,2013-10-22 01:35:00,
2013-10-21 21:36:00,41.8,30.9,29.71,NW,311,0.0,0.0,65,0.00,,CLR,0.03,0.00,VWS V14.01,2013-10-22 01:36:00,
2013-10-21 21:37:00,41.8,30.9,29.71,NW,311,0.0,0.0,65,0.00,,CLR,0.03,0.00,VWS V14.01,2013-10-22 01:37:00,
2013-10-21 21:38:00,41.8,30.9,29.71,NW,311,0.0,0.0,65,0.00,,CLR,0.03,0.00,VWS V14.01,2013-10-22 01:38:00,
2013-10-21 21:39:00,41.8,30.9,29.71,NW,311,0.0,0.0,65,0.00,,CLR,0.03,0.00,VWS V14.01,2013-10-22 01:39:00,
2013-10-21 21:40:00,41.8,30.9,29.71,NW,311,0.0,0.0,65,0.00,,CLR,0.03,0.00,VWS V14.01,2013-10-22 01:40:00,
2013-10-21 21:41:00,41.8,30.9,29.71,NW,311,1.0,0.0,65,0.00,,CLR,0.03,0.00,VWS V14.01,2013-10-22 01:41:00,
2013-10-21 21:42:00,41.8,30.9,29.71,NW,311,0.0,0.0,65,0.00,,CLR,0.03,0.00,VWS V14.01,2013-10-22 01:42:00,
2013-10-21 21:43:00,41.8,30.5,29.71,NW,311,0.0,0.0,64,0.00,,CLR,0.03,0.00,VWS V14.01,2013-10-22 01:43:00,
2013-10-21 21:44:00,41.8,30.5,29.71,South,172,1.0,0.0,64,0.00,,CLR,0.03,0.00,VWS V14.01,2013-10-22 01:44:00,
2013-10-21 21:45:00,41.6,30.3,29.72,South,172,0.0,0.0,64,0.00,,CLR,0.03,0.00,VWS V14.01,2013-10-22 01:45:00,
2013-10-21 21:46:00,41.6,30.3,29.72,WSW,245,0.0,0.0,64,0.00,,CLR,0.03,0.00,VWS V14.01,2013-10-22 01:46:00,
2013-10-21 21:47:00,41.6,30.3,29.72,WSW,245,0.0,0.0,64,0.00,,CLR,0.03,0.00,VWS V14.01,2013-10-22 01:47:00,
2013-10-21 21:48:00,41.6,30.3,29.72,SSW,211,0.0,0.0,64,0.00,,CLR,0.03,0.00,VWS V14.01,2013-10-22 01:48:00,
2013-10-21 21:49:00,41.6,30.3,29.72,WNW,295,0.0,0.0,64,0.00,,CLR,0.03,0.00,VWS V14.01,2013-10-22 01:49:00,
2013-10-21 21:50:00,41.6,30.0,29.72,WSW,258,2.0,0.0,63,0.00,,CLR,0.03,0.00,VWS V14.01,2013-10-22 01:50:00,
2013-10-21 21:51:00,41.6,30.0,29.72,WSW,257,0.0,0.0,63,0.00,,CLR,0.03,0.00,VWS V14.01,2013-10-22 01:51:00,
2013-10-21 21:52:00,41.6,30.0,29.72,WSW,257,0.0,0.0,63,0.00,,CLR,0.03,0.00,VWS V14.01,2013-10-22 01:52:00,
2013-10-21 21:53:00,41.6,30.0,29.72,West,263,0.0,0.0,63,0.00,,CLR,0.03,0.00,VWS V14.01,2013-10-22 01:53:00,
2013-10-21 21:54:00,41.6,30.0,29.72,West,262,0.0,0.0,63,0.00,,CLR,0.03,0.00,VWS V14.01,2013-10-22 01:54:00,
2013-10-21 21:55:00,41.6,30.0,29.72,West,263,0.0,0.0,63,0.00,,CLR,0.03,0.00,VWS V14.01,2013-10-22 01:55:00,
2013-10-21 21:56:00,41.6,30.0,29.72,West,263,0.0,0.0,63,0.00,,CLR,0.03,0.00,VWS V14.01,2013-10-22 01:56:00,
2013-10-21 21:57:00,41.6,30.0,29.72,West,263,0.0,0.0,63,0.00,,CLR,0.03,0.00,VWS V14.01,2013-10-22 01:57:00,
2013-10-21 21:58:00,41.6,30.0,29.72,SW,236,0.0,0.0,63,0.00,,CLR,0.03,0.00,VWS V14.01,2013-10-22 01:58:00,
2013-10-21 21:59:00,41.6,30.0,29.72,SW,236,0.0,0.0,63,0.00,,CLR,0.03,0.00,VWS V14.01,2013-10-22 01:59:00,
2013-10-21 22:00:00,41.6,30.3,29.72,SW,236,0.0,0.0,64,0.00,,CLR,0.03,0.00,VWS V14.01,2013-10-22 02:00:00,
2013-10-21 22:01:00,41.5,30.2,29.72,SW,236,0.0,0.0,64,0.00,,CLR,0.03,0.00,VWS V14.01,2013-10-22 02:01:00,
2013-10-21 22:02:00,41.5,30.2,29.72,SW,236,0.0,0.0,64,0.00,,CLR,0.03,0.00,VWS V14.01,2013-10-22 02:02:00,
2013-10-21 22:03:00,41.5,30.2,29.72,SW,236,0.0,0.0,64,0.00,,CLR,0.03,0.00,VWS V14.01,2013-10-22 02:03:00,
2013-10-21 22:04:00,41.5,30.2,29.72,SW,236,0.0,0.0,64,0.00,,CLR,0.03,0.00,VWS V14.01,2013-10-22 02:04:00,
2013-10-21 22:05:00,41.5,30.2,29.72,SW,236,0.0,0.0,64,0.00,,CLR,0.03,0.00,VWS V14.01,2013-10-22 02:05:00,
2013-10-21 22:06:00,41.5,30.2,29.72,East,79,0.0,0.0,64,0.00,,CLR,0.03,0.00,VWS V14.01,2013-10-22 02:06:00,
2013-10-21 22:07:00,41.5,29.9,29.72,West,265,0.0,0.0,63,0.00,,CLR,0.03,0.00,VWS V14.01,2013-10-22 02:07:00,
2013-10-21 22:08:00,41.5,29.9,29.72,North,355,0.0,0.0,63,0.00,,CLR,0.03,0.00,VWS V14.01,2013-10-22 02:08:00,
2013-10-21 22:09:00,41.5,29.9,29.72,NW,307,0.0,0.0,63,0.00,,CLR,0.03,0.00,VWS V14.01,2013-10-22 02:09:00,
2013-10-21 22:10:00,41.3,29.3,29.72,NW,313,0.0,0.0,62,0.00,,CLR,0.03,0.00,VWS V14.01,2013-10-22 02:10:00,
2013-10-21 22:11:00,41.3,29.3,29.72,NW,313,0.0,0.0,62,0.00,,CLR,0.03,0.00,VWS V14.01,2013-10-22 02:11:00,
2013-10-21 22:12:00,41.3,29.7,29.72,SSE,154,1.0,0.0,63,0.00,,CLR,0.03,0.00,VWS V14.01,2013-10-22 02:12:00,
2013-10-21 22:13:00,41.3,29.7,29.72,SW,218,0.0,0.0,63,0.00,,CLR,0.03,0.00,VWS V14.01,2013-10-22 02:13:00,
2013-10-21 22:14:00,41.3,29.7,29.72,South,175,0.0,0.0,63,0.00,,CLR,0.03,0.00,VWS V14.01,2013-10-22 02:14:00,
2013-10-21 22:15:00,41.3,29.7,29.73,South,176,0.0,0.0,63,0.00,,CLR,0.03,0.00,VWS V14.01,2013-10-22 02:15:00,
2013-10-21 22:16:00,41.3,29.3,29.73,WSW,246,0.0,0.0,62,0.00,,CLR,0.03,0.00,VWS V14.01,2013-10-22 02:16:00,
2013-10-21 22:17:00,41.3,29.3,29.73,WSW,246,0.0,0.0,62,0.00,,CLR,0.03,0.00,VWS V14.01,2013-10-22 02:17:00,
2013-10-21 22:18:00,41.3,29.3,29.73,WSW,246,0.0,0.0,62,0.00,,CLR,0.03,0.00,VWS V14.01,2013-10-22 02:18:00,
2013-10-21 22:19:00,41.3,29.3,29.73,SSW,212,0.0,0.0,62,0.00,,CLR,0.03,0.00,VWS V14.01,2013-10-22 02:19:00,
2013-10-21 22:20:00,41.3,29.3,29.73,SSW,212,0.0,0.0,62,0.00,,CLR,0.03,0.00,VWS V14.01,2013-10-22 02:20:00,
2013-10-21 22:21:00,41.3,29.3,29.73,SSW,212,0.0,0.0,62,0.00,,CLR,0.03,0.00,VWS V14.01,2013-10-22 02:21:00,
2013-10-21 22:22:00,41.3,29.3,29.73,SSW,212,0.0,0.0,62,0.00,,CLR,0.03,0.00,VWS V14.01,2013-10-22 02:22:00,
2013-10-21 22:23:00,41.3,29.7,29.73,SSW,212,0.0,0.0,63,0.00,,CLR,0.03,0.00,VWS V14.01,2013-10-22 02:23:00,
2013-10-21 22:24:00,41.3,29.3,29.73,South,172,1.0,0.0,62,0.00,,CLR,0.03,0.00,VWS V14.01,2013-10-22 02:24:00,
2013-10-21 22:25:00,41.3,29.3,29.73,South,176,0.0,0.0,62,0.00,,CLR,0.03,0.00,VWS V14.01,2013-10-22 02:25:00,
2013-10-21 22:26:00,41.2,29.6,29.73,South,176,0.0,0.0,63,0.00,,CLR,0.03,0.00,VWS V14.01,2013-10-22 02:26:00,
2013-10-21 22:27:00,41.3,29.7,29.73,South,178,0.0,0.0,63,0.00,,CLR,0.03,0.00,VWS V14.01,2013-10-22 02:27:00,
2013-10-21 22:28:00,41.2,29.6,29.73,South,178,0.0,0.0,63,0.00,,CLR,0.03,0.00,VWS V14.01,2013-10-22 02:28:00,
2013-10-21 22:29:00,41.2,29.6,29.73,South,178,0.0,0.0,63,0.00,,CLR,0.03,0.00,VWS V14.01,2013-10-22 02:29:00,
2013-10-21 22:30:00,41.2,29.6,29.73,South,178,0.0,0.0,63,0.00,,CLR,0.03,0.00,VWS V14.01,2013-10-22 02:30:00,
2013-10-21 22:31:00,41.2,30.0,29.73,SE,136,0.0,0.0,64,0.00,,CLR,0.03,0.00,VWS V14.01,2013-10-22 02:31:00,
2013-10-21 22:32:00,41.2,29.6,29.73,SE,136,0.0,0.0,63,0.00,,CLR,0.03,0.00,VWS V14.01,2013-10-22 02:32:00,
2013-10-21 22:33:00,41.2,29.6,29.73,SE,137,0.0,0.0,63,0.00,,CLR,0.03,0.00,VWS V14.01,2013-10-22 02:33:00,
2013-10-21 22:34:00,41.2,29.6,29.73,SE,137,0.0,0.0,63,0.00,,CLR,0.03,0.00,VWS V14.01,2013-10-22 02:34:00,
2013-10-21 22:35:00,41.2,29.6,29.73,SE,137,0.0,0.0,63,0.00,,CLR,0.03,0.00,VWS V14.01,2013-10-22 02:35:00,
2013-10-21 22:36:00,41.2,29.6,29.73,SE,137,0.0,0.0,63,0.00,,CLR,0.03,0.00,VWS V14.01,2013-10-22 02:36:00,
2013-10-21 22:37:00,41.2,29.6,29.73,SE,138,0.0,0.0,63,0.00,,CLR,0.03,0.00,VWS V14.01,2013-10-22 02:37:00,
2013-10-21 22:38:00,41.2,29.6,29.73,SE,138,0.0,0.0,63,0.00,,CLR,0.03,0.00,VWS V14.01,2013-10-22 02:38:00,
2013-10-21 22:39:00,41.2,29.6,29.73,ESE,107,0.0,0.0,63,0.00,,CLR,0.03,0.00,VWS V14.01,2013-10-22 02:39:00,
2013-10-21 22:40:00,41.2,29.6,29.73,ESE,107,0.0,0.0,63,0.00,,CLR,0.03,0.00,VWS V14.01,2013-10-22 02:40:00,
2013-10-21 22:41:00,41.2,29.6,29.73,ESE,107,0.0,0.0,63,0.00,,CLR,0.03,0.00,VWS V14.01,2013-10-22 02:41:00,
2013-10-21 22:42:00,41.2,29.6,29.73,ESE,107,0.0,0.0,63,0.00,,CLR,0.03,0.00,VWS V14.01,2013-10-22 02:42:00,
2013-10-21 22:43:00,41.2,29.6,29.73,ESE,107,0.0,0.0,63,0.00,,CLR,0.03,0.00,VWS V14.01,2013-10-22 02:43:00,
2013-10-21 22:44:00,41.1,29.5,29.73,ESE,107,0.0,0.0,63,0.00,,CLR,0.03,0.00,VWS V14.01,2013-10-22 02:44:00,
2013-10-21 22:45:00,41.2,29.6,29.73,ESE,107,0.0,0.0,63,0.00,,CLR,0.03,0.00,VWS V14.01,2013-10-22 02:45:00,
2013-10-21 22:46:00,41.1,29.5,29.73,ESE,107,0.0,0.0,63,0.00,,CLR,0.03,0.00,VWS V14.01,2013-10-22 02:46:00,
2013-10-21 22:47:00,41.1,29.5,29.73,WSW,246,0.0,0.0,63,0.00,,CLR,0.03,0.00,VWS V14.01,2013-10-22 02:47:00,
2013-10-21 22:48:00,41.1,29.5,29.73,WSW,246,0.0,0.0,63,0.00,,CLR,0.03,0.00,VWS V14.01,2013-10-22 02:48:00,
2013-10-21 22:49:00,41.1,29.5,29.73,WSW,246,0.0,0.0,63,0.00,,CLR,0.03,0.00,VWS V14.01,2013-10-22 02:49:00,
2013-10-21 22:50:00,41.1,29.5,29.73,WSW,246,0.0,0.0,63,0.00,,CLR,0.03,0.00,VWS V14.01,2013-10-22 02:50:00,
2013-10-21 22:51:00,41.1,29.5,29.73,WSW,246,0.0,0.0,63,0.00,,CLR,0.03,0.00,VWS V14.01,2013-10-22 02:51:00,
2013-10-21 22:52:00,41.1,29.5,29.73,WSW,246,0.0,0.0,63,0.00,,CLR,0.03,0.00,VWS V14.01,2013-10-22 02:52:00,
2013-10-21 22:53:00,41.1,29.5,29.73,WSW,246,0.0,0.0,63,0.00,,CLR,0.03,0.00,VWS V14.01,2013-10-22 02:53:00,
2013-10-21 22:54:00,41.1,29.5,29.73,WNW,296,0.0,0.0,63,0.00,,CLR,0.03,0.00,VWS V14.01,2013-10-22 02:54:00,
2013-10-21 22:55:00,41.1,29.1,29.73,WSW,258,0.0,0.0,62,0.00,,CLR,0.03,0.00,VWS V14.01,2013-10-22 02:55:00,
2013-10-21 22:56:00,41.1,29.1,29.73,WSW,258,0.0,0.0,62,0.00,,CLR,0.03,0.00,VWS V14.01,2013-10-22 02:56:00,
2013-10-21 22:57:00,41.1,29.1,29.73,WSW,258,0.0,0.0,62,0.00,,CLR,0.03,0.00,VWS V14.01,2013-10-22 02:57:00,
2013-10-21 22:58:00,41.1,29.1,29.73,WSW,258,0.0,0.0,62,0.00,,CLR,0.03,0.00,VWS V14.01,2013-10-22 02:58:00,
2013-10-21 22:59:00,41.1,29.1,29.73,WSW,258,1.0,0.0,62,0.00,,CLR,0.03,0.00,VWS V14.01,2013-10-22 02:59:00,
2013-10-21 23:00:00,41.1,29.1,29.73,WSW,258,0.0,0.0,62,0.00,,CLR,0.03,0.00,VWS V14.01,2013-10-22 03:00:00,
2013-10-21 23:01:00,40.9,29.3,29.73,WSW,258,0.0,0.0,63,0.00,,CLR,0.03,0.00,VWS V14.01,2013-10-22 03:01:00,
2013-10-21 23:02:00,40.9,29.3,29.73,WSW,254,0.0,0.0,63,0.00,,CLR,0.03,0.00,VWS V14.01,2013-10-22 03:02:00,
2013-10-21 23:03:00,40.9,29.3,29.73,WSW,254,0.0,0.0,63,0.00,,CLR,0.03,0.00,VWS V14.01,2013-10-22 03:03:00,
2013-10-21 23:04:00,40.9,28.9,29.73,WSW,254,0.0,0.0,62,0.00,,CLR,0.03,0.00,VWS V14.01,2013-10-22 03:04:00,
2013-10-21 23:05:00,40.9,28.9,29.73,WSW,254,0.0,0.0,62,0.00,,CLR,0.03,0.00,VWS V14.01,2013-10-22 03:05:00,
2013-10-21 23:06:00,40.9,28.9,29.73,ENE,69,1.0,0.0,62,0.00,,CLR,0.03,0.00,VWS V14.01,2013-10-22 03:06:00,
2013-10-21 23:07:00,40.9,28.5,29.73,NNW,344,0.0,0.0,61,0.00,,CLR,0.03,0.00,VWS V14.01,2013-10-22 03:07:00,
2013-10-21 23:08:00,40.9,28.5,29.73,NNW,344,0.0,0.0,61,0.00,,CLR,0.03,0.00,VWS V14.01,2013-10-22 03:08:00,
2013-10-21 23:09:00,40.9,28.9,29.73,NNW,344,0.0,0.0,62,0.00,,CLR,0.03,0.00,VWS V14.01,2013-10-22 03:09:00,
2013-10-21 23:10:00,40.9,28.9,29.73,NNW,344,0.0,0.0,62,0.00,,CLR,0.03,0.00,VWS V14.01,2013-10-22 03:10:00,
2013-10-21 23:11:00,40.9,28.5,29.73,NNW,344,0.0,0.0,61,0.00,,CLR,0.03,0.00,VWS V14.01,2013-10-22 03:11:00,
2013-10-21 23:12:00,40.9,28.5,29.73,NNW,344,0.0,0.0,61,0.00,,CLR,0.03,0.00,VWS V14.01,2013-10-22 03:12:00,
2013-10-21 23:13:00,40.8,28.8,29.73,NNW,344,0.0,0.0,62,0.00,,CLR,0.03,0.00,VWS V14.01,2013-10-22 03:13:00,
2013-10-21 23:14:00,40.8,28.8,29.73,NNW,344,0.0,0.0,62,0.00,,CLR,0.03,0.00,VWS V14.01,2013-10-22 03:14:00,
2013-10-21 23:15:00,40.8,28.8,29.73,NNW,348,0.0,0.0,62,0.00,,CLR,0.03,0.00,VWS V14.01,2013-10-22 03:15:00,
2013-10-21 23:16:00,40.8,28.8,29.73,WSW,254,0.0,0.0,62,0.00,,CLR,0.03,0.00,VWS V14.01,2013-10-22 03:16:00,
2013-10-21 23:17:00,40.8,28.8,29.73,WSW,254,0.0,0.0,62,0.00,,CLR,0.03,0.00,VWS V14.01,2013-10-22 03:17:00,
2013-10-21 23:18:00,40.8,28.8,29.73,WSW,254,0.0,0.0,62,0.00,,CLR,0.03,0.00,VWS V14.01,2013-10-22 03:18:00,
2013-10-21 23:19:00,40.8,28.8,29.73,East,86,0.0,0.0,62,0.00,,CLR,0.03,0.00,VWS V14.01,2013-10-22 03:19:00,
2013-10-21 23:20:00,40.8,28.8,29.73,East,86,0.0,0.0,62,0.00,,CLR,0.03,0.00,VWS V14.01,2013-10-22 03:20:00,
2013-10-21 23:21:00,40.6,28.6,29.73,East,86,0.0,0.0,62,0.00,,CLR,0.03,0.00,VWS V14.01,2013-10-22 03:21:00,
2013-10-21 23:22:00,40.6,28.6,29.73,South,189,0.0,0.0,62,0.00,,CLR,0.03,0.00,VWS V14.01,2013-10-22 03:22:00,
2013-10-21 23:23:00,40.6,28.6,29.73,SSW,198,0.0,0.0,62,0.00,,CLR,0.03,0.00,VWS V14.01,2013-10-22 03:23:00,
2013-10-21 23:24:00,40.6,28.6,29.73,SW,221,0.0,0.0,62,0.00,,CLR,0.03,0.00,VWS V14.01,2013-10-22 03:24:00,
2013-10-21 23:25:00,40.6,28.6,29.73,SW,221,0.0,0.0,62,0.00,,CLR,0.03,0.00,VWS V14.01,2013-10-22 03:25:00,
2013-10-21 23:26:00,40.6,28.6,29.73,SW,221,0.0,0.0,62,0.00,,CLR,0.03,0.00,VWS V14.01,2013-10-22 03:26:00,
2013-10-21 23:27:00,40.6,28.6,29.73,SW,221,0.0,0.0,62,0.00,,CLR,0.03,0.00,VWS V14.01,2013-10-22 03:27:00,
2013-10-21 23:28:00,40.6,28.6,29.73,SW,221,0.0,0.0,62,0.00,,CLR,0.03,0.00,VWS V14.01,2013-10-22 03:28:00,
2013-10-21 23:29:00,40.6,28.6,29.73,SW,221,0.0,0.0,62,0.00,,CLR,0.03,0.00,VWS V14.01,2013-10-22 03:29:00,
2013-10-21 23:30:00,40.5,28.9,29.72,SW,221,0.0,0.0,63,0.00,,CLR,0.03,0.00,VWS V14.01,2013-10-22 03:30:00,
2013-10-21 23:31:00,40.5,28.9,29.72,SW,221,0.0,0.0,63,0.00,,CLR,0.03,0.00,VWS V14.01,2013-10-22 03:31:00,
2013-10-21 23:32:00,40.5,28.9,29.72,SW,221,0.0,0.0,63,0.00,,CLR,0.03,0.00,VWS V14.01,2013-10-22 03:32:00,
2013-10-21 23:33:00,40.5,28.9,29.72,SW,221,0.0,0.0,63,0.00,,CLR,0.03,0.00,VWS V14.01,2013-10-22 03:33:00,
2013-10-21 23:34:00,40.5,28.9,29.72,SW,221,0.0,0.0,63,0.00,,CLR,0.03,0.00,VWS V14.01,2013-10-22 03:34:00,
2013-10-21 23:35:00,40.5,28.9,29.72,SW,221,0.0,0.0,63,0.00,,CLR,0.03,0.00,VWS V14.01,2013-10-22 03:35:00,
2013-10-21 23:36:00,40.5,28.9,29.72,SW,221,0.0,0.0,63,0.00,,CLR,0.03,0.00,VWS V14.01,2013-10-22 03:36:00,
2013-10-21 23:37:00,40.5,28.9,29.72,SW,221,0.0,0.0,63,0.00,,CLR,0.03,0.00,VWS V14.01,2013-10-22 03:37:00,
2013-10-21 23:38:00,40.5,28.9,29.72,SW,228,0.0,0.0,63,0.00,,CLR,0.03,0.00,VWS V14.01,2013-10-22 03:38:00,
2013-10-21 23:39:00,40.3,28.7,29.72,ESE,109,0.0,0.0,63,0.00,,CLR,0.03,0.00,VWS V14.01,2013-10-22 03:39:00,
2013-10-21 23:40:00,40.3,28.3,29.72,ESE,109,0.0,0.0,62,0.00,,CLR,0.03,0.00,VWS V14.01,2013-10-22 03:40:00,
2013-10-21 23:41:00,40.3,28.3,29.72,ESE,109,0.0,0.0,62,0.00,,CLR,0.03,0.00,VWS V14.01,2013-10-22 03:41:00,
2013-10-21 23:42:00,40.3,28.7,29.72,ESE,109,0.0,0.0,63,0.00,,CLR,0.03,0.00,VWS V14.01,2013-10-22 03:42:00,
2013-10-21 23:43:00,40.3,28.7,29.72,ESE,109,0.0,0.0,63,0.00,,CLR,0.03,0.00,VWS V14.01,2013-10-22 03:43:00,
2013-10-21 23:44:00,40.3,28.7,29.72,ESE,109,0.0,0.0,63,0.00,,CLR,0.03,0.00,VWS V14.01,2013-10-22 03:44:00,
2013-10-21 23:45:00,40.3,28.7,29.72,ESE,108,0.0,0.0,63,0.00,,CLR,0.03,0.00,VWS V14.01,2013-10-22 03:45:00,
2013-10-21 23:46:00,40.2,28.2,29.72,ESE,108,0.0,0.0,62,0.00,,CLR,0.03,0.00,VWS V14.01,2013-10-22 03:46:00,
2013-10-21 23:47:00,40.2,28.2,29.72,ESE,108,0.0,0.0,62,0.00,,CLR,0.03,0.00,VWS V14.01,2013-10-22 03:47:00,
2013-10-21 23:48:00,40.2,28.2,29.72,SE,143,0.0,0.0,62,0.00,,CLR,0.03,0.00,VWS V14.01,2013-10-22 03:48:00,
2013-10-21 23:49:00,40.2,28.2,29.72,SE,143,0.0,0.0,62,0.00,,CLR,0.03,0.00,VWS V14.01,2013-10-22 03:49:00,
2013-10-21 23:50:00,40.2,28.2,29.72,SE,145,0.0,0.0,62,0.00,,CLR,0.03,0.00,VWS V14.01,2013-10-22 03:50:00,
2013-10-21 23:51:00,40.1,28.1,29.72,ESE,114,1.0,0.0,62,0.00,,CLR,0.03,0.00,VWS V14.01,2013-10-22 03:51:00,
2013-10-21 23:52:00,40.1,28.1,29.72,ESE,113,0.0,0.0,62,0.00,,CLR,0.03,0.00,VWS V14.01,2013-10-22 03:52:00,
2013-10-21 23:53:00,40.1,28.1,29.72,East,86,0.0,0.0,62,0.00,,CLR,0.03,0.00,VWS V14.01,2013-10-22 03:53:00,
2013-10-21 23:54:00,40.1,28.1,29.72,East,86,0.0,0.0,62,0.00,,CLR,0.03,0.00,VWS V14.01,2013-10-22 03:54:00,
2013-10-21 23:55:00,40.1,28.1,29.72,East,86,0.0,0.0,62,0.00,,CLR,0.03,0.00,VWS V14.01,2013-10-22 03:55:00,
2013-10-21 23:56:00,40.1,28.1,29.72,East,86,0.0,0.0,62,0.00,,CLR,0.03,0.00,VWS V14.01,2013-10-22 03:56:00,
2013-10-21 23:57:00,40.1,28.1,29.72,WSW,246,0.0,0.0,62,0.00,,CLR,0.03,0.00,VWS V14.01,2013-10-22 03:57:00,
2013-10-21 23:58:00,40.1,28.1,29.72,West,273,2.0,0.0,62,0.00,,CLR,0.03,0.00,VWS V14.01,2013-10-22 03:58:00,
2013-10-21 23:59:00,40.1,28.1,29.72,WNW,289,0.0,0.0,62,0.00,,CLR,0.03,0.00,VWS V14.01,2013-10-22 03:59:00,